Time,TemperatureF,DewpointF,PressureIn,WindDirection,WindDirectionDegrees,WindSpeedMPH,WindSpeedGustMPH,Humidity,HourlyPrecipIn,Conditions,Clouds,dailyrainin,SoftwareType,DateUTC
2013-01-20 00:00:00,45.9,31.1,29.96,South,190,2.0,4.0,56,0.00,,---,0.00,VWS V14.01,2013-01-20 05:00:00,
2013-01-20 00:01:00,45.9,31.1,29.96,WSW,254,0.0,5.0,56,0.00,,---,0.00,VWS V14.01,2013-01-20 05:01:00,
2013-01-20 00:02:00,45.9,30.7,29.96,SW,225,4.0,5.0,55,0.00,,---,0.00,VWS V14.01,2013-01-20 05:02:00,
2013-01-20 00:03:00,45.8,31.0,29.96,WSW,238,5.0,7.0,56,0.00,,---,0.00,VWS V14.01,2013-01-20 05:03:00,
2013-01-20 00:04:00,45.8,31.0,29.96,West,271,4.0,7.0,56,0.00,,---,0.00,VWS V14.01,2013-01-20 05:04:00,
2013-01-20 00:05:00,45.8,31.0,29.96,SSW,212,4.0,6.0,56,0.00,,---,0.00,VWS V14.01,2013-01-20 05:05:00,
2013-01-20 00:06:00,45.9,31.1,29.95,SSE,157,4.0,5.0,56,0.00,,---,0.00,VWS V14.01,2013-01-20 05:06:00,
2013-01-20 00:07:00,45.8,31.0,29.95,SW,230,1.0,4.0,56,0.00,,---,0.00,VWS V14.01,2013-01-20 05:07:00,
2013-01-20 00:08:00,45.9,31.1,29.95,WSW,244,4.0,6.0,56,0.00,,---,0.00,VWS V14.01,2013-01-20 05:08:00,
2013-01-20 00:09:00,45.9,31.1,29.95,SE,125,6.0,13.0,56,0.00,,---,0.00,VWS V14.01,2013-01-20 05:09:00,
2013-01-20 00:10:00,45.9,31.1,29.95,SW,226,4.0,6.0,56,0.00,,---,0.00,VWS V14.01,2013-01-20 05:10:00,
2013-01-20 00:11:00,45.9,31.1,29.95,SSW,207,3.0,8.0,56,0.00,,---,0.00,VWS V14.01,2013-01-20 05:11:00,
2013-01-20 00:12:00,45.9,31.1,29.95,East,95,4.0,7.0,56,0.00,,---,0.00,VWS V14.01,2013-01-20 05:12:00,
2013-01-20 00:13:00,45.9,31.1,29.95,SW,225,2.0,5.0,56,0.00,,---,0.00,VWS V14.01,2013-01-20 05:13:00,
2013-01-20 00:14:00,45.9,31.1,29.95,SW,227,1.0,4.0,56,0.00,,---,0.00,VWS V14.01,2013-01-20 05:14:00,
2013-01-20 00:15:00,45.9,31.1,29.95,SW,217,2.0,7.0,56,0.00,,---,0.00,VWS V14.01,2013-01-20 05:15:00,
2013-01-20 00:16:00,45.9,31.1,29.95,West,265,1.0,5.0,56,0.00,,---,0.00,VWS V14.01,2013-01-20 05:16:00,
2013-01-20 00:17:00,45.9,31.1,29.95,SSE,165,5.0,5.0,56,0.00,,---,0.00,VWS V14.01,2013-01-20 05:17:00,
2013-01-20 00:18:00,45.9,31.1,29.95,SW,219,1.0,6.0,56,0.00,,---,0.00,VWS V14.01,2013-01-20 05:18:00,
2013-01-20 00:19:00,45.9,31.1,29.95,SSW,203,3.0,5.0,56,0.00,,---,0.00,VWS V14.01,2013-01-20 05:19:00,
2013-01-20 00:20:00,45.9,31.1,29.95,SW,225,1.0,5.0,56,0.00,,---,0.00,VWS V14.01,2013-01-20 05:20:00,
2013-01-20 00:21:00,45.9,31.1,29.94,SW,218,5.0,5.0,56,0.00,,---,0.00,VWS V14.01,2013-01-20 05:21:00,
2013-01-20 00:22:00,45.9,31.1,29.94,SW,223,2.0,3.0,56,0.00,,---,0.00,VWS V14.01,2013-01-20 05:22:00,
2013-01-20 00:23:00,45.9,31.1,29.95,SW,227,5.0,5.0,56,0.00,,---,0.00,VWS V14.01,2013-01-20 05:23:00,
2013-01-20 00:24:00,45.9,31.1,29.95,South,188,3.0,5.0,56,0.00,,---,0.00,VWS V14.01,2013-01-20 05:24:00,
2013-01-20 00:25:00,45.9,31.1,29.95,SW,217,4.0,6.0,56,0.00,,---,0.00,VWS V14.01,2013-01-20 05:25:00,
2013-01-20 00:26:00,45.9,31.1,29.94,SSW,206,1.0,5.0,56,0.00,,---,0.00,VWS V14.01,2013-01-20 05:26:00,
2013-01-20 00:27:00,45.9,31.1,29.95,SSW,208,2.0,5.0,56,0.00,,---,0.00,VWS V14.01,2013-01-20 05:27:00,
2013-01-20 00:28:00,45.8,31.0,29.95,WNW,294,5.0,7.0,56,0.00,,---,0.00,VWS V14.01,2013-01-20 05:28:00,
2013-01-20 00:29:00,45.9,31.1,29.94,SW,215,4.0,6.0,56,0.00,,---,0.00,VWS V14.01,2013-01-20 05:29:00,
2013-01-20 00:30:00,45.9,31.1,29.95,SW,233,2.0,4.0,56,0.00,,---,0.00,VWS V14.01,2013-01-20 05:30:00,
2013-01-20 00:31:00,45.9,31.1,29.94,South,180,10.0,10.0,56,0.00,,---,0.00,VWS V14.01,2013-01-20 05:31:00,
2013-01-20 00:32:00,45.9,31.1,29.94,SW,232,4.0,4.0,56,0.00,,---,0.00,VWS V14.01,2013-01-20 05:32:00,
2013-01-20 00:33:00,45.9,31.1,29.94,SW,230,1.0,5.0,56,0.00,,---,0.00,VWS V14.01,2013-01-20 05:33:00,
2013-01-20 00:34:00,45.9,31.1,29.94,SW,232,2.0,9.0,56,0.00,,---,0.00,VWS V14.01,2013-01-20 05:34:00,
2013-01-20 00:35:00,45.9,31.1,29.94,SW,233,2.0,3.0,56,0.00,,---,0.00,VWS V14.01,2013-01-20 05:35:00,
2013-01-20 00:36:00,45.9,31.1,29.94,SW,229,5.0,5.0,56,0.00,,---,0.00,VWS V14.01,2013-01-20 05:36:00,
2013-01-20 00:37:00,45.9,31.1,29.94,SW,236,1.0,4.0,56,0.00,,---,0.00,VWS V14.01,2013-01-20 05:37:00,
2013-01-20 00:38:00,45.9,31.1,29.94,SSW,210,2.0,5.0,56,0.00,,---,0.00,VWS V14.01,2013-01-20 05:38:00,
2013-01-20 00:39:00,45.9,31.1,29.94,SW,227,4.0,5.0,56,0.00,,---,0.00,VWS V14.01,2013-01-20 05:39:00,
2013-01-20 00:40:00,45.9,31.1,29.94,SE,125,9.0,9.0,56,0.00,,---,0.00,VWS V14.01,2013-01-20 05:40:00,
2013-01-20 00:41:00,45.9,31.1,29.94,South,190,4.0,9.0,56,0.00,,---,0.00,VWS V14.01,2013-01-20 05:41:00,
2013-01-20 00:42:00,45.9,31.1,29.94,South,190,4.0,9.0,56,0.00,,---,0.00,VWS V14.01,2013-01-20 05:42:00,
2013-01-20 00:43:00,45.9,31.1,29.94,WSW,241,2.0,5.0,56,0.00,,---,0.00,VWS V14.01,2013-01-20 05:43:00,
2013-01-20 00:44:00,45.9,31.1,29.94,SW,221,0.0,2.0,56,0.00,,---,0.00,VWS V14.01,2013-01-20 05:44:00,
2013-01-20 00:45:00,45.9,31.1,29.94,WSW,238,1.0,4.0,56,0.00,,---,0.00,VWS V14.01,2013-01-20 05:45:00,
2013-01-20 00:46:00,45.9,31.1,29.93,WSW,242,1.0,7.0,56,0.00,,---,0.00,VWS V14.01,2013-01-20 05:46:00,
2013-01-20 00:47:00,45.9,31.1,29.93,WSW,242,4.0,7.0,56,0.00,,---,0.00,VWS V14.01,2013-01-20 05:47:00,
2013-01-20 00:48:00,45.9,31.1,29.93,SW,234,2.0,6.0,56,0.00,,---,0.00,VWS V14.01,2013-01-20 05:48:00,
2013-01-20 00:49:00,45.8,31.0,29.94,WSW,242,1.0,5.0,56,0.00,,---,0.00,VWS V14.01,2013-01-20 05:49:00,
2013-01-20 00:50:00,45.8,31.0,29.93,SW,221,1.0,3.0,56,0.00,,---,0.00,VWS V14.01,2013-01-20 05:50:00,
2013-01-20 00:51:00,45.8,31.0,29.93,SSW,196,5.0,8.0,56,0.00,,---,0.00,VWS V14.01,2013-01-20 05:51:00,
2013-01-20 00:52:00,45.8,31.0,29.93,South,179,7.0,8.0,56,0.00,,---,0.00,VWS V14.01,2013-01-20 05:52:00,
2013-01-20 00:53:00,45.8,31.0,29.93,SW,230,9.0,9.0,56,0.00,,---,0.00,VWS V14.01,2013-01-20 05:53:00,
2013-01-20 00:54:00,45.8,31.0,29.93,SW,218,3.0,9.0,56,0.00,,---,0.00,VWS V14.01,2013-01-20 05:54:00,
2013-01-20 00:55:00,45.8,31.0,29.93,South,178,2.0,6.0,56,0.00,,---,0.00,VWS V14.01,2013-01-20 05:55:00,
2013-01-20 00:56:00,45.9,31.1,29.93,SW,223,5.0,7.0,56,0.00,,---,0.00,VWS V14.01,2013-01-20 05:56:00,
2013-01-20 00:57:00,45.9,31.1,29.93,SW,223,5.0,7.0,56,0.00,,---,0.00,VWS V14.01,2013-01-20 05:57:00,
2013-01-20 00:58:00,45.9,31.1,29.93,South,188,5.0,9.0,56,0.00,,---,0.00,VWS V14.01,2013-01-20 05:58:00,
2013-01-20 00:59:00,46.0,31.2,29.93,SSW,198,1.0,5.0,56,0.00,,---,0.00,VWS V14.01,2013-01-20 05:59:00,
2013-01-20 01:00:00,46.0,31.2,29.93,WSW,248,1.0,4.0,56,0.00,,---,0.00,VWS V14.01,2013-01-20 06:00:00,
2013-01-20 01:01:00,46.1,31.3,29.93,SSE,161,1.0,6.0,56,0.00,,---,0.00,VWS V14.01,2013-01-20 06:01:00,
2013-01-20 01:02:00,46.1,31.3,29.93,SSE,161,1.0,6.0,56,0.00,,---,0.00,VWS V14.01,2013-01-20 06:02:00,
2013-01-20 01:03:00,46.0,31.2,29.93,SSE,163,1.0,2.0,56,0.00,,---,0.00,VWS V14.01,2013-01-20 06:03:00,
2013-01-20 01:04:00,46.0,31.2,29.93,SSE,166,6.0,7.0,56,0.00,,---,0.00,VWS V14.01,2013-01-20 06:04:00,
2013-01-20 01:05:00,46.0,31.2,29.93,SW,229,7.0,7.0,56,0.00,,---,0.00,VWS V14.01,2013-01-20 06:05:00,
2013-01-20 01:06:00,46.0,31.2,29.92,WSW,241,2.0,7.0,56,0.00,,---,0.00,VWS V14.01,2013-01-20 06:06:00,
2013-01-20 01:07:00,46.0,31.2,29.92,WSW,241,2.0,7.0,56,0.00,,---,0.00,VWS V14.01,2013-01-20 06:07:00,
2013-01-20 01:08:00,46.0,31.2,29.93,SSW,192,6.0,6.0,56,0.00,,---,0.00,VWS V14.01,2013-01-20 06:08:00,
2013-01-20 01:09:00,46.0,31.2,29.92,SW,219,4.0,6.0,56,0.00,,---,0.00,VWS V14.01,2013-01-20 06:09:00,
2013-01-20 01:10:00,46.0,31.2,29.93,SW,224,2.0,4.0,56,0.00,,---,0.00,VWS V14.01,2013-01-20 06:10:00,
2013-01-20 01:11:00,46.0,31.2,29.92,SSE,150,2.0,5.0,56,0.00,,---,0.00,VWS V14.01,2013-01-20 06:11:00,
2013-01-20 01:12:00,46.0,31.2,29.92,SSE,150,2.0,5.0,56,0.00,,---,0.00,VWS V14.01,2013-01-20 06:12:00,
2013-01-20 01:13:00,46.0,31.2,29.93,WSW,240,4.0,6.0,56,0.00,,---,0.00,VWS V14.01,2013-01-20 06:13:00,
2013-01-20 01:14:00,46.0,31.2,29.92,SSW,208,0.0,6.0,56,0.00,,---,0.00,VWS V14.01,2013-01-20 06:14:00,
2013-01-20 01:15:00,46.0,31.2,29.92,SSW,209,2.0,2.0,56,0.00,,---,0.00,VWS V14.01,2013-01-20 06:15:00,
2013-01-20 01:16:00,46.0,31.2,29.92,SW,215,7.0,10.0,56,0.00,,---,0.00,VWS V14.01,2013-01-20 06:16:00,
2013-01-20 01:17:00,46.0,31.2,29.92,SSW,212,7.0,7.0,56,0.00,,---,0.00,VWS V14.01,2013-01-20 06:17:00,
2013-01-20 01:18:00,46.0,31.2,29.92,SW,225,1.0,5.0,56,0.00,,---,0.00,VWS V14.01,2013-01-20 06:18:00,
2013-01-20 01:19:00,46.1,31.3,29.92,WSW,240,2.0,4.0,56,0.00,,---,0.00,VWS V14.01,2013-01-20 06:19:00,
2013-01-20 01:20:00,46.1,31.3,29.92,SW,233,0.0,4.0,56,0.00,,---,0.00,VWS V14.01,2013-01-20 06:20:00,
2013-01-20 01:21:00,46.1,31.3,29.92,SSW,206,5.0,5.0,56,0.00,,---,0.00,VWS V14.01,2013-01-20 06:21:00,
2013-01-20 01:22:00,46.1,31.3,29.92,SSW,206,5.0,5.0,56,0.00,,---,0.00,VWS V14.01,2013-01-20 06:22:00,
2013-01-20 01:23:00,46.1,31.3,29.92,South,170,2.0,4.0,56,0.00,,---,0.00,VWS V14.01,2013-01-20 06:23:00,
2013-01-20 01:24:00,46.1,31.3,29.92,South,169,1.0,2.0,56,0.00,,---,0.00,VWS V14.01,2013-01-20 06:24:00,
2013-01-20 01:25:00,46.1,31.3,29.92,SW,232,3.0,5.0,56,0.00,,---,0.00,VWS V14.01,2013-01-20 06:25:00,
2013-01-20 01:26:00,46.1,31.3,29.92,SW,218,0.0,3.0,56,0.00,,---,0.00,VWS V14.01,2013-01-20 06:26:00,
2013-01-20 01:27:00,46.0,31.2,29.92,SW,218,0.0,0.0,56,0.00,,---,0.00,VWS V14.01,2013-01-20 06:27:00,
2013-01-20 01:28:00,46.0,31.2,29.92,SSW,208,2.0,4.0,56,0.00,,---,0.00,VWS V14.01,2013-01-20 06:28:00,
2013-01-20 01:29:00,46.1,31.3,29.92,WSW,239,5.0,8.0,56,0.00,,---,0.00,VWS V14.01,2013-01-20 06:29:00,
2013-01-20 01:30:00,46.0,31.2,29.92,SW,234,1.0,6.0,56,0.00,,---,0.00,VWS V14.01,2013-01-20 06:30:00,
2013-01-20 01:31:00,46.1,31.3,29.92,SSW,212,4.0,7.0,56,0.00,,---,0.00,VWS V14.01,2013-01-20 06:31:00,
2013-01-20 01:32:00,46.0,31.2,29.92,SW,219,6.0,7.0,56,0.00,,---,0.00,VWS V14.01,2013-01-20 06:32:00,
2013-01-20 01:33:00,46.1,31.3,29.92,WSW,240,4.0,11.0,56,0.00,,---,0.00,VWS V14.01,2013-01-20 06:33:00,
2013-01-20 01:34:00,46.1,31.3,29.92,SW,228,3.0,5.0,56,0.00,,---,0.00,VWS V14.01,2013-01-20 06:34:00,
2013-01-20 01:35:00,46.1,31.3,29.92,SSW,192,3.0,6.0,56,0.00,,---,0.00,VWS V14.01,2013-01-20 06:35:00,
2013-01-20 01:36:00,46.1,31.3,29.92,SW,216,3.0,5.0,56,0.00,,---,0.00,VWS V14.01,2013-01-20 06:36:00,
2013-01-20 01:37:00,46.1,31.3,29.92,SW,216,3.0,5.0,56,0.00,,---,0.00,VWS V14.01,2013-01-20 06:37:00,
2013-01-20 01:38:00,46.2,30.9,29.92,WSW,241,7.0,10.0,55,0.00,,---,0.00,VWS V14.01,2013-01-20 06:38:00,
2013-01-20 01:39:00,46.2,30.9,29.92,WSW,237,5.0,9.0,55,0.00,,---,0.00,VWS V14.01,2013-01-20 06:39:00,
2013-01-20 01:40:00,46.2,30.9,29.91,SW,232,2.0,5.0,55,0.00,,---,0.00,VWS V14.01,2013-01-20 06:40:00,
2013-01-20 01:41:00,46.2,31.4,29.92,SW,236,2.0,2.0,56,0.00,,---,0.00,VWS V14.01,2013-01-20 06:41:00,
2013-01-20 01:42:00,46.3,31.5,29.92,SW,236,2.0,2.0,56,0.00,,---,0.00,VWS V14.01,2013-01-20 06:42:00,
2013-01-20 01:43:00,46.3,31.0,29.91,SW,236,3.0,4.0,55,0.00,,---,0.00,VWS V14.01,2013-01-20 06:43:00,
2013-01-20 01:44:00,46.3,31.0,29.91,SW,232,0.0,3.0,55,0.00,,---,0.00,VWS V14.01,2013-01-20 06:44:00,
2013-01-20 01:45:00,46.2,30.9,29.91,SW,232,6.0,6.0,55,0.00,,---,0.00,VWS V14.01,2013-01-20 06:45:00,
2013-01-20 01:46:00,46.2,30.9,29.91,WSW,242,1.0,6.0,55,0.00,,---,0.00,VWS V14.01,2013-01-20 06:46:00,
2013-01-20 01:47:00,46.2,30.9,29.91,SSW,194,5.0,5.0,55,0.00,,---,0.00,VWS V14.01,2013-01-20 06:47:00,
2013-01-20 01:48:00,46.2,30.9,29.92,SW,217,2.0,6.0,55,0.00,,---,0.00,VWS V14.01,2013-01-20 06:48:00,
2013-01-20 01:49:00,46.2,30.9,29.92,South,186,5.0,5.0,55,0.00,,---,0.00,VWS V14.01,2013-01-20 06:49:00,
2013-01-20 01:50:00,46.2,31.4,29.91,West,274,6.0,7.0,56,0.00,,---,0.00,VWS V14.01,2013-01-20 06:50:00,
2013-01-20 01:51:00,46.2,30.9,29.91,West,275,5.0,7.0,55,0.00,,---,0.00,VWS V14.01,2013-01-20 06:51:00,
2013-01-20 01:52:00,46.2,30.9,29.91,SW,219,4.0,5.0,55,0.00,,---,0.00,VWS V14.01,2013-01-20 06:52:00,
2013-01-20 01:53:00,46.2,31.4,29.91,West,271,1.0,6.0,56,0.00,,---,0.00,VWS V14.01,2013-01-20 06:53:00,
2013-01-20 01:54:00,46.2,30.9,29.91,WSW,238,1.0,4.0,55,0.00,,---,0.00,VWS V14.01,2013-01-20 06:54:00,
2013-01-20 01:55:00,46.2,30.9,29.91,West,267,2.0,5.0,55,0.00,,---,0.00,VWS V14.01,2013-01-20 06:55:00,
2013-01-20 01:56:00,46.2,30.9,29.91,West,266,0.0,2.0,55,0.00,,---,0.00,VWS V14.01,2013-01-20 06:56:00,
2013-01-20 01:57:00,46.2,30.9,29.91,West,266,1.0,1.0,55,0.00,,---,0.00,VWS V14.01,2013-01-20 06:57:00,
2013-01-20 01:58:00,46.2,30.9,29.91,SW,224,0.0,6.0,55,0.00,,---,0.00,VWS V14.01,2013-01-20 06:58:00,
2013-01-20 01:59:00,46.2,30.9,29.91,SW,228,3.0,5.0,55,0.00,,---,0.00,VWS V14.01,2013-01-20 06:59:00,
2013-01-20 02:00:00,46.1,30.9,29.91,SW,230,1.0,3.0,55,0.00,,---,0.00,VWS V14.01,2013-01-20 07:00:00,
2013-01-20 02:01:00,46.2,31.4,29.91,SW,230,0.0,2.0,56,0.00,,---,0.00,VWS V14.01,2013-01-20 07:01:00,
2013-01-20 02:02:00,46.1,31.3,29.91,SW,230,1.0,1.0,56,0.00,,---,0.00,VWS V14.01,2013-01-20 07:02:00,
2013-01-20 02:03:00,46.1,31.3,29.91,West,271,3.0,6.0,56,0.00,,---,0.00,VWS V14.01,2013-01-20 07:03:00,
2013-01-20 02:04:00,46.1,31.3,29.91,WSW,248,0.0,4.0,56,0.00,,---,0.00,VWS V14.01,2013-01-20 07:04:00,
2013-01-20 02:05:00,46.1,31.3,29.91,SW,214,1.0,5.0,56,0.00,,---,0.00,VWS V14.01,2013-01-20 07:05:00,
2013-01-20 02:06:00,46.1,31.3,29.91,SSW,213,2.0,5.0,56,0.00,,---,0.00,VWS V14.01,2013-01-20 07:06:00,
2013-01-20 02:07:00,46.1,31.3,29.91,SSW,213,1.0,2.0,56,0.00,,---,0.00,VWS V14.01,2013-01-20 07:07:00,
2013-01-20 02:08:00,46.1,31.3,29.91,SW,224,1.0,1.0,56,0.00,,---,0.00,VWS V14.01,2013-01-20 07:08:00,
2013-01-20 02:09:00,46.0,31.2,29.91,SW,224,2.0,2.0,56,0.00,,---,0.00,VWS V14.01,2013-01-20 07:09:00,
2013-01-20 02:10:00,46.0,31.2,29.91,SW,223,5.0,5.0,56,0.00,,---,0.00,VWS V14.01,2013-01-20 07:10:00,
2013-01-20 02:11:00,46.0,30.8,29.91,SW,217,3.0,5.0,55,0.00,,---,0.00,VWS V14.01,2013-01-20 07:11:00,
2013-01-20 02:12:00,46.0,30.8,29.91,SW,217,4.0,4.0,55,0.00,,---,0.00,VWS V14.01,2013-01-20 07:12:00,
2013-01-20 02:13:00,46.0,31.2,29.91,SW,226,3.0,6.0,56,0.00,,---,0.00,VWS V14.01,2013-01-20 07:13:00,
2013-01-20 02:14:00,46.0,31.2,29.91,SSW,211,4.0,7.0,56,0.00,,---,0.00,VWS V14.01,2013-01-20 07:14:00,
2013-01-20 02:15:00,46.0,31.2,29.91,SSW,211,4.0,5.0,56,0.00,,---,0.00,VWS V14.01,2013-01-20 07:15:00,
2013-01-20 02:16:00,46.0,30.8,29.91,SSW,209,0.0,11.0,55,0.00,,---,0.00,VWS V14.01,2013-01-20 07:16:00,
2013-01-20 02:17:00,46.0,30.8,29.91,SSW,209,0.0,1.0,55,0.00,,---,0.00,VWS V14.01,2013-01-20 07:17:00,
2013-01-20 02:18:00,46.0,31.2,29.91,SW,223,0.0,4.0,56,0.00,,---,0.00,VWS V14.01,2013-01-20 07:18:00,
2013-01-20 02:19:00,46.0,31.2,29.91,SW,223,1.0,2.0,56,0.00,,---,0.00,VWS V14.01,2013-01-20 07:19:00,
2013-01-20 02:20:00,46.0,31.2,29.91,SW,219,4.0,4.0,56,0.00,,---,0.00,VWS V14.01,2013-01-20 07:20:00,
2013-01-20 02:21:00,46.0,31.2,29.91,South,169,0.0,4.0,56,0.00,,---,0.00,VWS V14.01,2013-01-20 07:21:00,
2013-01-20 02:22:00,46.0,31.2,29.91,South,169,0.0,0.0,56,0.00,,---,0.00,VWS V14.01,2013-01-20 07:22:00,
2013-01-20 02:23:00,46.0,31.2,29.91,South,169,0.0,2.0,56,0.00,,---,0.00,VWS V14.01,2013-01-20 07:23:00,
2013-01-20 02:24:00,46.0,31.2,29.91,WSW,240,3.0,4.0,56,0.00,,---,0.00,VWS V14.01,2013-01-20 07:24:00,
2013-01-20 02:25:00,45.9,31.1,29.91,WSW,240,1.0,4.0,56,0.00,,---,0.00,VWS V14.01,2013-01-20 07:25:00,
2013-01-20 02:26:00,45.9,31.1,29.91,SSE,149,0.0,4.0,56,0.00,,---,0.00,VWS V14.01,2013-01-20 07:26:00,
2013-01-20 02:27:00,45.9,31.1,29.91,SSE,149,0.0,0.0,56,0.00,,---,0.00,VWS V14.01,2013-01-20 07:27:00,
2013-01-20 02:28:00,45.9,31.1,29.91,SSE,167,5.0,8.0,56,0.00,,---,0.00,VWS V14.01,2013-01-20 07:28:00,
2013-01-20 02:29:00,45.9,31.1,29.91,SSE,167,0.0,5.0,56,0.00,,---,0.00,VWS V14.01,2013-01-20 07:29:00,
2013-01-20 02:30:00,45.9,31.1,29.91,SSE,167,1.0,1.0,56,0.00,,---,0.00,VWS V14.01,2013-01-20 07:30:00,
2013-01-20 02:31:00,45.9,31.1,29.91,SSW,207,4.0,6.0,56,0.00,,---,0.00,VWS V14.01,2013-01-20 07:31:00,
2013-01-20 02:32:00,45.8,31.0,29.91,SSW,207,1.0,4.0,56,0.00,,---,0.00,VWS V14.01,2013-01-20 07:32:00,
2013-01-20 02:33:00,45.9,31.1,29.91,ESE,111,0.0,2.0,56,0.00,,---,0.00,VWS V14.01,2013-01-20 07:33:00,
2013-01-20 02:34:00,45.9,31.1,29.91,SW,226,2.0,4.0,56,0.00,,---,0.00,VWS V14.01,2013-01-20 07:34:00,
2013-01-20 02:35:00,45.8,31.0,29.91,WSW,238,1.0,6.0,56,0.00,,---,0.00,VWS V14.01,2013-01-20 07:35:00,
2013-01-20 02:36:00,45.8,31.0,29.91,West,265,0.0,5.0,56,0.00,,---,0.00,VWS V14.01,2013-01-20 07:36:00,
2013-01-20 02:37:00,45.8,31.0,29.91,West,265,0.0,1.0,56,0.00,,---,0.00,VWS V14.01,2013-01-20 07:37:00,
2013-01-20 02:38:00,45.8,31.0,29.91,West,265,1.0,2.0,56,0.00,,---,0.00,VWS V14.01,2013-01-20 07:38:00,
2013-01-20 02:39:00,45.8,31.0,29.91,West,265,0.0,2.0,56,0.00,,---,0.00,VWS V14.01,2013-01-20 07:39:00,
2013-01-20 02:40:00,45.8,31.0,29.91,SW,231,2.0,2.0,56,0.00,,---,0.00,VWS V14.01,2013-01-20 07:40:00,
2013-01-20 02:41:00,45.8,31.0,29.91,SW,224,2.0,5.0,56,0.00,,---,0.00,VWS V14.01,2013-01-20 07:41:00,
2013-01-20 02:42:00,45.8,31.0,29.91,SW,224,0.0,2.0,56,0.00,,---,0.00,VWS V14.01,2013-01-20 07:42:00,
2013-01-20 02:43:00,45.8,31.0,29.91,SW,224,1.0,3.0,56,0.00,,---,0.00,VWS V14.01,2013-01-20 07:43:00,
2013-01-20 02:44:00,45.8,31.0,29.91,SSW,192,3.0,7.0,56,0.00,,---,0.00,VWS V14.01,2013-01-20 07:44:00,
2013-01-20 02:45:00,45.8,31.0,29.91,SSW,196,0.0,5.0,56,0.00,,---,0.00,VWS V14.01,2013-01-20 07:45:00,
2013-01-20 02:46:00,45.8,31.0,29.91,SSW,196,1.0,2.0,56,0.00,,---,0.00,VWS V14.01,2013-01-20 07:46:00,
2013-01-20 02:47:00,45.8,31.0,29.91,SSW,196,1.0,1.0,56,0.00,,---,0.00,VWS V14.01,2013-01-20 07:47:00,
2013-01-20 02:48:00,45.8,31.0,29.91,SSW,196,2.0,4.0,56,0.00,,---,0.00,VWS V14.01,2013-01-20 07:48:00,
2013-01-20 02:49:00,45.8,31.0,29.91,SSW,196,1.0,2.0,56,0.00,,---,0.00,VWS V14.01,2013-01-20 07:49:00,
2013-01-20 02:50:00,45.8,31.0,29.91,South,187,0.0,3.0,56,0.00,,---,0.00,VWS V14.01,2013-01-20 07:50:00,
2013-01-20 02:51:00,45.7,30.9,29.91,South,188,1.0,1.0,56,0.00,,---,0.00,VWS V14.01,2013-01-20 07:51:00,
2013-01-20 02:52:00,45.7,30.9,29.91,South,187,1.0,2.0,56,0.00,,---,0.00,VWS V14.01,2013-01-20 07:52:00,
2013-01-20 02:53:00,45.7,30.9,29.91,SW,232,2.0,4.0,56,0.00,,---,0.00,VWS V14.01,2013-01-20 07:53:00,
2013-01-20 02:54:00,45.7,30.9,29.91,SW,224,1.0,4.0,56,0.00,,---,0.00,VWS V14.01,2013-01-20 07:54:00,
2013-01-20 02:55:00,45.6,30.8,29.91,SW,224,1.0,4.0,56,0.00,,---,0.00,VWS V14.01,2013-01-20 07:55:00,
2013-01-20 02:56:00,45.6,30.8,29.91,WSW,238,1.0,4.0,56,0.00,,---,0.00,VWS V14.01,2013-01-20 07:56:00,
2013-01-20 02:57:00,45.6,31.3,29.91,West,261,1.0,2.0,57,0.00,,---,0.00,VWS V14.01,2013-01-20 07:57:00,
2013-01-20 02:58:00,45.6,30.8,29.91,SW,235,2.0,2.0,56,0.00,,---,0.00,VWS V14.01,2013-01-20 07:58:00,
2013-01-20 02:59:00,45.6,30.8,29.90,SSW,194,1.0,5.0,56,0.00,,---,0.00,VWS V14.01,2013-01-20 07:59:00,
2013-01-20 03:01:00,45.5,31.2,29.90,South,188,0.0,2.0,57,0.00,,---,0.00,VWS V14.01,2013-01-20 08:01:00,
2013-01-20 03:02:00,45.5,30.7,29.90,SSW,196,1.0,4.0,56,0.00,,---,0.00,VWS V14.01,2013-01-20 08:02:00,
2013-01-20 03:03:00,45.6,31.3,29.90,SSW,196,4.0,4.0,57,0.00,,---,0.00,VWS V14.01,2013-01-20 08:03:00,
2013-01-20 03:04:00,45.5,31.2,29.90,SSW,196,0.0,0.0,57,0.00,,---,0.00,VWS V14.01,2013-01-20 08:04:00,
2013-01-20 03:05:00,45.5,31.2,29.90,SSW,196,0.0,1.0,57,0.00,,---,0.00,VWS V14.01,2013-01-20 08:05:00,
2013-01-20 03:06:00,45.4,31.1,29.90,SSW,196,0.0,0.0,57,0.00,,---,0.00,VWS V14.01,2013-01-20 08:06:00,
2013-01-20 03:07:00,45.4,31.1,29.90,SSW,196,0.0,0.0,57,0.00,,---,0.00,VWS V14.01,2013-01-20 08:07:00,
2013-01-20 03:08:00,45.4,31.1,29.90,SSW,196,0.0,0.0,57,0.00,,---,0.00,VWS V14.01,2013-01-20 08:08:00,
2013-01-20 03:09:00,45.3,31.0,29.90,SSW,196,4.0,4.0,57,0.00,,---,0.00,VWS V14.01,2013-01-20 08:09:00,
2013-01-20 03:10:00,45.3,31.0,29.90,SW,217,2.0,5.0,57,0.00,,---,0.00,VWS V14.01,2013-01-20 08:10:00,
2013-01-20 03:11:00,45.2,30.9,29.90,SW,217,0.0,2.0,57,0.00,,---,0.00,VWS V14.01,2013-01-20 08:11:00,
2013-01-20 03:12:00,45.2,30.9,29.90,SW,217,1.0,2.0,57,0.00,,---,0.00,VWS V14.01,2013-01-20 08:12:00,
2013-01-20 03:13:00,45.2,30.9,29.90,SW,217,0.0,0.0,57,0.00,,---,0.00,VWS V14.01,2013-01-20 08:13:00,
2013-01-20 03:14:00,45.2,30.9,29.90,SSW,213,2.0,2.0,57,0.00,,---,0.00,VWS V14.01,2013-01-20 08:14:00,
2013-01-20 03:15:00,45.1,30.8,29.90,SW,225,2.0,2.0,57,0.00,,---,0.00,VWS V14.01,2013-01-20 08:15:00,
2013-01-20 03:16:00,45.1,30.8,29.90,SW,225,0.0,2.0,57,0.00,,---,0.00,VWS V14.01,2013-01-20 08:16:00,
2013-01-20 03:17:00,45.1,30.8,29.89,SW,225,0.0,0.0,57,0.00,,---,0.00,VWS V14.01,2013-01-20 08:17:00,
2013-01-20 03:18:00,45.1,30.8,29.90,SW,225,0.0,0.0,57,0.00,,---,0.00,VWS V14.01,2013-01-20 08:18:00,
2013-01-20 03:19:00,45.1,30.8,29.90,SW,225,0.0,0.0,57,0.00,,---,0.00,VWS V14.01,2013-01-20 08:19:00,
2013-01-20 03:20:00,45.0,30.7,29.90,SW,224,1.0,1.0,57,0.00,,---,0.00,VWS V14.01,2013-01-20 08:20:00,
2013-01-20 03:21:00,45.0,30.7,29.89,SW,224,0.0,2.0,57,0.00,,---,0.00,VWS V14.01,2013-01-20 08:21:00,
2013-01-20 03:22:00,45.0,30.7,29.89,SW,224,0.0,0.0,57,0.00,,---,0.00,VWS V14.01,2013-01-20 08:22:00,
2013-01-20 03:23:00,45.0,30.7,29.89,SW,224,0.0,0.0,57,0.00,,---,0.00,VWS V14.01,2013-01-20 08:23:00,
2013-01-20 03:24:00,44.9,30.6,29.89,SSW,194,3.0,4.0,57,0.00,,---,0.00,VWS V14.01,2013-01-20 08:24:00,
2013-01-20 03:25:00,44.9,30.6,29.89,SSW,194,0.0,3.0,57,0.00,,---,0.00,VWS V14.01,2013-01-20 08:25:00,
2013-01-20 03:26:00,44.9,30.6,29.89,SSW,194,0.0,1.0,57,0.00,,---,0.00,VWS V14.01,2013-01-20 08:26:00,
2013-01-20 03:27:00,44.9,31.0,29.89,SSW,194,0.0,0.0,58,0.00,,---,0.00,VWS V14.01,2013-01-20 08:27:00,
2013-01-20 03:28:00,44.9,30.6,29.89,SSW,194,0.0,0.0,57,0.00,,---,0.00,VWS V14.01,2013-01-20 08:28:00,
2013-01-20 03:29:00,44.9,30.6,29.89,SSW,194,0.0,1.0,57,0.00,,---,0.00,VWS V14.01,2013-01-20 08:29:00,
2013-01-20 03:30:00,44.9,31.0,29.89,SSW,194,0.0,0.0,58,0.00,,---,0.00,VWS V14.01,2013-01-20 08:30:00,
2013-01-20 03:31:00,44.8,30.9,29.89,SSW,194,0.0,1.0,58,0.00,,---,0.00,VWS V14.01,2013-01-20 08:31:00,
2013-01-20 03:32:00,44.9,31.0,29.89,SSW,194,0.0,0.0,58,0.00,,---,0.00,VWS V14.01,2013-01-20 08:32:00,
2013-01-20 03:33:00,44.9,31.0,29.89,SSW,194,0.0,0.0,58,0.00,,---,0.00,VWS V14.01,2013-01-20 08:33:00,
2013-01-20 03:34:00,44.8,30.9,29.89,SSW,194,0.0,1.0,58,0.00,,---,0.00,VWS V14.01,2013-01-20 08:34:00,
2013-01-20 03:35:00,44.7,30.9,29.89,SSW,194,0.0,0.0,58,0.00,,---,0.00,VWS V14.01,2013-01-20 08:35:00,
2013-01-20 03:36:00,44.7,32.1,29.89,SSW,194,0.0,0.0,61,0.00,,---,0.00,VWS V14.01,2013-01-20 08:36:00,
2013-01-20 03:37:00,44.7,30.9,29.89,SSW,194,0.0,0.0,58,0.00,,---,0.00,VWS V14.01,2013-01-20 08:37:00,
2013-01-20 03:38:00,44.7,30.9,29.89,SSW,194,0.0,0.0,58,0.00,,---,0.00,VWS V14.01,2013-01-20 08:38:00,
2013-01-20 03:39:00,44.5,30.7,29.89,SSW,194,0.0,0.0,58,0.00,,---,0.00,VWS V14.01,2013-01-20 08:39:00,
2013-01-20 03:40:00,44.5,30.7,29.89,SSW,194,0.0,0.0,58,0.00,,---,0.00,VWS V14.01,2013-01-20 08:40:00,
2013-01-20 03:41:00,44.5,30.7,29.89,SSW,194,1.0,1.0,58,0.00,,---,0.00,VWS V14.01,2013-01-20 08:41:00,
2013-01-20 03:42:00,44.4,31.0,29.89,SSW,194,0.0,1.0,59,0.00,,---,0.00,VWS V14.01,2013-01-20 08:42:00,
2013-01-20 03:43:00,44.4,31.0,29.89,SSW,194,0.0,1.0,59,0.00,,---,0.00,VWS V14.01,2013-01-20 08:43:00,
2013-01-20 03:44:00,44.3,30.9,29.89,SSW,194,0.0,0.0,59,0.00,,---,0.00,VWS V14.01,2013-01-20 08:44:00,
2013-01-20 03:45:00,44.2,30.8,29.89,SSW,194,0.0,0.0,59,0.00,,---,0.00,VWS V14.01,2013-01-20 08:45:00,
2013-01-20 03:46:00,44.1,30.7,29.89,SSW,194,0.0,0.0,59,0.00,,---,0.00,VWS V14.01,2013-01-20 08:46:00,
2013-01-20 03:47:00,44.1,31.1,29.89,SSW,194,0.0,1.0,60,0.00,,---,0.00,VWS V14.01,2013-01-20 08:47:00,
2013-01-20 03:48:00,44.1,30.7,29.89,SSW,194,1.0,1.0,59,0.00,,---,0.00,VWS V14.01,2013-01-20 08:48:00,
2013-01-20 03:49:00,43.9,30.9,29.89,SSW,194,0.0,0.0,60,0.00,,---,0.00,VWS V14.01,2013-01-20 08:49:00,
2013-01-20 03:50:00,43.9,30.9,29.89,SSW,194,0.0,0.0,60,0.00,,---,0.00,VWS V14.01,2013-01-20 08:50:00,
2013-01-20 03:51:00,43.8,30.8,29.89,SSW,194,0.0,4.0,60,0.00,,---,0.00,VWS V14.01,2013-01-20 08:51:00,
2013-01-20 03:52:00,43.8,31.2,29.89,SSW,194,0.0,0.0,61,0.00,,---,0.00,VWS V14.01,2013-01-20 08:52:00,
2013-01-20 03:53:00,43.8,30.8,29.89,SSW,194,0.0,0.0,60,0.00,,---,0.00,VWS V14.01,2013-01-20 08:53:00,
2013-01-20 03:54:00,43.7,30.7,29.89,SSW,194,0.0,0.0,60,0.00,,---,0.00,VWS V14.01,2013-01-20 08:54:00,
2013-01-20 03:55:00,43.6,31.0,29.89,SSW,194,0.0,0.0,61,0.00,,---,0.00,VWS V14.01,2013-01-20 08:55:00,
2013-01-20 03:56:00,43.6,31.0,29.89,SSW,194,0.0,0.0,61,0.00,,---,0.00,VWS V14.01,2013-01-20 08:56:00,
2013-01-20 03:57:00,43.5,31.0,29.89,SSW,194,0.0,0.0,61,0.00,,---,0.00,VWS V14.01,2013-01-20 08:57:00,
2013-01-20 03:58:00,43.5,31.0,29.89,SSW,194,0.0,0.0,61,0.00,,---,0.00,VWS V14.01,2013-01-20 08:58:00,
2013-01-20 03:59:00,43.4,30.9,29.89,SSW,194,0.0,1.0,61,0.00,,---,0.00,VWS V14.01,2013-01-20 08:59:00,
2013-01-20 04:00:00,43.3,31.2,29.89,SW,222,1.0,5.0,62,0.00,,---,0.00,VWS V14.01,2013-01-20 09:00:00,
2013-01-20 04:01:00,43.3,30.8,29.89,SW,222,2.0,2.0,61,0.00,,---,0.00,VWS V14.01,2013-01-20 09:01:00,
2013-01-20 04:02:00,43.3,30.8,29.89,SW,222,0.0,2.0,61,0.00,,---,0.00,VWS V14.01,2013-01-20 09:02:00,
2013-01-20 04:03:00,43.3,30.8,29.89,SW,222,0.0,2.0,61,0.00,,---,0.00,VWS V14.01,2013-01-20 09:03:00,
2013-01-20 04:04:00,43.3,30.8,29.89,SW,222,0.0,0.0,61,0.00,,---,0.00,VWS V14.01,2013-01-20 09:04:00,
2013-01-20 04:05:00,43.2,31.1,29.88,SW,222,0.0,0.0,62,0.00,,---,0.00,VWS V14.01,2013-01-20 09:05:00,
2013-01-20 04:06:00,43.2,31.1,29.88,SW,222,0.0,0.0,62,0.00,,---,0.00,VWS V14.01,2013-01-20 09:06:00,
2013-01-20 04:07:00,43.2,30.7,29.88,SW,222,0.0,0.0,61,0.00,,---,0.00,VWS V14.01,2013-01-20 09:07:00,
2013-01-20 04:08:00,43.2,31.1,29.88,SW,222,0.0,0.0,62,0.00,,---,0.00,VWS V14.01,2013-01-20 09:08:00,
2013-01-20 04:09:00,43.1,30.6,29.88,SW,222,0.0,1.0,61,0.00,,---,0.00,VWS V14.01,2013-01-20 09:09:00,
2013-01-20 04:10:00,43.0,30.9,29.88,SW,222,0.0,1.0,62,0.00,,---,0.00,VWS V14.01,2013-01-20 09:10:00,
2013-01-20 04:11:00,43.0,30.9,29.88,SW,222,0.0,0.0,62,0.00,,---,0.00,VWS V14.01,2013-01-20 09:11:00,
2013-01-20 04:12:00,42.9,30.8,29.88,SW,222,0.0,2.0,62,0.00,,---,0.00,VWS V14.01,2013-01-20 09:12:00,
2013-01-20 04:13:00,43.0,30.9,29.88,SW,222,1.0,1.0,62,0.00,,---,0.00,VWS V14.01,2013-01-20 09:13:00,
2013-01-20 04:14:00,42.9,30.8,29.88,SW,222,1.0,2.0,62,0.00,,---,0.00,VWS V14.01,2013-01-20 09:14:00,
2013-01-20 04:15:00,42.9,30.4,29.88,SW,222,0.0,2.0,61,0.00,,---,0.00,VWS V14.01,2013-01-20 09:15:00,
2013-01-20 04:16:00,42.9,30.8,29.88,SW,222,0.0,0.0,62,0.00,,---,0.00,VWS V14.01,2013-01-20 09:16:00,
2013-01-20 04:17:00,42.8,30.7,29.88,SW,222,0.0,0.0,62,0.00,,---,0.00,VWS V14.01,2013-01-20 09:17:00,
2013-01-20 04:18:00,42.9,30.8,29.88,SW,222,0.0,0.0,62,0.00,,---,0.00,VWS V14.01,2013-01-20 09:18:00,
2013-01-20 04:19:00,42.8,30.7,29.88,SW,222,0.0,0.0,62,0.00,,---,0.00,VWS V14.01,2013-01-20 09:19:00,
2013-01-20 04:20:00,42.8,30.7,29.88,SW,222,0.0,0.0,62,0.00,,---,0.00,VWS V14.01,2013-01-20 09:20:00,
2013-01-20 04:21:00,42.8,30.7,29.88,SW,222,1.0,1.0,62,0.00,,---,0.00,VWS V14.01,2013-01-20 09:21:00,
2013-01-20 04:22:00,42.8,30.7,29.88,SW,222,0.0,1.0,62,0.00,,---,0.00,VWS V14.01,2013-01-20 09:22:00,
2013-01-20 04:23:00,42.8,30.7,29.88,SW,222,0.0,1.0,62,0.00,,---,0.00,VWS V14.01,2013-01-20 09:23:00,
2013-01-20 04:24:00,42.7,31.0,29.88,SW,223,0.0,1.0,63,0.00,,---,0.00,VWS V14.01,2013-01-20 09:24:00,
2013-01-20 04:25:00,42.7,31.0,29.88,SW,223,0.0,0.0,63,0.00,,---,0.00,VWS V14.01,2013-01-20 09:25:00,
2013-01-20 04:26:00,42.7,30.6,29.88,SW,223,0.0,0.0,62,0.00,,---,0.00,VWS V14.01,2013-01-20 09:26:00,
2013-01-20 04:27:00,42.7,30.6,29.88,SW,224,0.0,1.0,62,0.00,,---,0.00,VWS V14.01,2013-01-20 09:27:00,
2013-01-20 04:28:00,42.7,30.6,29.88,SW,224,1.0,1.0,62,0.00,,---,0.00,VWS V14.01,2013-01-20 09:28:00,
2013-01-20 04:29:00,42.6,30.5,29.88,SW,224,0.0,0.0,62,0.00,,---,0.00,VWS V14.01,2013-01-20 09:29:00,
2013-01-20 04:30:00,42.6,30.5,29.88,SW,223,0.0,0.0,62,0.00,,---,0.00,VWS V14.01,2013-01-20 09:30:00,
2013-01-20 04:31:00,42.6,30.5,29.88,SW,223,0.0,0.0,62,0.00,,---,0.00,VWS V14.01,2013-01-20 09:31:00,
2013-01-20 04:32:00,42.6,30.5,29.88,SW,224,0.0,0.0,62,0.00,,---,0.00,VWS V14.01,2013-01-20 09:32:00,
2013-01-20 04:33:00,42.6,30.5,29.88,SW,223,0.0,0.0,62,0.00,,---,0.00,VWS V14.01,2013-01-20 09:33:00,
2013-01-20 04:34:00,42.5,30.8,29.88,SW,224,0.0,0.0,63,0.00,,---,0.00,VWS V14.01,2013-01-20 09:34:00,
2013-01-20 04:35:00,42.5,30.8,29.88,SW,223,0.0,0.0,63,0.00,,---,0.00,VWS V14.01,2013-01-20 09:35:00,
2013-01-20 04:36:00,42.5,30.4,29.88,SW,224,0.0,1.0,62,0.00,,---,0.00,VWS V14.01,2013-01-20 09:36:00,
2013-01-20 04:37:00,42.5,30.4,29.88,SSW,195,1.0,4.0,62,0.00,,---,0.00,VWS V14.01,2013-01-20 09:37:00,
2013-01-20 04:38:00,42.5,30.4,29.88,SSW,204,4.0,4.0,62,0.00,,---,0.00,VWS V14.01,2013-01-20 09:38:00,
2013-01-20 04:39:00,42.5,30.8,29.88,SSW,195,0.0,0.0,63,0.00,,---,0.00,VWS V14.01,2013-01-20 09:39:00,
2013-01-20 04:40:00,42.5,30.4,29.87,ENE,74,5.0,5.0,62,0.00,,---,0.00,VWS V14.01,2013-01-20 09:40:00,
2013-01-20 04:41:00,42.6,30.5,29.87,SSW,201,1.0,5.0,62,0.00,,---,0.00,VWS V14.01,2013-01-20 09:41:00,
2013-01-20 04:42:00,42.6,30.5,29.87,SSW,201,1.0,1.0,62,0.00,,---,0.00,VWS V14.01,2013-01-20 09:42:00,
2013-01-20 04:43:00,42.6,30.5,29.87,SSW,201,0.0,1.0,62,0.00,,---,0.00,VWS V14.01,2013-01-20 09:43:00,
2013-01-20 04:44:00,42.7,30.6,29.87,SSW,201,1.0,2.0,62,0.00,,---,0.00,VWS V14.01,2013-01-20 09:44:00,
2013-01-20 04:45:00,42.7,30.6,29.87,SSW,201,0.0,1.0,62,0.00,,---,0.00,VWS V14.01,2013-01-20 09:45:00,
2013-01-20 04:46:00,42.7,30.6,29.87,SSW,207,4.0,5.0,62,0.00,,---,0.00,VWS V14.01,2013-01-20 09:46:00,
2013-01-20 04:47:00,42.8,30.7,29.87,SW,219,1.0,4.0,62,0.00,,---,0.00,VWS V14.01,2013-01-20 09:47:00,
2013-01-20 04:48:00,42.7,30.6,29.87,SW,219,2.0,4.0,62,0.00,,---,0.00,VWS V14.01,2013-01-20 09:48:00,
2013-01-20 04:49:00,42.8,30.7,29.87,SW,219,0.0,0.0,62,0.00,,---,0.00,VWS V14.01,2013-01-20 09:49:00,
2013-01-20 04:50:00,42.8,30.7,29.87,SW,219,0.0,1.0,62,0.00,,---,0.00,VWS V14.01,2013-01-20 09:50:00,
2013-01-20 04:51:00,42.8,30.7,29.87,SW,219,0.0,3.0,62,0.00,,---,0.00,VWS V14.01,2013-01-20 09:51:00,
2013-01-20 04:52:00,42.8,30.7,29.87,SW,217,1.0,1.0,62,0.00,,---,0.00,VWS V14.01,2013-01-20 09:52:00,
2013-01-20 04:53:00,42.8,30.7,29.87,SW,219,0.0,1.0,62,0.00,,---,0.00,VWS V14.01,2013-01-20 09:53:00,
2013-01-20 04:54:00,42.8,30.7,29.87,SW,229,0.0,1.0,62,0.00,,---,0.00,VWS V14.01,2013-01-20 09:54:00,
2013-01-20 04:55:00,42.8,30.7,29.87,SW,229,0.0,1.0,62,0.00,,---,0.00,VWS V14.01,2013-01-20 09:55:00,
2013-01-20 04:56:00,42.8,30.7,29.87,SW,229,0.0,0.0,62,0.00,,---,0.00,VWS V14.01,2013-01-20 09:56:00,
2013-01-20 04:57:00,42.8,30.7,29.87,SW,229,1.0,1.0,62,0.00,,---,0.00,VWS V14.01,2013-01-20 09:57:00,
2013-01-20 04:58:00,42.8,30.7,29.87,SW,229,0.0,0.0,62,0.00,,---,0.00,VWS V14.01,2013-01-20 09:58:00,
2013-01-20 04:59:00,42.8,30.7,29.87,SW,229,0.0,1.0,62,0.00,,---,0.00,VWS V14.01,2013-01-20 09:59:00,
2013-01-20 05:00:00,42.8,30.7,29.87,SW,229,0.0,2.0,62,0.00,,---,0.00,VWS V14.01,2013-01-20 10:00:00,
2013-01-20 05:01:00,42.8,30.7,29.86,SW,229,0.0,1.0,62,0.00,,---,0.00,VWS V14.01,2013-01-20 10:01:00,
2013-01-20 05:02:00,42.8,30.7,29.87,SW,229,0.0,1.0,62,0.00,,---,0.00,VWS V14.01,2013-01-20 10:02:00,
2013-01-20 05:03:00,42.8,30.7,29.86,SW,229,0.0,1.0,62,0.00,,---,0.00,VWS V14.01,2013-01-20 10:03:00,
2013-01-20 05:04:00,42.7,30.6,29.87,SW,229,0.0,0.0,62,0.00,,---,0.00,VWS V14.01,2013-01-20 10:04:00,
2013-01-20 05:05:00,42.7,30.6,29.87,SW,234,5.0,5.0,62,0.00,,---,0.00,VWS V14.01,2013-01-20 10:05:00,
2013-01-20 05:06:00,42.7,30.6,29.87,SW,233,1.0,5.0,62,0.00,,---,0.00,VWS V14.01,2013-01-20 10:06:00,
2013-01-20 05:07:00,42.7,30.6,29.87,SW,220,2.0,7.0,62,0.00,,---,0.00,VWS V14.01,2013-01-20 10:07:00,
2013-01-20 05:08:00,42.7,30.6,29.87,SW,218,2.0,7.0,62,0.00,,---,0.00,VWS V14.01,2013-01-20 10:08:00,
2013-01-20 05:09:00,42.7,30.6,29.86,SSE,150,0.0,1.0,62,0.00,,---,0.00,VWS V14.01,2013-01-20 10:09:00,
2013-01-20 05:10:00,42.6,30.5,29.86,SSE,150,0.0,0.0,62,0.00,,---,0.00,VWS V14.01,2013-01-20 10:10:00,
2013-01-20 05:11:00,42.6,30.5,29.86,SSE,150,0.0,1.0,62,0.00,,---,0.00,VWS V14.01,2013-01-20 10:11:00,
2013-01-20 05:12:00,42.6,30.9,29.86,SSE,150,0.0,1.0,63,0.00,,---,0.00,VWS V14.01,2013-01-20 10:12:00,
2013-01-20 05:13:00,42.6,30.5,29.86,SSE,150,0.0,1.0,62,0.00,,---,0.00,VWS V14.01,2013-01-20 10:13:00,
2013-01-20 05:14:00,42.5,30.8,29.86,SSE,151,0.0,4.0,63,0.00,,---,0.00,VWS V14.01,2013-01-20 10:14:00,
2013-01-20 05:15:00,42.5,30.8,29.86,SSE,151,0.0,0.0,63,0.00,,---,0.00,VWS V14.01,2013-01-20 10:15:00,
2013-01-20 05:16:00,42.5,30.8,29.86,SSE,151,0.0,0.0,63,0.00,,---,0.00,VWS V14.01,2013-01-20 10:16:00,
2013-01-20 05:17:00,42.5,30.8,29.86,SSE,151,0.0,1.0,63,0.00,,---,0.00,VWS V14.01,2013-01-20 10:17:00,
2013-01-20 05:18:00,42.5,30.8,29.86,SSE,151,1.0,1.0,63,0.00,,---,0.00,VWS V14.01,2013-01-20 10:18:00,
2013-01-20 05:19:00,42.4,30.7,29.86,SSE,151,0.0,1.0,63,0.00,,---,0.00,VWS V14.01,2013-01-20 10:19:00,
2013-01-20 05:20:00,42.4,30.7,29.86,SSE,151,0.0,1.0,63,0.00,,---,0.00,VWS V14.01,2013-01-20 10:20:00,
2013-01-20 05:21:00,42.4,31.1,29.86,SSE,151,1.0,2.0,64,0.00,,---,0.00,VWS V14.01,2013-01-20 10:21:00,
2013-01-20 05:22:00,42.4,30.7,29.86,SSE,151,1.0,3.0,63,0.00,,---,0.00,VWS V14.01,2013-01-20 10:22:00,
2013-01-20 05:23:00,42.4,30.7,29.86,SSE,151,1.0,1.0,63,0.00,,---,0.00,VWS V14.01,2013-01-20 10:23:00,
2013-01-20 05:24:00,42.3,30.6,29.86,SW,219,2.0,6.0,63,0.00,,---,0.00,VWS V14.01,2013-01-20 10:24:00,
2013-01-20 05:25:00,42.3,30.6,29.86,SW,219,0.0,3.0,63,0.00,,---,0.00,VWS V14.01,2013-01-20 10:25:00,
2013-01-20 05:26:00,42.4,30.7,29.86,SW,219,0.0,0.0,63,0.00,,---,0.00,VWS V14.01,2013-01-20 10:26:00,
2013-01-20 05:27:00,42.4,30.7,29.86,SW,219,0.0,2.0,63,0.00,,---,0.00,VWS V14.01,2013-01-20 10:27:00,
2013-01-20 05:28:00,42.4,30.7,29.86,SW,219,2.0,2.0,63,0.00,,---,0.00,VWS V14.01,2013-01-20 10:28:00,
2013-01-20 05:29:00,42.4,30.7,29.86,SW,219,0.0,0.0,63,0.00,,---,0.00,VWS V14.01,2013-01-20 10:29:00,
2013-01-20 05:30:00,42.4,30.7,29.86,SW,219,0.0,0.0,63,0.00,,---,0.00,VWS V14.01,2013-01-20 10:30:00,
2013-01-20 05:31:00,42.4,30.7,29.86,SSW,208,5.0,7.0,63,0.00,,---,0.00,VWS V14.01,2013-01-20 10:31:00,
2013-01-20 05:32:00,42.4,30.7,29.86,SSW,202,0.0,5.0,63,0.00,,---,0.00,VWS V14.01,2013-01-20 10:32:00,
2013-01-20 05:33:00,42.4,30.7,29.86,SSW,202,2.0,5.0,63,0.00,,---,0.00,VWS V14.01,2013-01-20 10:33:00,
2013-01-20 05:34:00,42.4,30.7,29.86,SSW,202,0.0,1.0,63,0.00,,---,0.00,VWS V14.01,2013-01-20 10:34:00,
2013-01-20 05:35:00,42.4,30.7,29.86,SSW,202,0.0,4.0,63,0.00,,---,0.00,VWS V14.01,2013-01-20 10:35:00,
2013-01-20 05:36:00,42.4,30.7,29.86,SSW,202,0.0,1.0,63,0.00,,---,0.00,VWS V14.01,2013-01-20 10:36:00,
2013-01-20 05:37:00,42.4,30.7,29.86,SSW,202,1.0,4.0,63,0.00,,---,0.00,VWS V14.01,2013-01-20 10:37:00,
2013-01-20 05:38:00,42.4,30.7,29.86,SSW,202,1.0,1.0,63,0.00,,---,0.00,VWS V14.01,2013-01-20 10:38:00,
2013-01-20 05:39:00,42.4,30.7,29.86,SSW,202,0.0,1.0,63,0.00,,---,0.00,VWS V14.01,2013-01-20 10:39:00,
2013-01-20 05:40:00,42.4,30.7,29.86,SSW,202,1.0,1.0,63,0.00,,---,0.00,VWS V14.01,2013-01-20 10:40:00,
2013-01-20 05:41:00,42.4,30.7,29.86,SSW,202,1.0,1.0,63,0.00,,---,0.00,VWS V14.01,2013-01-20 10:41:00,
2013-01-20 05:42:00,42.4,30.7,29.86,SSW,202,0.0,1.0,63,0.00,,---,0.00,VWS V14.01,2013-01-20 10:42:00,
2013-01-20 05:43:00,42.4,30.7,29.86,SSW,202,0.0,1.0,63,0.00,,---,0.00,VWS V14.01,2013-01-20 10:43:00,
2013-01-20 05:44:00,42.4,30.7,29.86,SSW,202,0.0,1.0,63,0.00,,---,0.00,VWS V14.01,2013-01-20 10:44:00,
2013-01-20 05:45:00,42.3,30.6,29.86,SSW,202,1.0,1.0,63,0.00,,---,0.00,VWS V14.01,2013-01-20 10:45:00,
2013-01-20 05:46:00,42.3,30.6,29.86,SSW,202,2.0,2.0,63,0.00,,---,0.00,VWS V14.01,2013-01-20 10:46:00,
2013-01-20 05:47:00,42.3,30.6,29.86,SSW,202,0.0,2.0,63,0.00,,---,0.00,VWS V14.01,2013-01-20 10:47:00,
2013-01-20 05:48:00,42.3,30.6,29.86,SSW,202,1.0,2.0,63,0.00,,---,0.00,VWS V14.01,2013-01-20 10:48:00,
2013-01-20 05:49:00,42.3,30.6,29.85,SSW,202,1.0,2.0,63,0.00,,---,0.00,VWS V14.01,2013-01-20 10:49:00,
2013-01-20 05:50:00,42.2,30.5,29.85,SSW,202,1.0,3.0,63,0.00,,---,0.00,VWS V14.01,2013-01-20 10:50:00,
2013-01-20 05:51:00,42.2,30.5,29.85,SSW,202,1.0,2.0,63,0.00,,---,0.00,VWS V14.01,2013-01-20 10:51:00,
2013-01-20 05:52:00,42.2,30.5,29.85,SSW,202,0.0,1.0,63,0.00,,---,0.00,VWS V14.01,2013-01-20 10:52:00,
2013-01-20 05:53:00,42.2,30.5,29.85,SSW,202,0.0,1.0,63,0.00,,---,0.00,VWS V14.01,2013-01-20 10:53:00,
2013-01-20 05:54:00,42.2,30.5,29.85,SSW,202,1.0,4.0,63,0.00,,---,0.00,VWS V14.01,2013-01-20 10:54:00,
2013-01-20 05:55:00,42.2,30.5,29.85,SSW,202,0.0,1.0,63,0.00,,---,0.00,VWS V14.01,2013-01-20 10:55:00,
2013-01-20 05:56:00,42.2,30.5,29.85,SSW,202,1.0,3.0,63,0.00,,---,0.00,VWS V14.01,2013-01-20 10:56:00,
2013-01-20 05:57:00,42.2,30.5,29.86,SSW,202,0.0,1.0,63,0.00,,---,0.00,VWS V14.01,2013-01-20 10:57:00,
2013-01-20 05:58:00,42.2,30.5,29.85,SSW,202,0.0,1.0,63,0.00,,---,0.00,VWS V14.01,2013-01-20 10:58:00,
2013-01-20 05:59:00,42.1,30.8,29.86,SSW,202,1.0,2.0,64,0.00,,---,0.00,VWS V14.01,2013-01-20 10:59:00,
2013-01-20 06:00:00,42.1,30.8,29.86,SSW,202,1.0,1.0,64,0.00,,---,0.00,VWS V14.01,2013-01-20 11:00:00,
2013-01-20 06:01:00,42.1,30.8,29.85,WSW,249,2.0,5.0,64,0.00,,---,0.00,VWS V14.01,2013-01-20 11:01:00,
2013-01-20 06:02:00,42.1,30.4,29.85,SW,224,4.0,5.0,63,0.00,,---,0.00,VWS V14.01,2013-01-20 11:02:00,
2013-01-20 06:03:00,42.0,30.3,29.85,SW,224,1.0,4.0,63,0.00,,---,0.00,VWS V14.01,2013-01-20 11:03:00,
2013-01-20 06:04:00,42.1,30.4,29.85,SW,223,2.0,5.0,63,0.00,,---,0.00,VWS V14.01,2013-01-20 11:04:00,
2013-01-20 06:05:00,42.1,30.4,29.85,SSW,198,1.0,4.0,63,0.00,,---,0.00,VWS V14.01,2013-01-20 11:05:00,
2013-01-20 06:06:00,42.1,30.4,29.85,SSW,198,0.0,2.0,63,0.00,,---,0.00,VWS V14.01,2013-01-20 11:06:00,
2013-01-20 06:07:00,42.1,30.4,29.85,SSW,198,0.0,0.0,63,0.00,,---,0.00,VWS V14.01,2013-01-20 11:07:00,
2013-01-20 06:08:00,42.1,30.4,29.85,SSW,198,0.0,0.0,63,0.00,,---,0.00,VWS V14.01,2013-01-20 11:08:00,
2013-01-20 06:09:00,42.1,30.8,29.85,SW,230,1.0,4.0,64,0.00,,---,0.00,VWS V14.01,2013-01-20 11:09:00,
2013-01-20 06:10:00,42.1,30.4,29.85,SW,230,1.0,2.0,63,0.00,,---,0.00,VWS V14.01,2013-01-20 11:10:00,
2013-01-20 06:11:00,42.1,30.4,29.85,South,185,0.0,5.0,63,0.00,,---,0.00,VWS V14.01,2013-01-20 11:11:00,
2013-01-20 06:12:00,42.1,30.8,29.85,South,185,1.0,1.0,64,0.00,,---,0.00,VWS V14.01,2013-01-20 11:12:00,
2013-01-20 06:13:00,42.1,30.8,29.85,South,185,0.0,0.0,64,0.00,,---,0.00,VWS V14.01,2013-01-20 11:13:00,
2013-01-20 06:14:00,42.0,30.7,29.85,South,185,1.0,1.0,64,0.00,,---,0.00,VWS V14.01,2013-01-20 11:14:00,
2013-01-20 06:15:00,42.0,30.7,29.85,SSE,157,1.0,2.0,64,0.00,,---,0.00,VWS V14.01,2013-01-20 11:15:00,
2013-01-20 06:16:00,42.0,30.7,29.85,SSE,158,1.0,2.0,64,0.00,,---,0.00,VWS V14.01,2013-01-20 11:16:00,
2013-01-20 06:17:00,42.0,30.7,29.85,SSE,158,0.0,2.0,64,0.00,,---,0.00,VWS V14.01,2013-01-20 11:17:00,
2013-01-20 06:18:00,42.0,30.7,29.85,SSE,158,0.0,2.0,64,0.00,,---,0.00,VWS V14.01,2013-01-20 11:18:00,
2013-01-20 06:19:00,42.0,30.7,29.85,SSE,158,0.0,1.0,64,0.00,,---,0.00,VWS V14.01,2013-01-20 11:19:00,
2013-01-20 06:20:00,41.9,30.6,29.85,SSE,158,0.0,2.0,64,0.00,,---,0.00,VWS V14.01,2013-01-20 11:20:00,
2013-01-20 06:21:00,41.9,30.6,29.85,SSE,158,0.0,2.0,64,0.00,,---,0.00,VWS V14.01,2013-01-20 11:21:00,
2013-01-20 06:22:00,41.9,30.6,29.85,SSE,158,0.0,1.0,64,0.00,,---,0.00,VWS V14.01,2013-01-20 11:22:00,
2013-01-20 06:23:00,41.9,30.6,29.85,SSE,158,0.0,0.0,64,0.00,,---,0.00,VWS V14.01,2013-01-20 11:23:00,
2013-01-20 06:24:00,41.9,30.6,29.85,SSW,212,0.0,3.0,64,0.00,,---,0.00,VWS V14.01,2013-01-20 11:24:00,
2013-01-20 06:25:00,41.8,30.5,29.85,South,190,5.0,5.0,64,0.00,,---,0.00,VWS V14.01,2013-01-20 11:25:00,
2013-01-20 06:26:00,41.8,30.5,29.85,South,190,2.0,5.0,64,0.00,,---,0.00,VWS V14.01,2013-01-20 11:26:00,
2013-01-20 06:27:00,41.8,30.5,29.85,South,190,0.0,2.0,64,0.00,,---,0.00,VWS V14.01,2013-01-20 11:27:00,
2013-01-20 06:28:00,41.8,30.5,29.85,South,190,1.0,2.0,64,0.00,,---,0.00,VWS V14.01,2013-01-20 11:28:00,
2013-01-20 06:29:00,41.8,30.5,29.85,South,190,0.0,1.0,64,0.00,,---,0.00,VWS V14.01,2013-01-20 11:29:00,
2013-01-20 06:30:00,41.7,30.4,29.85,South,190,4.0,4.0,64,0.00,,---,0.00,VWS V14.01,2013-01-20 11:30:00,
2013-01-20 06:31:00,41.7,30.4,29.85,South,190,2.0,4.0,64,0.00,,---,0.00,VWS V14.01,2013-01-20 11:31:00,
2013-01-20 06:32:00,41.7,30.4,29.85,South,190,0.0,2.0,64,0.00,,---,0.00,VWS V14.01,2013-01-20 11:32:00,
2013-01-20 06:33:00,41.7,30.4,29.85,South,190,1.0,2.0,64,0.00,,---,0.00,VWS V14.01,2013-01-20 11:33:00,
2013-01-20 06:34:00,41.7,30.4,29.85,South,184,1.0,9.0,64,0.00,,---,0.00,VWS V14.01,2013-01-20 11:34:00,
2013-01-20 06:35:00,41.7,30.4,29.85,South,184,1.0,2.0,64,0.00,,---,0.00,VWS V14.01,2013-01-20 11:35:00,
2013-01-20 06:36:00,41.7,30.4,29.85,South,184,1.0,4.0,64,0.00,,---,0.00,VWS V14.01,2013-01-20 11:36:00,
2013-01-20 06:37:00,41.7,30.4,29.85,SSW,211,1.0,4.0,64,0.00,,---,0.00,VWS V14.01,2013-01-20 11:37:00,
2013-01-20 06:38:00,41.7,30.4,29.85,SSW,211,3.0,4.0,64,0.00,,---,0.00,VWS V14.01,2013-01-20 11:38:00,
2013-01-20 06:39:00,41.7,30.4,29.85,SSW,211,1.0,1.0,64,0.00,,---,0.00,VWS V14.01,2013-01-20 11:39:00,
2013-01-20 06:40:00,41.7,30.4,29.85,SSW,207,5.0,6.0,64,0.00,,---,0.00,VWS V14.01,2013-01-20 11:40:00,
2013-01-20 06:41:00,41.7,30.4,29.85,SSW,207,0.0,5.0,64,0.00,,---,0.00,VWS V14.01,2013-01-20 11:41:00,
2013-01-20 06:42:00,41.7,30.4,29.85,SSW,207,0.0,1.0,64,0.00,,---,0.00,VWS V14.01,2013-01-20 11:42:00,
2013-01-20 06:43:00,41.7,30.4,29.85,SSW,207,0.0,0.0,64,0.00,,---,0.00,VWS V14.01,2013-01-20 11:43:00,
2013-01-20 06:44:00,41.6,30.3,29.85,SSW,192,1.0,2.0,64,0.00,,---,0.00,VWS V14.01,2013-01-20 11:44:00,
2013-01-20 06:45:00,41.6,30.3,29.85,SSW,192,0.0,1.0,64,0.00,,---,0.00,VWS V14.01,2013-01-20 11:45:00,
2013-01-20 06:46:00,41.6,30.3,29.85,SSW,192,2.0,2.0,64,0.00,,---,0.00,VWS V14.01,2013-01-20 11:46:00,
2013-01-20 06:47:00,41.6,30.3,29.85,SSW,205,0.0,4.0,64,0.00,,---,0.00,VWS V14.01,2013-01-20 11:47:00,
2013-01-20 06:48:00,41.6,30.3,29.85,SSW,205,1.0,4.0,64,0.00,,---,0.00,VWS V14.01,2013-01-20 11:48:00,
2013-01-20 06:49:00,41.6,30.3,29.85,SSW,205,0.0,3.0,64,0.00,,---,0.00,VWS V14.01,2013-01-20 11:49:00,
2013-01-20 06:50:00,41.6,30.3,29.85,SSW,205,0.0,0.0,64,0.00,,---,0.00,VWS V14.01,2013-01-20 11:50:00,
2013-01-20 06:51:00,41.6,30.3,29.85,SSW,211,1.0,2.0,64,0.00,,---,0.00,VWS V14.01,2013-01-20 11:51:00,
2013-01-20 06:52:00,41.6,30.3,29.85,SSW,211,0.0,2.0,64,0.00,,---,0.00,VWS V14.01,2013-01-20 11:52:00,
2013-01-20 06:53:00,41.6,30.3,29.85,SSW,211,1.0,2.0,64,0.00,,---,0.00,VWS V14.01,2013-01-20 11:53:00,
2013-01-20 06:54:00,41.5,30.2,29.85,SSW,211,1.0,3.0,64,0.00,,---,0.00,VWS V14.01,2013-01-20 11:54:00,
2013-01-20 06:55:00,41.5,30.2,29.85,SSW,210,0.0,2.0,64,0.00,,---,0.00,VWS V14.01,2013-01-20 11:55:00,
2013-01-20 06:56:00,41.5,30.2,29.85,SSW,210,1.0,2.0,64,0.00,,---,0.00,VWS V14.01,2013-01-20 11:56:00,
2013-01-20 06:57:00,41.5,30.2,29.85,SSW,210,0.0,2.0,64,0.00,,---,0.00,VWS V14.01,2013-01-20 11:57:00,
2013-01-20 06:58:00,41.5,30.2,29.85,SSW,210,2.0,2.0,64,0.00,,---,0.00,VWS V14.01,2013-01-20 11:58:00,
2013-01-20 06:59:00,41.5,30.2,29.85,SSW,203,1.0,4.0,64,0.00,,---,0.00,VWS V14.01,2013-01-20 11:59:00,
2013-01-20 07:00:00,41.5,30.6,29.85,SSW,203,1.0,3.0,65,0.00,,---,0.00,VWS V14.01,2013-01-20 12:00:00,
2013-01-20 07:01:00,41.5,30.2,29.85,South,177,2.0,5.0,64,0.00,,---,0.00,VWS V14.01,2013-01-20 12:01:00,
2013-01-20 07:02:00,41.5,30.6,29.85,South,177,0.0,2.0,65,0.00,,---,0.00,VWS V14.01,2013-01-20 12:02:00,
2013-01-20 07:03:00,41.5,30.2,29.85,South,177,0.0,2.0,64,0.00,,---,0.00,VWS V14.01,2013-01-20 12:03:00,
2013-01-20 07:04:00,41.5,30.2,29.85,SSW,207,0.0,6.0,64,0.00,,---,0.00,VWS V14.01,2013-01-20 12:04:00,
2013-01-20 07:05:00,41.5,30.6,29.85,SSW,207,1.0,2.0,65,0.00,,---,0.00,VWS V14.01,2013-01-20 12:05:00,
2013-01-20 07:06:00,41.5,30.2,29.85,SSW,210,1.0,5.0,64,0.00,,---,0.00,VWS V14.01,2013-01-20 12:06:00,
2013-01-20 07:07:00,41.5,30.2,29.85,SSW,204,0.0,1.0,64,0.00,,---,0.00,VWS V14.01,2013-01-20 12:07:00,
2013-01-20 07:08:00,41.5,30.2,29.85,SSW,204,0.0,1.0,64,0.00,,---,0.00,VWS V14.01,2013-01-20 12:08:00,
2013-01-20 07:09:00,41.5,30.2,29.85,SSW,198,0.0,4.0,64,0.00,,---,0.00,VWS V14.01,2013-01-20 12:09:00,
2013-01-20 07:10:00,41.6,30.3,29.85,SSW,198,1.0,3.0,64,0.00,,---,0.00,VWS V14.01,2013-01-20 12:10:00,
2013-01-20 07:11:00,41.6,30.3,29.85,SSW,198,0.0,2.0,64,0.00,,---,0.00,VWS V14.01,2013-01-20 12:11:00,
2013-01-20 07:12:00,41.5,30.2,29.85,SW,222,4.0,5.0,64,0.00,,---,0.00,VWS V14.01,2013-01-20 12:12:00,
2013-01-20 07:13:00,41.5,30.2,29.85,SSW,205,2.0,5.0,64,0.00,,---,0.00,VWS V14.01,2013-01-20 12:13:00,
2013-01-20 07:14:00,41.6,30.3,29.85,SSE,153,1.0,4.0,64,0.00,,---,0.00,VWS V14.01,2013-01-20 12:14:00,
2013-01-20 07:15:00,41.6,30.3,29.85,SSE,153,1.0,1.0,64,0.00,,---,0.00,VWS V14.01,2013-01-20 12:15:00,
2013-01-20 07:16:00,41.6,30.7,29.85,SW,227,4.0,5.0,65,0.00,,---,0.00,VWS V14.01,2013-01-20 12:16:00,
2013-01-20 07:17:00,41.6,30.3,29.85,SSW,202,1.0,4.0,64,0.00,,---,0.00,VWS V14.01,2013-01-20 12:17:00,
2013-01-20 07:18:00,41.6,30.3,29.85,SSW,202,0.0,4.0,64,0.00,,---,0.00,VWS V14.01,2013-01-20 12:18:00,
2013-01-20 07:19:00,41.6,30.3,29.85,SW,219,1.0,2.0,64,0.00,,---,0.00,VWS V14.01,2013-01-20 12:19:00,
2013-01-20 07:20:00,41.6,30.3,29.85,SW,219,0.0,2.0,64,0.00,,---,0.00,VWS V14.01,2013-01-20 12:20:00,
2013-01-20 07:21:00,41.6,30.3,29.85,SW,219,0.0,0.0,64,0.00,,---,0.00,VWS V14.01,2013-01-20 12:21:00,
2013-01-20 07:22:00,41.6,30.7,29.86,SW,219,1.0,2.0,65,0.00,,---,0.00,VWS V14.01,2013-01-20 12:22:00,
2013-01-20 07:23:00,41.6,30.7,29.85,SW,219,1.0,1.0,65,0.00,,---,0.00,VWS V14.01,2013-01-20 12:23:00,
2013-01-20 07:24:00,41.6,30.3,29.85,SW,232,1.0,2.0,64,0.00,,---,0.00,VWS V14.01,2013-01-20 12:24:00,
2013-01-20 07:25:00,41.6,30.3,29.85,SW,232,1.0,1.0,64,0.00,,---,0.00,VWS V14.01,2013-01-20 12:25:00,
2013-01-20 07:26:00,41.6,30.3,29.86,South,169,4.0,8.0,64,0.00,,---,0.00,VWS V14.01,2013-01-20 12:26:00,
2013-01-20 07:27:00,41.6,30.3,29.86,South,187,2.0,7.0,64,0.00,,---,0.00,VWS V14.01,2013-01-20 12:27:00,
2013-01-20 07:28:00,41.6,30.3,29.86,SSW,198,5.0,6.0,64,0.00,,---,0.00,VWS V14.01,2013-01-20 12:28:00,
2013-01-20 07:29:00,41.6,30.3,29.85,SSW,207,2.0,4.0,64,0.00,,---,0.00,VWS V14.01,2013-01-20 12:29:00,
2013-01-20 07:30:00,41.6,30.3,29.85,SSW,207,1.0,2.0,64,0.00,,---,0.00,VWS V14.01,2013-01-20 12:30:00,
2013-01-20 07:31:00,41.6,30.3,29.85,SSW,207,2.0,3.0,64,0.00,,---,0.00,VWS V14.01,2013-01-20 12:31:00,
2013-01-20 07:32:00,41.7,30.4,29.85,SSW,207,2.0,2.0,64,0.00,,---,0.00,VWS V14.01,2013-01-20 12:32:00,
2013-01-20 07:33:00,41.6,30.3,29.85,SSW,207,1.0,2.0,64,0.00,,---,0.00,VWS V14.01,2013-01-20 12:33:00,
2013-01-20 07:34:00,41.7,30.4,29.85,SSW,195,6.0,6.0,64,0.00,,---,0.00,VWS V14.01,2013-01-20 12:34:00,
2013-01-20 07:35:00,41.6,30.3,29.85,SSW,208,5.0,7.0,64,0.00,,---,0.00,VWS V14.01,2013-01-20 12:35:00,
2013-01-20 07:36:00,41.7,30.4,29.85,SSW,199,13.0,13.0,64,0.00,,---,0.00,VWS V14.01,2013-01-20 12:36:00,
2013-01-20 07:37:00,41.7,30.4,29.85,WSW,245,5.0,15.0,64,0.00,,---,0.00,VWS V14.01,2013-01-20 12:37:00,
2013-01-20 07:38:00,41.7,30.4,29.85,South,182,2.0,15.0,64,0.00,,---,0.00,VWS V14.01,2013-01-20 12:38:00,
2013-01-20 07:39:00,41.8,30.5,29.85,SSW,213,4.0,4.0,64,0.00,,---,0.00,VWS V14.01,2013-01-20 12:39:00,
2013-01-20 07:40:00,41.8,30.5,29.85,WSW,244,4.0,4.0,64,0.00,,---,0.00,VWS V14.01,2013-01-20 12:40:00,
2013-01-20 07:41:00,41.8,30.5,29.85,WSW,243,0.0,5.0,64,0.00,,---,0.00,VWS V14.01,2013-01-20 12:41:00,
2013-01-20 07:42:00,41.9,30.6,29.85,WSW,243,0.0,2.0,64,0.00,,---,0.00,VWS V14.01,2013-01-20 12:42:00,
2013-01-20 07:43:00,41.8,30.5,29.85,WSW,243,1.0,1.0,64,0.00,,---,0.00,VWS V14.01,2013-01-20 12:43:00,
2013-01-20 07:44:00,41.9,30.6,29.85,SSW,210,1.0,6.0,64,0.00,,---,0.00,VWS V14.01,2013-01-20 12:44:00,
2013-01-20 07:45:00,41.9,30.6,29.85,SSW,210,1.0,1.0,64,0.00,,---,0.00,VWS V14.01,2013-01-20 12:45:00,
2013-01-20 07:46:00,41.9,30.6,29.85,SW,220,4.0,4.0,64,0.00,,---,0.00,VWS V14.01,2013-01-20 12:46:00,
2013-01-20 07:47:00,41.9,30.6,29.85,SSW,211,0.0,4.0,64,0.00,,---,0.00,VWS V14.01,2013-01-20 12:47:00,
2013-01-20 07:48:00,41.9,30.6,29.85,SSW,211,0.0,4.0,64,0.00,,---,0.00,VWS V14.01,2013-01-20 12:48:00,
2013-01-20 07:49:00,41.9,30.6,29.85,SSW,205,4.0,6.0,64,0.00,,---,0.00,VWS V14.01,2013-01-20 12:49:00,
2013-01-20 07:50:00,41.9,30.6,29.85,SSW,194,2.0,8.0,64,0.00,,---,0.00,VWS V14.01,2013-01-20 12:50:00,
2013-01-20 07:51:00,41.9,30.6,29.85,SSW,194,1.0,3.0,64,0.00,,---,0.00,VWS V14.01,2013-01-20 12:51:00,
2013-01-20 07:52:00,41.9,30.6,29.85,SSW,205,5.0,10.0,64,0.00,,---,0.00,VWS V14.01,2013-01-20 12:52:00,
2013-01-20 07:53:00,41.9,30.6,29.85,SSW,205,7.0,10.0,64,0.00,,---,0.00,VWS V14.01,2013-01-20 12:53:00,
2013-01-20 07:54:00,42.0,30.7,29.85,SSE,159,0.0,1.0,64,0.00,,---,0.00,VWS V14.01,2013-01-20 12:54:00,
2013-01-20 07:55:00,42.0,30.7,29.85,SSE,159,1.0,1.0,64,0.00,,---,0.00,VWS V14.01,2013-01-20 12:55:00,
2013-01-20 07:56:00,42.1,30.4,29.85,South,184,8.0,8.0,63,0.00,,---,0.00,VWS V14.01,2013-01-20 12:56:00,
2013-01-20 07:57:00,42.1,30.4,29.85,South,173,6.0,8.0,63,0.00,,---,0.00,VWS V14.01,2013-01-20 12:57:00,
2013-01-20 07:58:00,42.1,30.4,29.85,SE,138,2.0,8.0,63,0.00,,---,0.00,VWS V14.01,2013-01-20 12:58:00,
2013-01-20 07:59:00,42.2,30.5,29.85,SSW,207,0.0,7.0,63,0.00,,---,0.00,VWS V14.01,2013-01-20 12:59:00,
2013-01-20 08:00:00,42.2,30.5,29.85,SSW,207,0.0,2.0,63,0.00,,---,0.00,VWS V14.01,2013-01-20 13:00:00,
2013-01-20 08:01:00,42.2,30.5,29.85,WSW,244,1.0,5.0,63,0.00,,---,0.00,VWS V14.01,2013-01-20 13:01:00,
2013-01-20 08:02:00,42.2,30.5,29.86,SW,217,5.0,5.0,63,0.00,,---,0.00,VWS V14.01,2013-01-20 13:02:00,
2013-01-20 08:03:00,42.2,30.5,29.86,SW,215,4.0,4.0,63,0.00,,---,0.00,VWS V14.01,2013-01-20 13:03:00,
2013-01-20 08:04:00,42.3,30.6,29.85,SW,226,2.0,4.0,63,0.00,,---,0.00,VWS V14.01,2013-01-20 13:04:00,
2013-01-20 08:05:00,42.3,30.6,29.85,South,186,6.0,6.0,63,0.00,,---,0.00,VWS V14.01,2013-01-20 13:05:00,
2013-01-20 08:06:00,42.4,30.7,29.85,South,186,2.0,6.0,63,0.00,,---,0.00,VWS V14.01,2013-01-20 13:06:00,
2013-01-20 08:07:00,42.4,30.7,29.85,West,260,7.0,7.0,63,0.00,,---,0.00,VWS V14.01,2013-01-20 13:07:00,
2013-01-20 08:08:00,42.4,30.7,29.85,SW,224,5.0,6.0,63,0.00,,---,0.00,VWS V14.01,2013-01-20 13:08:00,
2013-01-20 08:09:00,42.5,30.8,29.86,South,189,4.0,5.0,63,0.00,,---,0.00,VWS V14.01,2013-01-20 13:09:00,
2013-01-20 08:10:00,42.6,30.9,29.86,SSW,192,0.0,4.0,63,0.00,,---,0.00,VWS V14.01,2013-01-20 13:10:00,
2013-01-20 08:11:00,42.6,30.9,29.86,SSW,192,0.0,1.0,63,0.00,,---,0.00,VWS V14.01,2013-01-20 13:11:00,
2013-01-20 08:12:00,42.7,31.0,29.86,SSW,192,0.0,2.0,63,0.00,,---,0.00,VWS V14.01,2013-01-20 13:12:00,
2013-01-20 08:13:00,42.7,31.0,29.86,SSW,192,1.0,2.0,63,0.00,,---,0.00,VWS V14.01,2013-01-20 13:13:00,
2013-01-20 08:14:00,42.7,31.0,29.86,SSE,151,4.0,6.0,63,0.00,,---,0.00,VWS V14.01,2013-01-20 13:14:00,
2013-01-20 08:15:00,42.7,30.6,29.86,South,169,1.0,4.0,62,0.00,,---,0.00,VWS V14.01,2013-01-20 13:15:00,
2013-01-20 08:16:00,42.8,31.1,29.86,South,169,1.0,2.0,63,0.00,,---,0.00,VWS V14.01,2013-01-20 13:16:00,
2013-01-20 08:17:00,42.8,31.1,29.85,South,169,1.0,2.0,63,0.00,,---,0.00,VWS V14.01,2013-01-20 13:17:00,
2013-01-20 08:18:00,42.8,31.1,29.85,South,169,2.0,2.0,63,0.00,,---,0.00,VWS V14.01,2013-01-20 13:18:00,
2013-01-20 08:19:00,42.9,30.8,29.86,SSW,196,4.0,7.0,62,0.00,,---,0.00,VWS V14.01,2013-01-20 13:19:00,
2013-01-20 08:20:00,42.9,30.8,29.86,South,174,2.0,5.0,62,0.00,,---,0.00,VWS V14.01,2013-01-20 13:20:00,
2013-01-20 08:21:00,43.0,30.9,29.85,ESE,107,6.0,10.0,62,0.00,,---,0.00,VWS V14.01,2013-01-20 13:21:00,
2013-01-20 08:22:00,43.0,30.9,29.85,SSW,198,3.0,6.0,62,0.00,,---,0.00,VWS V14.01,2013-01-20 13:22:00,
2013-01-20 08:23:00,43.0,30.9,29.85,SSW,198,0.0,6.0,62,0.00,,---,0.00,VWS V14.01,2013-01-20 13:23:00,
2013-01-20 08:24:00,43.1,31.0,29.85,SSW,194,1.0,4.0,62,0.00,,---,0.00,VWS V14.01,2013-01-20 13:24:00,
2013-01-20 08:25:00,43.2,31.5,29.86,South,175,5.0,5.0,63,0.00,,---,0.00,VWS V14.01,2013-01-20 13:25:00,
2013-01-20 08:26:00,43.2,31.1,29.85,SSE,166,3.0,5.0,62,0.00,,---,0.00,VWS V14.01,2013-01-20 13:26:00,
2013-01-20 08:27:00,43.2,31.1,29.86,SSE,166,1.0,3.0,62,0.00,,---,0.00,VWS V14.01,2013-01-20 13:27:00,
2013-01-20 08:28:00,43.2,31.1,29.85,SSE,166,1.0,3.0,62,0.00,,---,0.00,VWS V14.01,2013-01-20 13:28:00,
2013-01-20 08:29:00,43.3,31.2,29.86,SW,234,2.0,4.0,62,0.00,,---,0.00,VWS V14.01,2013-01-20 13:29:00,
2013-01-20 08:30:00,43.3,31.2,29.86,SW,234,0.0,2.0,62,0.00,,---,0.00,VWS V14.01,2013-01-20 13:30:00,
2013-01-20 08:31:00,43.4,31.3,29.85,SW,234,0.0,2.0,62,0.00,,---,0.00,VWS V14.01,2013-01-20 13:31:00,
2013-01-20 08:32:00,43.4,31.3,29.86,SSW,197,2.0,3.0,62,0.00,,---,0.00,VWS V14.01,2013-01-20 13:32:00,
2013-01-20 08:33:00,43.4,31.3,29.86,SSW,197,3.0,3.0,62,0.00,,---,0.00,VWS V14.01,2013-01-20 13:33:00,
2013-01-20 08:34:00,43.5,31.4,29.86,SSW,197,1.0,4.0,62,0.00,,---,0.00,VWS V14.01,2013-01-20 13:34:00,
2013-01-20 08:35:00,43.5,31.4,29.86,SSW,197,0.0,1.0,62,0.00,,---,0.00,VWS V14.01,2013-01-20 13:35:00,
2013-01-20 08:36:00,43.6,31.5,29.86,SW,228,3.0,3.0,62,0.00,,---,0.00,VWS V14.01,2013-01-20 13:36:00,
2013-01-20 08:37:00,43.6,31.0,29.85,SW,227,4.0,5.0,61,0.00,,---,0.00,VWS V14.01,2013-01-20 13:37:00,
2013-01-20 08:38:00,43.6,31.0,29.85,SW,227,4.0,5.0,61,0.00,,---,0.00,VWS V14.01,2013-01-20 13:38:00,
2013-01-20 08:39:00,43.7,31.5,29.86,SW,227,1.0,2.0,62,0.00,,---,0.00,VWS V14.01,2013-01-20 13:39:00,
2013-01-20 08:40:00,43.8,31.6,29.86,SSW,200,2.0,4.0,62,0.00,,---,0.00,VWS V14.01,2013-01-20 13:40:00,
2013-01-20 08:42:00,44.0,31.4,29.86,SSW,200,0.0,2.0,61,0.00,,---,0.00,VWS V14.01,2013-01-20 13:42:00,
2013-01-20 08:43:00,44.0,31.4,29.86,SSW,200,1.0,2.0,61,0.00,,---,0.00,VWS V14.01,2013-01-20 13:43:00,
2013-01-20 08:44:00,44.1,31.5,29.86,South,190,1.0,4.0,61,0.00,,---,0.00,VWS V14.01,2013-01-20 13:44:00,
2013-01-20 08:45:00,44.2,31.6,29.86,South,190,2.0,2.0,61,0.00,,---,0.00,VWS V14.01,2013-01-20 13:45:00,
2013-01-20 08:46:00,44.3,31.7,29.86,South,190,1.0,2.0,61,0.00,,---,0.00,VWS V14.01,2013-01-20 13:46:00,
2013-01-20 08:47:00,44.3,31.7,29.86,South,190,1.0,3.0,61,0.00,,---,0.00,VWS V14.01,2013-01-20 13:47:00,
2013-01-20 08:48:00,44.3,31.7,29.86,South,190,0.0,3.0,61,0.00,,---,0.00,VWS V14.01,2013-01-20 13:48:00,
2013-01-20 08:49:00,44.5,31.9,29.86,South,190,4.0,4.0,61,0.00,,---,0.00,VWS V14.01,2013-01-20 13:49:00,
2013-01-20 08:50:00,44.6,31.6,29.86,South,190,1.0,5.0,60,0.00,,---,0.00,VWS V14.01,2013-01-20 13:50:00,
2013-01-20 08:51:00,44.6,31.6,29.86,WSW,242,2.0,4.0,60,0.00,,---,0.00,VWS V14.01,2013-01-20 13:51:00,
2013-01-20 08:52:00,44.7,31.7,29.86,SSW,211,0.0,2.0,60,0.00,,---,0.00,VWS V14.01,2013-01-20 13:52:00,
2013-01-20 08:53:00,44.7,31.7,29.86,SSW,211,1.0,2.0,60,0.00,,---,0.00,VWS V14.01,2013-01-20 13:53:00,
2013-01-20 08:54:00,44.9,31.9,29.87,West,264,2.0,2.0,60,0.00,,---,0.00,VWS V14.01,2013-01-20 13:54:00,
2013-01-20 08:55:00,44.9,31.9,29.86,South,178,4.0,5.0,60,0.00,,---,0.00,VWS V14.01,2013-01-20 13:55:00,
2013-01-20 08:56:00,45.0,32.0,29.86,South,178,2.0,4.0,60,0.00,,---,0.00,VWS V14.01,2013-01-20 13:56:00,
2013-01-20 08:57:00,45.1,32.1,29.86,WSW,240,1.0,5.0,60,0.00,,---,0.00,VWS V14.01,2013-01-20 13:57:00,
2013-01-20 08:58:00,45.1,32.1,29.86,WSW,240,1.0,5.0,60,0.00,,---,0.00,VWS V14.01,2013-01-20 13:58:00,
2013-01-20 08:59:00,45.2,31.7,29.86,WNW,289,2.0,4.0,59,0.00,,---,0.00,VWS V14.01,2013-01-20 13:59:00,
2013-01-20 09:00:00,45.3,31.8,29.86,SW,236,6.0,6.0,59,0.00,,---,0.00,VWS V14.01,2013-01-20 14:00:00,
2013-01-20 09:01:00,45.4,31.9,29.87,WSW,252,4.0,7.0,59,0.00,,---,0.00,VWS V14.01,2013-01-20 14:01:00,
2013-01-20 09:02:00,45.4,31.9,29.86,SW,228,5.0,5.0,59,0.00,,---,0.00,VWS V14.01,2013-01-20 14:02:00,
2013-01-20 09:03:00,45.4,31.9,29.86,SW,227,5.0,5.0,59,0.00,,---,0.00,VWS V14.01,2013-01-20 14:03:00,
2013-01-20 09:04:00,45.6,32.1,29.86,SSW,212,1.0,4.0,59,0.00,,---,0.00,VWS V14.01,2013-01-20 14:04:00,
2013-01-20 09:05:00,45.6,32.1,29.87,SW,218,2.0,2.0,59,0.00,,---,0.00,VWS V14.01,2013-01-20 14:05:00,
2013-01-20 09:06:00,45.7,31.8,29.87,WSW,240,1.0,6.0,58,0.00,,---,0.00,VWS V14.01,2013-01-20 14:06:00,
2013-01-20 09:07:00,45.8,31.9,29.87,WSW,256,2.0,2.0,58,0.00,,---,0.00,VWS V14.01,2013-01-20 14:07:00,
2013-01-20 09:08:00,45.8,31.9,29.87,WSW,256,1.0,2.0,58,0.00,,---,0.00,VWS V14.01,2013-01-20 14:08:00,
2013-01-20 09:09:00,45.9,32.0,29.87,SSW,204,5.0,5.0,58,0.00,,---,0.00,VWS V14.01,2013-01-20 14:09:00,
2013-01-20 09:10:00,46.0,32.1,29.87,SSW,204,5.0,6.0,58,0.00,,---,0.00,VWS V14.01,2013-01-20 14:10:00,
2013-01-20 09:11:00,46.0,32.1,29.87,SSW,204,1.0,5.0,58,0.00,,---,0.00,VWS V14.01,2013-01-20 14:11:00,
2013-01-20 09:12:00,46.1,32.2,29.87,SSW,204,0.0,3.0,58,0.00,,---,0.00,VWS V14.01,2013-01-20 14:12:00,
2013-01-20 09:13:00,46.1,32.2,29.87,SSW,204,0.0,3.0,58,0.00,,---,0.00,VWS V14.01,2013-01-20 14:13:00,
2013-01-20 09:14:00,46.2,32.2,29.87,SSW,213,4.0,5.0,58,0.00,,---,0.00,VWS V14.01,2013-01-20 14:14:00,
2013-01-20 09:15:00,46.3,32.3,29.87,WSW,244,1.0,4.0,58,0.00,,---,0.00,VWS V14.01,2013-01-20 14:15:00,
2013-01-20 09:16:00,46.4,32.4,29.87,WSW,244,2.0,2.0,58,0.00,,---,0.00,VWS V14.01,2013-01-20 14:16:00,
2013-01-20 09:17:00,46.5,32.5,29.87,SSW,195,1.0,4.0,58,0.00,,---,0.00,VWS V14.01,2013-01-20 14:17:00,
2013-01-20 09:18:00,46.5,32.5,29.87,SSW,195,1.0,4.0,58,0.00,,---,0.00,VWS V14.01,2013-01-20 14:18:00,
2013-01-20 09:19:00,46.7,32.7,29.87,SW,223,0.0,2.0,58,0.00,,---,0.00,VWS V14.01,2013-01-20 14:19:00,
2013-01-20 09:20:00,46.8,32.8,29.87,SW,223,0.0,0.0,58,0.00,,---,0.00,VWS V14.01,2013-01-20 14:20:00,
2013-01-20 09:21:00,46.9,32.9,29.87,SW,223,0.0,3.0,58,0.00,,---,0.00,VWS V14.01,2013-01-20 14:21:00,
2013-01-20 09:22:00,47.0,33.0,29.87,South,179,0.0,2.0,58,0.00,,---,0.00,VWS V14.01,2013-01-20 14:22:00,
2013-01-20 09:23:00,47.0,33.0,29.87,South,179,1.0,2.0,58,0.00,,---,0.00,VWS V14.01,2013-01-20 14:23:00,
2013-01-20 09:24:00,47.2,32.8,29.87,South,178,1.0,6.0,57,0.00,,---,0.00,VWS V14.01,2013-01-20 14:24:00,
2013-01-20 09:25:00,47.3,32.4,29.87,SW,219,0.0,3.0,56,0.00,,---,0.00,VWS V14.01,2013-01-20 14:25:00,
2013-01-20 09:26:00,47.4,33.0,29.87,SW,219,1.0,2.0,57,0.00,,---,0.00,VWS V14.01,2013-01-20 14:26:00,
2013-01-20 09:27:00,47.4,33.0,29.87,SW,219,1.0,3.0,57,0.00,,---,0.00,VWS V14.01,2013-01-20 14:27:00,
2013-01-20 09:28:00,47.4,33.0,29.87,SW,220,1.0,3.0,57,0.00,,---,0.00,VWS V14.01,2013-01-20 14:28:00,
2013-01-20 09:29:00,47.6,32.7,29.87,WSW,252,2.0,3.0,56,0.00,,---,0.00,VWS V14.01,2013-01-20 14:29:00,
2013-01-20 09:30:00,47.7,32.8,29.87,WSW,252,0.0,2.0,56,0.00,,---,0.00,VWS V14.01,2013-01-20 14:30:00,
2013-01-20 09:31:00,47.8,32.9,29.87,SSE,154,2.0,5.0,56,0.00,,---,0.00,VWS V14.01,2013-01-20 14:31:00,
2013-01-20 09:32:00,47.9,33.0,29.87,WSW,252,2.0,4.0,56,0.00,,---,0.00,VWS V14.01,2013-01-20 14:32:00,
2013-01-20 09:33:00,47.9,33.0,29.87,WSW,252,2.0,4.0,56,0.00,,---,0.00,VWS V14.01,2013-01-20 14:33:00,
2013-01-20 09:34:00,48.1,33.2,29.87,WSW,240,2.0,4.0,56,0.00,,---,0.00,VWS V14.01,2013-01-20 14:34:00,
2013-01-20 09:35:00,48.2,33.3,29.87,WSW,250,0.0,4.0,56,0.00,,---,0.00,VWS V14.01,2013-01-20 14:35:00,
2013-01-20 09:36:00,48.3,33.3,29.87,SW,214,6.0,6.0,56,0.00,,---,0.00,VWS V14.01,2013-01-20 14:36:00,
2013-01-20 09:37:00,48.4,33.0,29.87,SSE,156,4.0,6.0,55,0.00,,---,0.00,VWS V14.01,2013-01-20 14:37:00,
2013-01-20 09:38:00,48.4,33.0,29.87,SSE,153,4.0,6.0,55,0.00,,---,0.00,VWS V14.01,2013-01-20 14:38:00,
2013-01-20 09:39:00,48.6,33.2,29.87,SSE,158,1.0,1.0,55,0.00,,---,0.00,VWS V14.01,2013-01-20 14:39:00,
2013-01-20 09:40:00,48.6,33.2,29.87,SSW,200,2.0,5.0,55,0.00,,---,0.00,VWS V14.01,2013-01-20 14:40:00,
2013-01-20 09:41:00,48.7,33.3,29.88,SSW,205,1.0,5.0,55,0.00,,---,0.00,VWS V14.01,2013-01-20 14:41:00,
2013-01-20 09:42:00,48.8,33.4,29.88,SSW,205,2.0,3.0,55,0.00,,---,0.00,VWS V14.01,2013-01-20 14:42:00,
2013-01-20 09:43:00,48.8,33.4,29.88,SSW,205,2.0,3.0,55,0.00,,---,0.00,VWS V14.01,2013-01-20 14:43:00,
2013-01-20 09:44:00,49.0,33.5,29.88,SW,218,2.0,2.0,55,0.00,,---,0.00,VWS V14.01,2013-01-20 14:44:00,
2013-01-20 09:45:00,49.1,33.2,29.88,WSW,243,4.0,4.0,54,0.00,,---,0.00,VWS V14.01,2013-01-20 14:45:00,
2013-01-20 09:46:00,49.1,33.2,29.88,West,281,1.0,6.0,54,0.00,,---,0.00,VWS V14.01,2013-01-20 14:46:00,
2013-01-20 09:47:00,49.2,33.3,29.88,SW,219,6.0,6.0,54,0.00,,---,0.00,VWS V14.01,2013-01-20 14:47:00,
2013-01-20 09:48:00,49.2,33.3,29.88,SW,219,6.0,6.0,54,0.00,,---,0.00,VWS V14.01,2013-01-20 14:48:00,
2013-01-20 09:49:00,49.4,33.5,29.88,SW,234,0.0,5.0,54,0.00,,---,0.00,VWS V14.01,2013-01-20 14:49:00,
2013-01-20 09:50:00,49.4,33.5,29.88,SW,234,5.0,5.0,54,0.00,,---,0.00,VWS V14.01,2013-01-20 14:50:00,
2013-01-20 09:51:00,49.5,33.6,29.88,WSW,258,6.0,6.0,54,0.00,,---,0.00,VWS V14.01,2013-01-20 14:51:00,
2013-01-20 09:52:00,49.5,33.1,29.88,West,279,2.0,6.0,53,0.00,,---,0.00,VWS V14.01,2013-01-20 14:52:00,
2013-01-20 09:53:00,49.5,33.1,29.88,West,279,2.0,6.0,53,0.00,,---,0.00,VWS V14.01,2013-01-20 14:53:00,
2013-01-20 09:54:00,49.6,33.2,29.88,WSW,244,5.0,6.0,53,0.00,,---,0.00,VWS V14.01,2013-01-20 14:54:00,
2013-01-20 09:55:00,49.7,33.8,29.88,WSW,248,2.0,5.0,54,0.00,,---,0.00,VWS V14.01,2013-01-20 14:55:00,
2013-01-20 09:56:00,49.7,33.8,29.88,SW,225,4.0,6.0,54,0.00,,---,0.00,VWS V14.01,2013-01-20 14:56:00,
2013-01-20 09:57:00,49.7,33.3,29.88,WSW,243,4.0,6.0,53,0.00,,---,0.00,VWS V14.01,2013-01-20 14:57:00,
2013-01-20 09:58:00,49.7,33.3,29.88,WSW,243,4.0,6.0,53,0.00,,---,0.00,VWS V14.01,2013-01-20 14:58:00,
2013-01-20 09:59:00,49.8,33.4,29.88,SSW,199,1.0,2.0,53,0.00,,---,0.00,VWS V14.01,2013-01-20 14:59:00,
2013-01-20 10:00:00,49.9,33.5,29.88,SW,234,1.0,5.0,53,0.00,,---,0.00,VWS V14.01,2013-01-20 15:00:00,
2013-01-20 10:01:00,49.9,33.5,29.88,West,259,2.0,6.0,53,0.00,,---,0.00,VWS V14.01,2013-01-20 15:01:00,
2013-01-20 10:02:00,49.9,33.5,29.88,WSW,258,2.0,4.0,53,0.00,,---,0.00,VWS V14.01,2013-01-20 15:02:00,
2013-01-20 10:03:00,49.9,33.5,29.88,WSW,258,2.0,4.0,53,0.00,,---,0.00,VWS V14.01,2013-01-20 15:03:00,
2013-01-20 10:04:00,50.0,33.6,29.88,SW,234,1.0,3.0,53,0.00,,---,0.00,VWS V14.01,2013-01-20 15:04:00,
2013-01-20 10:05:00,50.1,33.7,29.88,WSW,246,0.0,4.0,53,0.00,,---,0.00,VWS V14.01,2013-01-20 15:05:00,
2013-01-20 10:06:00,50.1,33.7,29.88,SW,228,2.0,2.0,53,0.00,,---,0.00,VWS V14.01,2013-01-20 15:06:00,
2013-01-20 10:07:00,50.2,33.7,29.88,South,189,2.0,5.0,53,0.00,,---,0.00,VWS V14.01,2013-01-20 15:07:00,
2013-01-20 10:08:00,50.2,33.7,29.88,South,189,2.0,5.0,53,0.00,,---,0.00,VWS V14.01,2013-01-20 15:08:00,
2013-01-20 10:09:00,50.4,33.9,29.88,SSW,206,4.0,6.0,53,0.00,,---,0.00,VWS V14.01,2013-01-20 15:09:00,
2013-01-20 10:10:00,50.4,33.9,29.88,SSW,212,4.0,7.0,53,0.00,,---,0.00,VWS V14.01,2013-01-20 15:10:00,
2013-01-20 10:11:00,50.5,34.0,29.88,West,276,1.0,4.0,53,0.00,,---,0.00,VWS V14.01,2013-01-20 15:11:00,
2013-01-20 10:12:00,50.5,34.0,29.88,West,271,2.0,3.0,53,0.00,,---,0.00,VWS V14.01,2013-01-20 15:12:00,
2013-01-20 10:13:00,50.5,34.0,29.88,West,271,2.0,3.0,53,0.00,,---,0.00,VWS V14.01,2013-01-20 15:13:00,
2013-01-20 10:14:00,50.6,34.1,29.88,WSW,244,2.0,4.0,53,0.00,,---,0.00,VWS V14.01,2013-01-20 15:14:00,
2013-01-20 10:15:00,50.7,34.2,29.88,SSW,204,6.0,6.0,53,0.00,,---,0.00,VWS V14.01,2013-01-20 15:15:00,
2013-01-20 10:16:00,50.7,34.2,29.87,SW,215,6.0,6.0,53,0.00,,---,0.00,VWS V14.01,2013-01-20 15:16:00,
2013-01-20 10:17:00,50.8,34.3,29.87,SW,225,1.0,6.0,53,0.00,,---,0.00,VWS V14.01,2013-01-20 15:17:00,
2013-01-20 10:18:00,50.8,34.3,29.87,SW,225,1.0,6.0,53,0.00,,---,0.00,VWS V14.01,2013-01-20 15:18:00,
2013-01-20 10:19:00,51.0,34.5,29.87,WSW,256,1.0,3.0,53,0.00,,---,0.00,VWS V14.01,2013-01-20 15:19:00,
2013-01-20 10:20:00,51.0,34.5,29.87,WSW,256,1.0,2.0,53,0.00,,---,0.00,VWS V14.01,2013-01-20 15:20:00,
2013-01-20 10:21:00,51.1,34.6,29.87,WSW,256,1.0,4.0,53,0.00,,---,0.00,VWS V14.01,2013-01-20 15:21:00,
2013-01-20 10:22:00,51.2,34.7,29.87,WSW,258,1.0,2.0,53,0.00,,---,0.00,VWS V14.01,2013-01-20 15:22:00,
2013-01-20 10:23:00,51.2,34.7,29.87,WSW,258,1.0,2.0,53,0.00,,---,0.00,VWS V14.01,2013-01-20 15:23:00,
2013-01-20 10:24:00,51.4,34.9,29.87,WSW,240,5.0,6.0,53,0.00,,---,0.00,VWS V14.01,2013-01-20 15:24:00,
2013-01-20 10:25:00,51.4,34.4,29.87,WSW,237,2.0,6.0,52,0.00,,---,0.00,VWS V14.01,2013-01-20 15:25:00,
2013-01-20 10:26:00,51.5,34.0,29.87,SSW,210,1.0,5.0,51,0.00,,---,0.00,VWS V14.01,2013-01-20 15:26:00,
2013-01-20 10:27:00,51.5,34.0,29.87,West,273,5.0,7.0,51,0.00,,---,0.00,VWS V14.01,2013-01-20 15:27:00,
2013-01-20 10:28:00,51.5,34.0,29.87,West,273,5.0,7.0,51,0.00,,---,0.00,VWS V14.01,2013-01-20 15:28:00,
2013-01-20 10:29:00,51.6,34.1,29.87,NW,308,1.0,4.0,51,0.00,,---,0.00,VWS V14.01,2013-01-20 15:29:00,
2013-01-20 10:30:00,51.6,34.1,29.87,WSW,255,4.0,6.0,51,0.00,,---,0.00,VWS V14.01,2013-01-20 15:30:00,
2013-01-20 10:31:00,51.7,34.2,29.87,WSW,250,2.0,5.0,51,0.00,,---,0.00,VWS V14.01,2013-01-20 15:31:00,
2013-01-20 10:32:00,51.7,34.2,29.87,WSW,237,2.0,2.0,51,0.00,,---,0.00,VWS V14.01,2013-01-20 15:32:00,
2013-01-20 10:33:00,51.7,34.2,29.87,WSW,237,2.0,2.0,51,0.00,,---,0.00,VWS V14.01,2013-01-20 15:33:00,
2013-01-20 10:34:00,51.8,34.3,29.87,West,279,1.0,2.0,51,0.00,,---,0.00,VWS V14.01,2013-01-20 15:34:00,
2013-01-20 10:35:00,51.8,34.3,29.87,SSW,207,2.0,4.0,51,0.00,,---,0.00,VWS V14.01,2013-01-20 15:35:00,
2013-01-20 10:36:00,51.9,34.4,29.87,SSW,208,2.0,2.0,51,0.00,,---,0.00,VWS V14.01,2013-01-20 15:36:00,
2013-01-20 10:37:00,51.9,34.4,29.87,SSW,199,5.0,6.0,51,0.00,,---,0.00,VWS V14.01,2013-01-20 15:37:00,
2013-01-20 10:38:00,51.9,34.4,29.87,SSW,199,5.0,6.0,51,0.00,,---,0.00,VWS V14.01,2013-01-20 15:38:00,
2013-01-20 10:39:00,52.0,34.5,29.87,SW,228,1.0,4.0,51,0.00,,---,0.00,VWS V14.01,2013-01-20 15:39:00,
2013-01-20 10:40:00,52.0,34.9,29.87,SW,228,1.0,2.0,52,0.00,,---,0.00,VWS V14.01,2013-01-20 15:40:00,
2013-01-20 10:41:00,52.1,34.5,29.87,SW,234,1.0,5.0,51,0.00,,---,0.00,VWS V14.01,2013-01-20 15:41:00,
2013-01-20 10:42:00,52.1,34.5,29.87,SW,234,0.0,2.0,51,0.00,,---,0.00,VWS V14.01,2013-01-20 15:42:00,
2013-01-20 10:43:00,52.1,34.5,29.87,SW,234,0.0,2.0,51,0.00,,---,0.00,VWS V14.01,2013-01-20 15:43:00,
2013-01-20 10:44:00,52.2,34.6,29.87,West,261,4.0,6.0,51,0.00,,---,0.00,VWS V14.01,2013-01-20 15:44:00,
2013-01-20 10:45:00,52.3,34.2,29.87,West,267,0.0,4.0,50,0.00,,---,0.00,VWS V14.01,2013-01-20 15:45:00,
2013-01-20 10:46:00,52.3,34.2,29.86,West,273,1.0,2.0,50,0.00,,---,0.00,VWS V14.01,2013-01-20 15:46:00,
2013-01-20 10:47:00,52.4,34.3,29.86,West,269,2.0,2.0,50,0.00,,---,0.00,VWS V14.01,2013-01-20 15:47:00,
2013-01-20 10:48:00,52.4,34.3,29.86,West,269,2.0,2.0,50,0.00,,---,0.00,VWS V14.01,2013-01-20 15:48:00,
2013-01-20 10:49:00,52.5,34.9,29.86,West,259,0.0,2.0,51,0.00,,---,0.00,VWS V14.01,2013-01-20 15:49:00,
2013-01-20 10:50:00,52.6,35.0,29.86,WSW,242,2.0,4.0,51,0.00,,---,0.00,VWS V14.01,2013-01-20 15:50:00,
2013-01-20 10:51:00,52.6,34.5,29.86,WSW,255,0.0,4.0,50,0.00,,---,0.00,VWS V14.01,2013-01-20 15:51:00,
2013-01-20 10:52:00,52.7,34.6,29.86,WSW,246,2.0,5.0,50,0.00,,---,0.00,VWS V14.01,2013-01-20 15:52:00,
2013-01-20 10:53:00,52.7,34.6,29.86,WSW,246,2.0,5.0,50,0.00,,---,0.00,VWS V14.01,2013-01-20 15:53:00,
2013-01-20 10:54:00,52.8,34.2,29.86,WSW,244,2.0,5.0,49,0.00,,---,0.00,VWS V14.01,2013-01-20 15:54:00,
2013-01-20 10:55:00,52.8,34.7,29.86,SW,217,3.0,5.0,50,0.00,,---,0.00,VWS V14.01,2013-01-20 15:55:00,
2013-01-20 10:56:00,52.9,34.8,29.86,SW,223,6.0,6.0,50,0.00,,---,0.00,VWS V14.01,2013-01-20 15:56:00,
2013-01-20 10:57:00,52.9,34.8,29.86,WNW,282,2.0,7.0,50,0.00,,---,0.00,VWS V14.01,2013-01-20 15:57:00,
2013-01-20 10:58:00,52.9,34.8,29.86,WNW,282,2.0,7.0,50,0.00,,---,0.00,VWS V14.01,2013-01-20 15:58:00,
2013-01-20 10:59:00,53.0,34.4,29.86,SSW,200,4.0,6.0,49,0.00,,---,0.00,VWS V14.01,2013-01-20 15:59:00,
2013-01-20 11:00:00,53.1,34.5,29.86,West,273,0.0,5.0,49,0.00,,---,0.00,VWS V14.01,2013-01-20 16:00:00,
2013-01-20 11:01:00,53.1,34.5,29.86,West,281,1.0,5.0,49,0.00,,---,0.00,VWS V14.01,2013-01-20 16:01:00,
2013-01-20 11:02:00,53.2,34.5,29.86,SSW,208,1.0,4.0,49,0.00,,---,0.00,VWS V14.01,2013-01-20 16:02:00,
2013-01-20 11:03:00,53.2,34.5,29.86,SSW,208,1.0,4.0,49,0.00,,---,0.00,VWS V14.01,2013-01-20 16:03:00,
2013-01-20 11:04:00,53.3,34.7,29.86,WSW,256,5.0,6.0,49,0.00,,---,0.00,VWS V14.01,2013-01-20 16:04:00,
2013-01-20 11:05:00,53.4,34.7,29.86,SW,217,1.0,5.0,49,0.00,,---,0.00,VWS V14.01,2013-01-20 16:05:00,
2013-01-20 11:06:00,53.4,34.7,29.86,SW,236,5.0,8.0,49,0.00,,---,0.00,VWS V14.01,2013-01-20 16:06:00,
2013-01-20 11:07:00,53.5,34.8,29.86,West,275,4.0,5.0,49,0.00,,---,0.00,VWS V14.01,2013-01-20 16:07:00,
2013-01-20 11:08:00,53.5,34.8,29.86,West,275,4.0,5.0,49,0.00,,---,0.00,VWS V14.01,2013-01-20 16:08:00,
2013-01-20 11:09:00,53.6,34.4,29.86,West,265,1.0,7.0,48,0.00,,---,0.00,VWS V14.01,2013-01-20 16:09:00,
2013-01-20 11:10:00,53.7,34.5,29.86,SW,219,7.0,7.0,48,0.00,,---,0.00,VWS V14.01,2013-01-20 16:10:00,
2013-01-20 11:11:00,53.7,34.5,29.85,SW,226,3.0,9.0,48,0.00,,---,0.00,VWS V14.01,2013-01-20 16:11:00,
2013-01-20 11:12:00,53.7,34.5,29.86,West,267,4.0,7.0,48,0.00,,---,0.00,VWS V14.01,2013-01-20 16:12:00,
2013-01-20 11:13:00,53.7,34.5,29.86,West,267,4.0,7.0,48,0.00,,---,0.00,VWS V14.01,2013-01-20 16:13:00,
2013-01-20 11:14:00,53.8,34.6,29.86,WSW,240,2.0,7.0,48,0.00,,---,0.00,VWS V14.01,2013-01-20 16:14:00,
2013-01-20 11:15:00,53.8,34.6,29.85,WSW,254,1.0,4.0,48,0.00,,---,0.00,VWS V14.01,2013-01-20 16:15:00,
2013-01-20 11:16:00,53.9,34.7,29.85,SW,232,4.0,4.0,48,0.00,,---,0.00,VWS V14.01,2013-01-20 16:16:00,
2013-01-20 11:17:00,53.9,34.7,29.85,WSW,257,1.0,5.0,48,0.00,,---,0.00,VWS V14.01,2013-01-20 16:17:00,
2013-01-20 11:18:00,53.9,34.7,29.85,WSW,257,1.0,5.0,48,0.00,,---,0.00,VWS V14.01,2013-01-20 16:18:00,
2013-01-20 11:19:00,54.1,34.9,29.85,WSW,238,3.0,5.0,48,0.00,,---,0.00,VWS V14.01,2013-01-20 16:19:00,
2013-01-20 11:20:00,54.1,34.9,29.85,WSW,238,3.0,3.0,48,0.00,,---,0.00,VWS V14.01,2013-01-20 16:20:00,
2013-01-20 11:21:00,54.2,35.0,29.85,WSW,245,2.0,6.0,48,0.00,,---,0.00,VWS V14.01,2013-01-20 16:21:00,
2013-01-20 11:22:00,54.3,35.0,29.85,SSW,206,1.0,5.0,48,0.00,,---,0.00,VWS V14.01,2013-01-20 16:22:00,
2013-01-20 11:23:00,54.3,35.0,29.85,SSW,206,1.0,5.0,48,0.00,,---,0.00,VWS V14.01,2013-01-20 16:23:00,
2013-01-20 11:24:00,54.4,35.1,29.85,WNW,298,3.0,4.0,48,0.00,,---,0.00,VWS V14.01,2013-01-20 16:24:00,
2013-01-20 11:25:00,54.5,35.2,29.85,WSW,250,1.0,6.0,48,0.00,,---,0.00,VWS V14.01,2013-01-20 16:25:00,
2013-01-20 11:26:00,54.6,35.3,29.85,WSW,254,2.0,4.0,48,0.00,,---,0.00,VWS V14.01,2013-01-20 16:26:00,
2013-01-20 11:27:00,54.7,34.9,29.85,WNW,284,1.0,4.0,47,0.00,,---,0.00,VWS V14.01,2013-01-20 16:27:00,
2013-01-20 11:28:00,54.7,34.9,29.85,WNW,284,1.0,4.0,47,0.00,,---,0.00,VWS V14.01,2013-01-20 16:28:00,
2013-01-20 11:29:00,54.8,35.0,29.85,West,266,1.0,3.0,47,0.00,,---,0.00,VWS V14.01,2013-01-20 16:29:00,
2013-01-20 11:30:00,54.8,35.5,29.85,South,169,3.0,4.0,48,0.00,,---,0.00,VWS V14.01,2013-01-20 16:30:00,
2013-01-20 11:31:00,54.9,35.6,29.85,WNW,290,5.0,5.0,48,0.00,,---,0.00,VWS V14.01,2013-01-20 16:31:00,
2013-01-20 11:32:00,55.0,35.2,29.85,West,266,1.0,6.0,47,0.00,,---,0.00,VWS V14.01,2013-01-20 16:32:00,
2013-01-20 11:33:00,55.0,35.2,29.85,West,266,1.0,6.0,47,0.00,,---,0.00,VWS V14.01,2013-01-20 16:33:00,
2013-01-20 11:34:00,55.1,35.2,29.85,WSW,248,2.0,4.0,47,0.00,,---,0.00,VWS V14.01,2013-01-20 16:34:00,
2013-01-20 11:35:00,55.2,35.3,29.85,West,259,2.0,3.0,47,0.00,,---,0.00,VWS V14.01,2013-01-20 16:35:00,
2013-01-20 11:36:00,55.3,35.4,29.84,West,267,4.0,7.0,47,0.00,,---,0.00,VWS V14.01,2013-01-20 16:36:00,
2013-01-20 11:37:00,55.4,35.0,29.85,SW,219,5.0,7.0,46,0.00,,---,0.00,VWS V14.01,2013-01-20 16:37:00,
2013-01-20 11:38:00,55.4,35.0,29.85,SW,219,5.0,7.0,46,0.00,,---,0.00,VWS V14.01,2013-01-20 16:38:00,
2013-01-20 11:39:00,55.5,35.1,29.84,West,272,5.0,6.0,46,0.00,,---,0.00,VWS V14.01,2013-01-20 16:39:00,
2013-01-20 11:40:00,55.5,35.1,29.84,West,271,5.0,5.0,46,0.00,,---,0.00,VWS V14.01,2013-01-20 16:40:00,
2013-01-20 11:41:00,55.5,35.1,29.84,West,267,4.0,5.0,46,0.00,,---,0.00,VWS V14.01,2013-01-20 16:41:00,
2013-01-20 11:42:00,55.5,35.1,29.84,SW,230,4.0,6.0,46,0.00,,---,0.00,VWS V14.01,2013-01-20 16:42:00,
2013-01-20 11:43:00,55.5,35.1,29.84,SW,230,4.0,6.0,46,0.00,,---,0.00,VWS V14.01,2013-01-20 16:43:00,
2013-01-20 11:44:00,55.6,35.2,29.84,SSW,210,2.0,5.0,46,0.00,,---,0.00,VWS V14.01,2013-01-20 16:44:00,
2013-01-20 11:45:00,55.6,35.2,29.84,SW,224,3.0,4.0,46,0.00,,---,0.00,VWS V14.01,2013-01-20 16:45:00,
2013-01-20 11:46:00,55.6,34.6,29.84,WSW,245,3.0,6.0,45,0.00,,---,0.00,VWS V14.01,2013-01-20 16:46:00,
2013-01-20 11:47:00,55.7,35.3,29.84,West,281,1.0,4.0,46,0.00,,---,0.00,VWS V14.01,2013-01-20 16:47:00,
2013-01-20 11:48:00,55.7,35.3,29.84,West,281,1.0,4.0,46,0.00,,---,0.00,VWS V14.01,2013-01-20 16:48:00,
2013-01-20 11:49:00,55.8,35.3,29.84,SW,233,4.0,4.0,46,0.00,,---,0.00,VWS V14.01,2013-01-20 16:49:00,
2013-01-20 11:50:00,55.8,35.3,29.84,SW,218,2.0,4.0,46,0.00,,---,0.00,VWS V14.01,2013-01-20 16:50:00,
2013-01-20 11:51:00,55.8,35.3,29.84,WSW,238,5.0,5.0,46,0.00,,---,0.00,VWS V14.01,2013-01-20 16:51:00,
2013-01-20 11:52:00,55.9,35.4,29.84,WSW,244,4.0,5.0,46,0.00,,---,0.00,VWS V14.01,2013-01-20 16:52:00,
2013-01-20 11:53:00,55.9,35.4,29.84,WSW,244,4.0,5.0,46,0.00,,---,0.00,VWS V14.01,2013-01-20 16:53:00,
2013-01-20 11:54:00,56.0,35.5,29.84,SW,219,2.0,3.0,46,0.00,,---,0.00,VWS V14.01,2013-01-20 16:54:00,
2013-01-20 11:55:00,56.1,35.6,29.84,SW,223,6.0,6.0,46,0.00,,---,0.00,VWS V14.01,2013-01-20 16:55:00,
2013-01-20 11:56:00,56.1,35.6,29.84,WSW,253,5.0,6.0,46,0.00,,---,0.00,VWS V14.01,2013-01-20 16:56:00,
2013-01-20 11:57:00,56.2,35.2,29.84,WSW,246,1.0,7.0,45,0.00,,---,0.00,VWS V14.01,2013-01-20 16:57:00,
2013-01-20 11:58:00,56.2,35.2,29.84,WSW,246,1.0,7.0,45,0.00,,---,0.00,VWS V14.01,2013-01-20 16:58:00,
2013-01-20 11:59:00,56.2,35.7,29.84,WSW,237,5.0,5.0,46,0.00,,---,0.00,VWS V14.01,2013-01-20 16:59:00,
2013-01-20 12:00:00,56.3,35.2,29.83,SSW,201,4.0,6.0,45,0.00,,---,0.00,VWS V14.01,2013-01-20 17:00:00,
2013-01-20 12:01:00,56.3,35.2,29.84,SW,226,6.0,7.0,45,0.00,,---,0.00,VWS V14.01,2013-01-20 17:01:00,
2013-01-20 12:02:00,56.3,35.2,29.84,SW,225,3.0,6.0,45,0.00,,---,0.00,VWS V14.01,2013-01-20 17:02:00,
2013-01-20 12:03:00,56.3,35.2,29.84,SW,221,5.0,6.0,45,0.00,,---,0.00,VWS V14.01,2013-01-20 17:03:00,
2013-01-20 12:04:00,56.3,35.2,29.83,SSW,212,5.0,6.0,45,0.00,,---,0.00,VWS V14.01,2013-01-20 17:04:00,
2013-01-20 12:06:00,56.4,35.9,29.83,WSW,245,5.0,6.0,46,0.00,,---,0.00,VWS V14.01,2013-01-20 17:06:00,
2013-01-20 12:07:00,56.4,35.3,29.83,SW,216,5.0,5.0,45,0.00,,---,0.00,VWS V14.01,2013-01-20 17:07:00,
2013-01-20 12:08:00,56.4,35.3,29.83,SW,216,4.0,5.0,45,0.00,,---,0.00,VWS V14.01,2013-01-20 17:08:00,
2013-01-20 12:09:00,56.5,35.4,29.83,South,178,4.0,5.0,45,0.00,,---,0.00,VWS V14.01,2013-01-20 17:09:00,
2013-01-20 12:10:00,56.5,36.0,29.83,WNW,286,3.0,5.0,46,0.00,,---,0.00,VWS V14.01,2013-01-20 17:10:00,
2013-01-20 12:11:00,56.6,36.1,29.83,SSW,210,6.0,6.0,46,0.00,,---,0.00,VWS V14.01,2013-01-20 17:11:00,
2013-01-20 12:13:00,56.6,35.5,29.83,SSE,154,2.0,6.0,45,0.00,,---,0.00,VWS V14.01,2013-01-20 17:13:00,
2013-01-20 12:14:00,56.8,35.7,29.83,West,273,4.0,5.0,45,0.00,,---,0.00,VWS V14.01,2013-01-20 17:14:00,
2013-01-20 12:15:00,56.8,35.1,29.83,West,263,4.0,4.0,44,0.00,,---,0.00,VWS V14.01,2013-01-20 17:15:00,
2013-01-20 12:16:00,56.8,35.7,29.83,SW,220,5.0,5.0,45,0.00,,---,0.00,VWS V14.01,2013-01-20 17:16:00,
2013-01-20 12:17:00,56.9,35.8,29.83,SW,231,1.0,5.0,45,0.00,,---,0.00,VWS V14.01,2013-01-20 17:17:00,
2013-01-20 12:18:00,56.9,35.8,29.83,SW,231,0.0,5.0,45,0.00,,---,0.00,VWS V14.01,2013-01-20 17:18:00,
2013-01-20 12:19:00,57.0,35.9,29.83,West,277,4.0,5.0,45,0.00,,---,0.00,VWS V14.01,2013-01-20 17:19:00,
2013-01-20 12:20:00,57.1,35.4,29.83,WSW,250,2.0,4.0,44,0.00,,---,0.00,VWS V14.01,2013-01-20 17:20:00,
2013-01-20 12:21:00,57.1,36.0,29.83,SSW,202,3.0,5.0,45,0.00,,---,0.00,VWS V14.01,2013-01-20 17:21:00,
2013-01-20 12:22:00,57.2,36.1,29.83,SW,231,2.0,5.0,45,0.00,,---,0.00,VWS V14.01,2013-01-20 17:22:00,
2013-01-20 12:23:00,57.2,36.1,29.83,SW,228,2.0,5.0,45,0.00,,---,0.00,VWS V14.01,2013-01-20 17:23:00,
2013-01-20 12:24:00,57.3,36.2,29.83,West,268,2.0,5.0,45,0.00,,---,0.00,VWS V14.01,2013-01-20 17:24:00,
2013-01-20 12:25:00,57.4,35.7,29.82,WSW,256,5.0,5.0,44,0.00,,---,0.00,VWS V14.01,2013-01-20 17:25:00,
2013-01-20 12:26:00,57.5,35.8,29.82,SW,236,1.0,5.0,44,0.00,,---,0.00,VWS V14.01,2013-01-20 17:26:00,
2013-01-20 12:27:00,57.5,36.3,29.82,WSW,251,5.0,5.0,45,0.00,,---,0.00,VWS V14.01,2013-01-20 17:27:00,
2013-01-20 12:28:00,57.5,36.3,29.82,SW,235,2.0,4.0,45,0.00,,---,0.00,VWS V14.01,2013-01-20 17:28:00,
2013-01-20 12:29:00,57.7,36.5,29.82,SW,221,6.0,6.0,45,0.00,,---,0.00,VWS V14.01,2013-01-20 17:29:00,
2013-01-20 12:30:00,57.7,36.0,29.82,West,259,3.0,6.0,44,0.00,,---,0.00,VWS V14.01,2013-01-20 17:30:00,
2013-01-20 12:31:00,57.7,36.0,29.82,NW,309,1.0,3.0,44,0.00,,---,0.00,VWS V14.01,2013-01-20 17:31:00,
2013-01-20 12:32:00,57.8,34.9,29.82,SW,219,3.0,6.0,42,0.00,,---,0.00,VWS V14.01,2013-01-20 17:32:00,
2013-01-20 12:33:00,57.8,34.9,29.82,NW,311,4.0,6.0,42,0.00,,---,0.00,VWS V14.01,2013-01-20 17:33:00,
2013-01-20 12:34:00,57.8,34.9,29.82,NNW,329,3.0,7.0,42,0.00,,---,0.00,VWS V14.01,2013-01-20 17:34:00,
2013-01-20 12:35:00,57.8,35.5,29.82,WNW,284,4.0,9.0,43,0.00,,---,0.00,VWS V14.01,2013-01-20 17:35:00,
2013-01-20 12:36:00,57.8,34.9,29.82,NW,311,3.0,5.0,42,0.00,,---,0.00,VWS V14.01,2013-01-20 17:36:00,
2013-01-20 12:37:00,57.8,34.9,29.82,NNE,32,4.0,6.0,42,0.00,,---,0.00,VWS V14.01,2013-01-20 17:37:00,
2013-01-20 12:38:00,57.8,34.9,29.82,NNW,330,5.0,6.0,42,0.00,,---,0.00,VWS V14.01,2013-01-20 17:38:00,
2013-01-20 12:39:00,57.8,35.5,29.82,WSW,246,1.0,6.0,43,0.00,,---,0.00,VWS V14.01,2013-01-20 17:39:00,
2013-01-20 12:40:00,57.9,35.6,29.82,WSW,240,5.0,5.0,43,0.00,,---,0.00,VWS V14.01,2013-01-20 17:40:00,
2013-01-20 12:41:00,57.9,35.6,29.82,WSW,252,4.0,5.0,43,0.00,,---,0.00,VWS V14.01,2013-01-20 17:41:00,
2013-01-20 12:42:00,57.9,36.1,29.82,WSW,252,1.0,4.0,44,0.00,,---,0.00,VWS V14.01,2013-01-20 17:42:00,
2013-01-20 12:43:00,57.9,35.6,29.82,WSW,252,2.0,4.0,43,0.00,,---,0.00,VWS V14.01,2013-01-20 17:43:00,
2013-01-20 12:44:00,58.0,36.2,29.82,WSW,241,4.0,7.0,44,0.00,,---,0.00,VWS V14.01,2013-01-20 17:44:00,
2013-01-20 12:45:00,58.1,35.7,29.82,WSW,250,5.0,5.0,43,0.00,,---,0.00,VWS V14.01,2013-01-20 17:45:00,
2013-01-20 12:46:00,58.1,35.2,29.82,West,264,4.0,7.0,42,0.00,,---,0.00,VWS V14.01,2013-01-20 17:46:00,
2013-01-20 12:47:00,58.2,35.8,29.82,SSW,211,4.0,6.0,43,0.00,,---,0.00,VWS V14.01,2013-01-20 17:47:00,
2013-01-20 12:48:00,58.2,35.8,29.82,SSW,211,5.0,6.0,43,0.00,,---,0.00,VWS V14.01,2013-01-20 17:48:00,
2013-01-20 12:49:00,58.2,35.8,29.82,South,183,2.0,4.0,43,0.00,,---,0.00,VWS V14.01,2013-01-20 17:49:00,
2013-01-20 12:50:00,58.2,35.8,29.82,West,279,2.0,5.0,43,0.00,,---,0.00,VWS V14.01,2013-01-20 17:50:00,
2013-01-20 12:51:00,58.3,35.9,29.82,WNW,289,5.0,7.0,43,0.00,,---,0.00,VWS V14.01,2013-01-20 17:51:00,
2013-01-20 12:52:00,58.3,34.7,29.82,NW,315,5.0,7.0,41,0.00,,---,0.00,VWS V14.01,2013-01-20 17:52:00,
2013-01-20 12:53:00,58.3,34.7,29.82,West,261,6.0,7.0,41,0.00,,---,0.00,VWS V14.01,2013-01-20 17:53:00,
2013-01-20 12:54:00,58.4,34.2,29.82,SW,227,2.0,7.0,40,0.00,,---,0.00,VWS V14.01,2013-01-20 17:54:00,
2013-01-20 12:55:00,58.5,34.3,29.82,NNE,15,6.0,8.0,40,0.00,,---,0.00,VWS V14.01,2013-01-20 17:55:00,
2013-01-20 12:56:00,58.5,34.3,29.82,SW,236,7.0,7.0,40,0.00,,---,0.00,VWS V14.01,2013-01-20 17:56:00,
2013-01-20 12:57:00,58.5,34.3,29.82,West,265,3.0,8.0,40,0.00,,---,0.00,VWS V14.01,2013-01-20 17:57:00,
2013-01-20 12:58:00,58.5,34.3,29.82,WNW,282,6.0,8.0,40,0.00,,---,0.00,VWS V14.01,2013-01-20 17:58:00,
2013-01-20 12:59:00,58.4,34.2,29.82,West,259,6.0,7.0,40,0.00,,---,0.00,VWS V14.01,2013-01-20 17:59:00,
2013-01-20 13:00:00,58.4,33.6,29.82,SW,221,1.0,9.0,39,0.00,,---,0.00,VWS V14.01,2013-01-20 18:00:00,
2013-01-20 13:01:00,58.4,34.2,29.82,West,277,4.0,6.0,40,0.00,,---,0.00,VWS V14.01,2013-01-20 18:01:00,
2013-01-20 13:02:00,58.4,33.6,29.82,WSW,257,2.0,5.0,39,0.00,,---,0.00,VWS V14.01,2013-01-20 18:02:00,
2013-01-20 13:03:00,58.4,33.6,29.82,WSW,255,1.0,5.0,39,0.00,,---,0.00,VWS V14.01,2013-01-20 18:03:00,
2013-01-20 13:04:00,58.5,34.3,29.82,WSW,242,2.0,5.0,40,0.00,,---,0.00,VWS V14.01,2013-01-20 18:04:00,
2013-01-20 13:05:00,58.5,34.3,29.82,WSW,249,1.0,5.0,40,0.00,,---,0.00,VWS V14.01,2013-01-20 18:05:00,
2013-01-20 13:06:00,58.6,34.4,29.82,WSW,239,5.0,5.0,40,0.00,,---,0.00,VWS V14.01,2013-01-20 18:06:00,
2013-01-20 13:07:00,58.6,33.7,29.82,SW,222,3.0,5.0,39,0.00,,---,0.00,VWS V14.01,2013-01-20 18:07:00,
2013-01-20 13:08:00,58.6,33.7,29.82,SW,222,2.0,5.0,39,0.00,,---,0.00,VWS V14.01,2013-01-20 18:08:00,
2013-01-20 13:09:00,58.7,33.8,29.81,WSW,252,2.0,2.0,39,0.00,,---,0.00,VWS V14.01,2013-01-20 18:09:00,
2013-01-20 13:10:00,58.8,34.5,29.82,WSW,253,5.0,5.0,40,0.00,,---,0.00,VWS V14.01,2013-01-20 18:10:00,
2013-01-20 13:11:00,58.9,34.0,29.81,SW,223,5.0,8.0,39,0.00,,---,0.00,VWS V14.01,2013-01-20 18:11:00,
2013-01-20 13:12:00,58.9,34.0,29.81,West,278,7.0,8.0,39,0.00,,---,0.00,VWS V14.01,2013-01-20 18:12:00,
2013-01-20 13:13:00,58.9,34.0,29.81,WSW,250,8.0,8.0,39,0.00,,---,0.00,VWS V14.01,2013-01-20 18:13:00,
2013-01-20 13:14:00,59.0,33.5,29.81,WNW,288,5.0,5.0,38,0.00,,---,0.00,VWS V14.01,2013-01-20 18:14:00,
2013-01-20 13:15:00,59.0,34.1,29.81,WSW,248,4.0,6.0,39,0.00,,---,0.00,VWS V14.01,2013-01-20 18:15:00,
2013-01-20 13:16:00,59.1,34.2,29.81,West,271,2.0,5.0,39,0.00,,---,0.00,VWS V14.01,2013-01-20 18:16:00,
2013-01-20 13:17:00,59.1,34.8,29.81,West,271,1.0,3.0,40,0.00,,---,0.00,VWS V14.01,2013-01-20 18:17:00,
2013-01-20 13:18:00,59.1,34.2,29.81,West,271,1.0,3.0,39,0.00,,---,0.00,VWS V14.01,2013-01-20 18:18:00,
2013-01-20 13:19:00,59.2,34.9,29.81,WSW,240,3.0,4.0,40,0.00,,---,0.00,VWS V14.01,2013-01-20 18:19:00,
2013-01-20 13:20:00,59.3,35.0,29.82,NNW,337,4.0,4.0,40,0.00,,---,0.00,VWS V14.01,2013-01-20 18:20:00,
2013-01-20 13:21:00,59.3,34.4,29.82,SW,215,3.0,4.0,39,0.00,,---,0.00,VWS V14.01,2013-01-20 18:21:00,
2013-01-20 13:22:00,59.4,35.1,29.82,SW,230,3.0,6.0,40,0.00,,---,0.00,VWS V14.01,2013-01-20 18:22:00,
2013-01-20 13:23:00,59.4,35.1,29.82,SW,230,5.0,6.0,40,0.00,,---,0.00,VWS V14.01,2013-01-20 18:23:00,
2013-01-20 13:24:00,59.4,33.8,29.82,WSW,257,3.0,5.0,38,0.00,,---,0.00,VWS V14.01,2013-01-20 18:24:00,
2013-01-20 13:25:00,59.4,33.8,29.82,WSW,251,1.0,5.0,38,0.00,,---,0.00,VWS V14.01,2013-01-20 18:25:00,
2013-01-20 13:26:00,59.5,34.5,29.82,SSE,158,3.0,5.0,39,0.00,,---,0.00,VWS V14.01,2013-01-20 18:26:00,
2013-01-20 13:27:00,59.6,34.6,29.81,North,355,2.0,5.0,39,0.00,,---,0.00,VWS V14.01,2013-01-20 18:27:00,
2013-01-20 13:28:00,59.6,34.6,29.81,North,355,2.0,5.0,39,0.00,,---,0.00,VWS V14.01,2013-01-20 18:28:00,
2013-01-20 13:29:00,59.7,34.1,29.81,West,273,4.0,8.0,38,0.00,,---,0.00,VWS V14.01,2013-01-20 18:29:00,
2013-01-20 13:30:00,59.7,33.4,29.81,SW,235,5.0,7.0,37,0.00,,---,0.00,VWS V14.01,2013-01-20 18:30:00,
2013-01-20 13:31:00,59.7,33.4,29.82,WSW,242,4.0,6.0,37,0.00,,---,0.00,VWS V14.01,2013-01-20 18:31:00,
2013-01-20 13:32:00,59.8,33.5,29.81,WSW,249,2.0,6.0,37,0.00,,---,0.00,VWS V14.01,2013-01-20 18:32:00,
2013-01-20 13:33:00,59.8,33.5,29.81,WSW,249,2.0,6.0,37,0.00,,---,0.00,VWS V14.01,2013-01-20 18:33:00,
2013-01-20 13:34:00,59.8,32.8,29.81,West,271,5.0,9.0,36,0.00,,---,0.00,VWS V14.01,2013-01-20 18:34:00,
2013-01-20 13:35:00,59.7,32.7,29.82,SSW,208,5.0,8.0,36,0.00,,---,0.00,VWS V14.01,2013-01-20 18:35:00,
2013-01-20 13:36:00,59.7,33.4,29.81,SW,235,4.0,5.0,37,0.00,,---,0.00,VWS V14.01,2013-01-20 18:36:00,
2013-01-20 13:37:00,59.7,33.4,29.81,West,269,0.0,4.0,37,0.00,,---,0.00,VWS V14.01,2013-01-20 18:37:00,
2013-01-20 13:38:00,59.7,33.4,29.81,West,269,1.0,4.0,37,0.00,,---,0.00,VWS V14.01,2013-01-20 18:38:00,
2013-01-20 13:39:00,59.7,32.7,29.81,NW,315,5.0,5.0,36,0.00,,---,0.00,VWS V14.01,2013-01-20 18:39:00,
2013-01-20 13:40:00,59.6,32.6,29.81,WNW,282,6.0,7.0,36,0.00,,---,0.00,VWS V14.01,2013-01-20 18:40:00,
2013-01-20 13:41:00,59.6,32.6,29.82,SW,214,4.0,10.0,36,0.00,,---,0.00,VWS V14.01,2013-01-20 18:41:00,
2013-01-20 13:42:00,59.6,31.9,29.82,WNW,299,2.0,6.0,35,0.00,,---,0.00,VWS V14.01,2013-01-20 18:42:00,
2013-01-20 13:43:00,59.6,31.9,29.82,WNW,302,3.0,6.0,35,0.00,,---,0.00,VWS V14.01,2013-01-20 18:43:00,
2013-01-20 13:44:00,59.6,31.9,29.81,West,270,2.0,7.0,35,0.00,,---,0.00,VWS V14.01,2013-01-20 18:44:00,
2013-01-20 13:45:00,59.6,31.9,29.82,West,262,4.0,5.0,35,0.00,,---,0.00,VWS V14.01,2013-01-20 18:45:00,
2013-01-20 13:46:00,59.5,32.5,29.82,NW,304,3.0,7.0,36,0.00,,---,0.00,VWS V14.01,2013-01-20 18:46:00,
2013-01-20 13:47:00,59.5,32.5,29.82,WNW,293,2.0,5.0,36,0.00,,---,0.00,VWS V14.01,2013-01-20 18:47:00,
2013-01-20 13:48:00,59.5,32.5,29.82,WNW,293,2.0,5.0,36,0.00,,---,0.00,VWS V14.01,2013-01-20 18:48:00,
2013-01-20 13:49:00,59.5,32.5,29.82,WNW,290,1.0,6.0,36,0.00,,---,0.00,VWS V14.01,2013-01-20 18:49:00,
2013-01-20 13:50:00,59.5,32.5,29.82,West,261,5.0,8.0,36,0.00,,---,0.00,VWS V14.01,2013-01-20 18:50:00,
2013-01-20 13:51:00,59.6,31.9,29.82,NW,324,7.0,7.0,35,0.00,,---,0.00,VWS V14.01,2013-01-20 18:51:00,
2013-01-20 13:52:00,59.5,31.9,29.82,NNE,22,9.0,11.0,35,0.00,,---,0.00,VWS V14.01,2013-01-20 18:52:00,
2013-01-20 13:53:00,59.5,31.9,29.82,NNW,327,11.0,11.0,35,0.00,,---,0.00,VWS V14.01,2013-01-20 18:53:00,
2013-01-20 13:54:00,59.5,31.9,29.82,NW,309,0.0,4.0,35,0.00,,---,0.00,VWS V14.01,2013-01-20 18:54:00,
2013-01-20 13:55:00,59.5,31.9,29.82,NW,324,2.0,4.0,35,0.00,,---,0.00,VWS V14.01,2013-01-20 18:55:00,
2013-01-20 13:56:00,59.5,32.5,29.82,NW,323,5.0,8.0,36,0.00,,---,0.00,VWS V14.01,2013-01-20 18:56:00,
2013-01-20 13:57:00,59.4,31.8,29.82,NW,318,2.0,11.0,35,0.00,,---,0.00,VWS V14.01,2013-01-20 18:57:00,
2013-01-20 13:58:00,59.4,31.8,29.82,NW,313,1.0,11.0,35,0.00,,---,0.00,VWS V14.01,2013-01-20 18:58:00,
2013-01-20 13:59:00,59.4,32.5,29.82,WSW,246,3.0,4.0,36,0.00,,---,0.00,VWS V14.01,2013-01-20 18:59:00,
2013-01-20 14:00:00,59.4,31.8,29.82,NW,309,9.0,10.0,35,0.00,,---,0.00,VWS V14.01,2013-01-20 19:00:00,
2013-01-20 14:01:00,59.4,31.8,29.83,NNW,348,4.0,8.0,35,0.00,,---,0.00,VWS V14.01,2013-01-20 19:01:00,
2013-01-20 14:02:00,59.3,31.7,29.83,WSW,244,1.0,4.0,35,0.00,,---,0.00,VWS V14.01,2013-01-20 19:02:00,
2013-01-20 14:03:00,59.3,31.7,29.83,WSW,244,2.0,4.0,35,0.00,,---,0.00,VWS V14.01,2013-01-20 19:03:00,
2013-01-20 14:04:00,59.3,31.7,29.83,WSW,257,3.0,5.0,35,0.00,,---,0.00,VWS V14.01,2013-01-20 19:04:00,
2013-01-20 14:05:00,59.3,32.4,29.83,WNW,294,4.0,6.0,36,0.00,,---,0.00,VWS V14.01,2013-01-20 19:05:00,
2013-01-20 14:06:00,59.3,31.7,29.83,WNW,289,1.0,5.0,35,0.00,,---,0.00,VWS V14.01,2013-01-20 19:06:00,
2013-01-20 14:07:00,59.3,31.7,29.83,WNW,283,1.0,5.0,35,0.00,,---,0.00,VWS V14.01,2013-01-20 19:07:00,
2013-01-20 14:08:00,59.3,31.7,29.83,WNW,283,1.0,5.0,35,0.00,,---,0.00,VWS V14.01,2013-01-20 19:08:00,
2013-01-20 14:09:00,59.3,32.4,29.83,WSW,242,5.0,8.0,36,0.00,,---,0.00,VWS V14.01,2013-01-20 19:09:00,
2013-01-20 14:10:00,59.3,31.7,29.83,WSW,252,5.0,6.0,35,0.00,,---,0.00,VWS V14.01,2013-01-20 19:10:00,
2013-01-20 14:11:00,59.3,32.4,29.83,WSW,242,3.0,8.0,36,0.00,,---,0.00,VWS V14.01,2013-01-20 19:11:00,
2013-01-20 14:12:00,59.3,31.7,29.83,WSW,256,4.0,8.0,35,0.00,,---,0.00,VWS V14.01,2013-01-20 19:12:00,
2013-01-20 14:13:00,59.3,31.7,29.83,WSW,257,5.0,8.0,35,0.00,,---,0.00,VWS V14.01,2013-01-20 19:13:00,
2013-01-20 14:14:00,59.4,31.8,29.83,SW,225,3.0,6.0,35,0.00,,---,0.00,VWS V14.01,2013-01-20 19:14:00,
2013-01-20 14:15:00,59.4,31.8,29.83,NW,315,3.0,6.0,35,0.00,,---,0.00,VWS V14.01,2013-01-20 19:15:00,
2013-01-20 14:16:00,59.4,31.8,29.83,NNW,338,3.0,5.0,35,0.00,,---,0.00,VWS V14.01,2013-01-20 19:16:00,
2013-01-20 14:17:00,59.4,31.0,29.83,West,270,2.0,4.0,34,0.00,,---,0.00,VWS V14.01,2013-01-20 19:17:00,
2013-01-20 14:18:00,59.5,31.1,29.83,North,0,4.0,7.0,34,0.00,,---,0.00,VWS V14.01,2013-01-20 19:18:00,
2013-01-20 14:19:00,59.5,31.1,29.83,West,270,3.0,8.0,34,0.00,,---,0.00,VWS V14.01,2013-01-20 19:19:00,
2013-01-20 14:20:00,59.5,31.1,29.83,North,0,2.0,4.0,34,0.00,,---,0.00,VWS V14.01,2013-01-20 19:20:00,
2013-01-20 14:21:00,59.5,31.1,29.83,NW,315,1.0,4.0,34,0.00,,---,0.00,VWS V14.01,2013-01-20 19:21:00,
2013-01-20 14:22:00,59.5,31.1,29.83,NW,315,2.0,5.0,34,0.00,,---,0.00,VWS V14.01,2013-01-20 19:22:00,
2013-01-20 14:23:00,59.6,31.2,29.83,West,270,4.0,7.0,34,0.00,,---,0.00,VWS V14.01,2013-01-20 19:23:00,
2013-01-20 14:24:00,59.6,31.2,29.83,WNW,292,4.0,8.0,34,0.00,,---,0.00,VWS V14.01,2013-01-20 19:24:00,
2013-01-20 14:25:00,59.6,31.9,29.83,West,270,1.0,1.0,35,0.00,,---,0.00,VWS V14.01,2013-01-20 19:25:00,
2013-01-20 14:26:00,59.6,31.9,29.83,WSW,248,4.0,8.0,35,0.00,,---,0.00,VWS V14.01,2013-01-20 19:26:00,
2013-01-20 14:27:00,59.6,31.2,29.83,WNW,292,4.0,8.0,34,0.00,,---,0.00,VWS V14.01,2013-01-20 19:27:00,
2013-01-20 14:28:00,59.6,30.5,29.84,NW,315,5.0,8.0,33,0.00,,---,0.00,VWS V14.01,2013-01-20 19:28:00,
2013-01-20 14:29:00,59.5,31.1,29.84,WSW,248,4.0,9.0,34,0.00,,---,0.00,VWS V14.01,2013-01-20 19:29:00,
2013-01-20 14:30:00,59.4,31.0,29.84,West,270,3.0,6.0,34,0.00,,---,0.00,VWS V14.01,2013-01-20 19:30:00,
2013-01-20 14:31:00,59.4,31.0,29.83,West,270,2.0,5.0,34,0.00,,---,0.00,VWS V14.01,2013-01-20 19:31:00,
2013-01-20 14:32:00,59.4,31.0,29.84,WNW,292,1.0,4.0,34,0.00,,---,0.00,VWS V14.01,2013-01-20 19:32:00,
2013-01-20 14:33:00,59.3,31.7,29.84,NW,315,2.0,4.0,35,0.00,,---,0.00,VWS V14.01,2013-01-20 19:33:00,
2013-01-20 14:34:00,59.3,31.0,29.84,WSW,248,3.0,5.0,34,0.00,,---,0.00,VWS V14.01,2013-01-20 19:34:00,
2013-01-20 14:35:00,59.3,31.0,29.83,WNW,292,4.0,6.0,34,0.00,,---,0.00,VWS V14.01,2013-01-20 19:35:00,
2013-01-20 14:36:00,59.2,30.9,29.84,WSW,248,6.0,9.0,34,0.00,,---,0.00,VWS V14.01,2013-01-20 19:36:00,
2013-01-20 14:37:00,59.2,30.1,29.84,NW,315,4.0,7.0,33,0.00,,---,0.00,VWS V14.01,2013-01-20 19:37:00,
2013-01-20 14:38:00,59.1,30.8,29.84,WNW,292,4.0,6.0,34,0.00,,---,0.00,VWS V14.01,2013-01-20 19:38:00,
2013-01-20 14:39:00,59.0,30.7,29.84,West,270,3.0,5.0,34,0.00,,---,0.00,VWS V14.01,2013-01-20 19:39:00,
2013-01-20 14:40:00,59.0,30.7,29.84,West,270,1.0,2.0,34,0.00,,---,0.00,VWS V14.01,2013-01-20 19:40:00,
2013-01-20 14:41:00,59.0,30.7,29.84,West,270,2.0,4.0,34,0.00,,---,0.00,VWS V14.01,2013-01-20 19:41:00,
2013-01-20 14:42:00,58.9,30.6,29.84,North,0,5.0,10.0,34,0.00,,---,0.00,VWS V14.01,2013-01-20 19:42:00,
2013-01-20 14:43:00,58.8,30.5,29.84,NW,315,2.0,5.0,34,0.00,,---,0.00,VWS V14.01,2013-01-20 19:43:00,
2013-01-20 14:44:00,58.8,30.5,29.84,NW,315,3.0,6.0,34,0.00,,---,0.00,VWS V14.01,2013-01-20 19:44:00,
2013-01-20 14:45:00,58.7,30.4,29.84,WNW,292,3.0,5.0,34,0.00,,---,0.00,VWS V14.01,2013-01-20 19:45:00,
2013-01-20 14:46:00,58.7,30.4,29.84,North,0,3.0,4.0,34,0.00,,---,0.00,VWS V14.01,2013-01-20 19:46:00,
2013-01-20 14:47:00,58.6,30.3,29.84,NNW,338,5.0,8.0,34,0.00,,---,0.00,VWS V14.01,2013-01-20 19:47:00,
2013-01-20 14:48:00,58.6,29.6,29.84,WNW,292,5.0,7.0,33,0.00,,---,0.00,VWS V14.01,2013-01-20 19:48:00,
2013-01-20 14:49:00,58.5,30.2,29.84,NNW,338,2.0,4.0,34,0.00,,---,0.00,VWS V14.01,2013-01-20 19:49:00,
2013-01-20 14:50:00,58.5,31.0,29.84,SW,225,3.0,6.0,35,0.00,,---,0.00,VWS V14.01,2013-01-20 19:50:00,
2013-01-20 14:51:00,58.4,30.2,29.84,West,270,3.0,6.0,34,0.00,,---,0.00,VWS V14.01,2013-01-20 19:51:00,
2013-01-20 14:52:00,58.4,30.2,29.84,SW,225,2.0,5.0,34,0.00,,---,0.00,VWS V14.01,2013-01-20 19:52:00,
2013-01-20 14:53:00,58.4,30.2,29.85,WNW,292,3.0,7.0,34,0.00,,---,0.00,VWS V14.01,2013-01-20 19:53:00,
2013-01-20 14:54:00,58.4,30.2,29.85,West,270,5.0,8.0,34,0.00,,---,0.00,VWS V14.01,2013-01-20 19:54:00,
2013-01-20 14:55:00,58.3,30.1,29.85,WNW,292,4.0,6.0,34,0.00,,---,0.00,VWS V14.01,2013-01-20 19:55:00,
2013-01-20 14:56:00,58.4,30.2,29.85,SW,225,5.0,8.0,34,0.00,,---,0.00,VWS V14.01,2013-01-20 19:56:00,
2013-01-20 14:57:00,58.3,30.1,29.85,NNE,22,4.0,5.0,34,0.00,,---,0.00,VWS V14.01,2013-01-20 19:57:00,
2013-01-20 14:58:00,58.3,30.1,29.85,SW,225,2.0,5.0,34,0.00,,---,0.00,VWS V14.01,2013-01-20 19:58:00,
2013-01-20 14:59:00,58.3,30.1,29.85,SW,225,3.0,7.0,34,0.00,,---,0.00,VWS V14.01,2013-01-20 19:59:00,
2013-01-20 15:00:00,58.3,30.1,29.85,WNW,292,4.0,6.0,34,0.00,,---,0.00,VWS V14.01,2013-01-20 20:00:00,
2013-01-20 15:01:00,58.3,29.3,29.85,West,270,4.0,6.0,33,0.00,,---,0.00,VWS V14.01,2013-01-20 20:01:00,
2013-01-20 15:02:00,58.2,28.5,29.85,WNW,292,3.0,5.0,32,0.00,,---,0.00,VWS V14.01,2013-01-20 20:02:00,
2013-01-20 15:03:00,58.2,29.3,29.85,NW,315,1.0,2.0,33,0.00,,---,0.00,VWS V14.01,2013-01-20 20:03:00,
2013-01-20 15:04:00,58.2,29.3,29.85,West,270,1.0,3.0,33,0.00,,---,0.00,VWS V14.01,2013-01-20 20:04:00,
2013-01-20 15:05:00,58.2,29.3,29.85,NNE,22,3.0,5.0,33,0.00,,---,0.00,VWS V14.01,2013-01-20 20:05:00,
2013-01-20 15:06:00,58.2,30.0,29.85,NNE,22,2.0,5.0,34,0.00,,---,0.00,VWS V14.01,2013-01-20 20:06:00,
2013-01-20 15:07:00,58.2,28.5,29.85,NW,315,3.0,5.0,32,0.00,,---,0.00,VWS V14.01,2013-01-20 20:07:00,
2013-01-20 15:08:00,58.1,28.4,29.86,SSW,202,3.0,5.0,32,0.00,,---,0.00,VWS V14.01,2013-01-20 20:08:00,
2013-01-20 15:09:00,58.1,28.4,29.85,NNE,22,5.0,10.0,32,0.00,,---,0.00,VWS V14.01,2013-01-20 20:09:00,
2013-01-20 15:10:00,58.0,28.3,29.85,West,270,4.0,6.0,32,0.00,,---,0.00,VWS V14.01,2013-01-20 20:10:00,
2013-01-20 15:11:00,58.0,28.3,29.85,West,270,1.0,2.0,32,0.00,,---,0.00,VWS V14.01,2013-01-20 20:11:00,
2013-01-20 15:12:00,57.9,28.2,29.86,WSW,248,4.0,8.0,32,0.00,,---,0.00,VWS V14.01,2013-01-20 20:12:00,
2013-01-20 15:13:00,57.9,27.5,29.85,NW,315,2.0,5.0,31,0.00,,---,0.00,VWS V14.01,2013-01-20 20:13:00,
2013-01-20 15:14:00,57.9,27.5,29.86,NW,315,2.0,5.0,31,0.00,,---,0.00,VWS V14.01,2013-01-20 20:14:00,
2013-01-20 15:15:00,57.8,28.2,29.86,WNW,292,2.0,5.0,32,0.00,,---,0.00,VWS V14.01,2013-01-20 20:15:00,
2013-01-20 15:16:00,57.8,27.4,29.86,NW,315,1.0,4.0,31,0.00,,---,0.00,VWS V14.01,2013-01-20 20:16:00,
2013-01-20 15:17:00,57.8,27.4,29.86,West,270,2.0,7.0,31,0.00,,---,0.00,VWS V14.01,2013-01-20 20:17:00,
2013-01-20 15:18:00,57.8,27.4,29.86,West,270,1.0,5.0,31,0.00,,---,0.00,VWS V14.01,2013-01-20 20:18:00,
2013-01-20 15:19:00,57.8,27.4,29.86,NNW,338,4.0,7.0,31,0.00,,---,0.00,VWS V14.01,2013-01-20 20:19:00,
2013-01-20 15:20:00,57.8,26.6,29.86,NNW,338,2.0,6.0,30,0.00,,---,0.00,VWS V14.01,2013-01-20 20:20:00,
2013-01-20 15:21:00,57.8,25.8,29.86,North,0,5.0,9.0,29,0.00,,---,0.00,VWS V14.01,2013-01-20 20:21:00,
2013-01-20 15:22:00,57.7,25.7,29.86,West,270,3.0,7.0,29,0.00,,---,0.00,VWS V14.01,2013-01-20 20:22:00,
2013-01-20 15:23:00,57.7,25.7,29.86,NW,315,4.0,9.0,29,0.00,,---,0.00,VWS V14.01,2013-01-20 20:23:00,
2013-01-20 15:24:00,57.7,25.7,29.86,WNW,292,4.0,8.0,29,0.00,,---,0.00,VWS V14.01,2013-01-20 20:24:00,
2013-01-20 15:25:00,57.7,25.7,29.86,West,270,5.0,7.0,29,0.00,,---,0.00,VWS V14.01,2013-01-20 20:25:00,
2013-01-20 15:26:00,57.6,24.8,29.86,North,0,3.0,5.0,28,0.00,,---,0.00,VWS V14.01,2013-01-20 20:26:00,
2013-01-20 15:27:00,57.6,24.8,29.86,WSW,248,2.0,4.0,28,0.00,,---,0.00,VWS V14.01,2013-01-20 20:27:00,
2013-01-20 15:28:00,57.6,25.6,29.86,WNW,292,2.0,6.0,29,0.00,,---,0.00,VWS V14.01,2013-01-20 20:28:00,
2013-01-20 15:29:00,57.6,25.6,29.86,West,270,6.0,10.0,29,0.00,,---,0.00,VWS V14.01,2013-01-20 20:29:00,
2013-01-20 15:30:00,57.5,24.7,29.87,West,270,3.0,5.0,28,0.00,,---,0.00,VWS V14.01,2013-01-20 20:30:00,
2013-01-20 15:31:00,57.5,24.7,29.86,NNW,338,5.0,7.0,28,0.00,,---,0.00,VWS V14.01,2013-01-20 20:31:00,
2013-01-20 15:32:00,57.5,25.5,29.86,NW,315,2.0,3.0,29,0.00,,---,0.00,VWS V14.01,2013-01-20 20:32:00,
2013-01-20 15:33:00,57.4,24.6,29.87,West,270,5.0,7.0,28,0.00,,---,0.00,VWS V14.01,2013-01-20 20:33:00,
2013-01-20 15:34:00,57.4,24.6,29.87,WSW,248,3.0,5.0,28,0.00,,---,0.00,VWS V14.01,2013-01-20 20:34:00,
2013-01-20 15:35:00,57.4,24.6,29.87,WNW,292,1.0,2.0,28,0.00,,---,0.00,VWS V14.01,2013-01-20 20:35:00,
2013-01-20 15:36:00,57.3,24.5,29.87,WNW,292,3.0,6.0,28,0.00,,---,0.00,VWS V14.01,2013-01-20 20:36:00,
2013-01-20 15:37:00,57.3,25.3,29.87,WNW,292,3.0,7.0,29,0.00,,---,0.00,VWS V14.01,2013-01-20 20:37:00,
2013-01-20 15:38:00,57.3,24.5,29.87,NW,315,2.0,4.0,28,0.00,,---,0.00,VWS V14.01,2013-01-20 20:38:00,
2013-01-20 15:39:00,57.3,24.5,29.87,SW,225,3.0,5.0,28,0.00,,---,0.00,VWS V14.01,2013-01-20 20:39:00,
2013-01-20 15:40:00,57.3,24.5,29.88,NNE,22,3.0,6.0,28,0.00,,---,0.00,VWS V14.01,2013-01-20 20:40:00,
2013-01-20 15:41:00,57.3,25.3,29.88,WNW,292,2.0,4.0,29,0.00,,---,0.00,VWS V14.01,2013-01-20 20:41:00,
2013-01-20 15:42:00,57.3,24.5,29.87,WNW,292,3.0,9.0,28,0.00,,---,0.00,VWS V14.01,2013-01-20 20:42:00,
2013-01-20 15:43:00,57.2,24.4,29.87,WSW,248,3.0,6.0,28,0.00,,---,0.00,VWS V14.01,2013-01-20 20:43:00,
2013-01-20 15:44:00,57.2,24.4,29.87,West,270,6.0,12.0,28,0.00,,---,0.00,VWS V14.01,2013-01-20 20:44:00,
2013-01-20 15:45:00,57.1,24.3,29.87,WNW,292,3.0,5.0,28,0.00,,---,0.00,VWS V14.01,2013-01-20 20:45:00,
2013-01-20 15:46:00,57.1,24.3,29.87,WSW,248,4.0,7.0,28,0.00,,---,0.00,VWS V14.01,2013-01-20 20:46:00,
2013-01-20 15:47:00,57.0,24.2,29.87,West,270,2.0,5.0,28,0.00,,---,0.00,VWS V14.01,2013-01-20 20:47:00,
2013-01-20 15:48:00,57.0,25.1,29.87,WSW,248,2.0,4.0,29,0.00,,---,0.00,VWS V14.01,2013-01-20 20:48:00,
2013-01-20 15:49:00,56.9,25.0,29.88,West,270,4.0,8.0,29,0.00,,---,0.00,VWS V14.01,2013-01-20 20:49:00,
2013-01-20 15:50:00,56.9,25.0,29.87,WNW,292,1.0,4.0,29,0.00,,---,0.00,VWS V14.01,2013-01-20 20:50:00,
2013-01-20 15:51:00,56.9,25.0,29.88,WSW,248,3.0,6.0,29,0.00,,---,0.00,VWS V14.01,2013-01-20 20:51:00,
2013-01-20 15:52:00,56.8,24.9,29.87,WSW,248,5.0,7.0,29,0.00,,---,0.00,VWS V14.01,2013-01-20 20:52:00,
2013-01-20 15:53:00,56.8,24.9,29.87,WSW,248,2.0,4.0,29,0.00,,---,0.00,VWS V14.01,2013-01-20 20:53:00,
2013-01-20 15:54:00,56.8,24.9,29.88,NNW,338,0.0,2.0,29,0.00,,---,0.00,VWS V14.01,2013-01-20 20:54:00,
2013-01-20 15:55:00,56.7,25.6,29.88,WNW,292,2.0,4.0,30,0.00,,---,0.00,VWS V14.01,2013-01-20 20:55:00,
2013-01-20 15:56:00,56.7,25.6,29.88,WSW,248,2.0,4.0,30,0.00,,---,0.00,VWS V14.01,2013-01-20 20:56:00,
2013-01-20 15:57:00,56.6,25.5,29.88,NW,315,4.0,8.0,30,0.00,,---,0.00,VWS V14.01,2013-01-20 20:57:00,
2013-01-20 15:58:00,56.6,24.7,29.88,NW,315,2.0,3.0,29,0.00,,---,0.00,VWS V14.01,2013-01-20 20:58:00,
2013-01-20 15:59:00,56.5,24.6,29.88,NNW,338,5.0,8.0,29,0.00,,---,0.00,VWS V14.01,2013-01-20 20:59:00,
2013-01-20 16:00:00,56.4,25.4,29.88,SW,225,3.0,5.0,30,0.00,,---,0.00,VWS V14.01,2013-01-20 21:00:00,
2013-01-20 16:01:00,56.3,24.5,29.88,NW,315,5.0,8.0,29,0.00,,---,0.00,VWS V14.01,2013-01-20 21:01:00,
2013-01-20 16:02:00,56.3,25.3,29.88,NNE,22,2.0,3.0,30,0.00,,---,0.00,VWS V14.01,2013-01-20 21:02:00,
2013-01-20 16:03:00,56.2,25.2,29.88,West,270,2.0,5.0,30,0.00,,---,0.00,VWS V14.01,2013-01-20 21:03:00,
2013-01-20 16:04:00,56.2,25.2,29.88,West,270,5.0,8.0,30,0.00,,---,0.00,VWS V14.01,2013-01-20 21:04:00,
2013-01-20 16:05:00,56.1,25.1,29.88,NW,315,3.0,7.0,30,0.00,,---,0.00,VWS V14.01,2013-01-20 21:05:00,
2013-01-20 16:06:00,56.1,25.9,29.88,WNW,292,3.0,7.0,31,0.00,,---,0.00,VWS V14.01,2013-01-20 21:06:00,
2013-01-20 16:07:00,56.0,25.0,29.88,West,270,3.0,6.0,30,0.00,,---,0.00,VWS V14.01,2013-01-20 21:07:00,
2013-01-20 16:08:00,56.0,25.8,29.88,SSE,158,3.0,6.0,31,0.00,,---,0.00,VWS V14.01,2013-01-20 21:08:00,
2013-01-20 16:09:00,55.9,25.7,29.89,West,270,3.0,10.0,31,0.00,,---,0.00,VWS V14.01,2013-01-20 21:09:00,
2013-01-20 16:10:00,55.8,25.6,29.88,West,270,3.0,8.0,31,0.00,,---,0.00,VWS V14.01,2013-01-20 21:10:00,
2013-01-20 16:11:00,55.8,25.6,29.88,NW,315,2.0,3.0,31,0.00,,---,0.00,VWS V14.01,2013-01-20 21:11:00,
2013-01-20 16:12:00,55.7,25.5,29.88,NW,315,0.0,1.0,31,0.00,,---,0.00,VWS V14.01,2013-01-20 21:12:00,
2013-01-20 16:13:00,55.7,25.5,29.89,WNW,292,1.0,3.0,31,0.00,,---,0.00,VWS V14.01,2013-01-20 21:13:00,
2013-01-20 16:14:00,55.6,26.2,29.89,WNW,292,1.0,2.0,32,0.00,,---,0.00,VWS V14.01,2013-01-20 21:14:00,
2013-01-20 16:15:00,55.5,26.1,29.89,West,270,1.0,2.0,32,0.00,,---,0.00,VWS V14.01,2013-01-20 21:15:00,
2013-01-20 16:16:00,55.5,26.1,29.89,SW,225,1.0,2.0,32,0.00,,---,0.00,VWS V14.01,2013-01-20 21:16:00,
2013-01-20 16:17:00,55.5,26.1,29.89,WSW,248,1.0,2.0,32,0.00,,---,0.00,VWS V14.01,2013-01-20 21:17:00,
2013-01-20 16:18:00,55.5,26.1,29.89,WSW,248,1.0,5.0,32,0.00,,---,0.00,VWS V14.01,2013-01-20 21:18:00,
2013-01-20 16:19:00,55.4,25.3,29.89,WNW,292,4.0,6.0,31,0.00,,---,0.00,VWS V14.01,2013-01-20 21:19:00,
2013-01-20 16:20:00,55.4,26.0,29.89,NW,315,2.0,4.0,32,0.00,,---,0.00,VWS V14.01,2013-01-20 21:20:00,
2013-01-20 16:21:00,55.3,25.2,29.90,NW,315,2.0,4.0,31,0.00,,---,0.00,VWS V14.01,2013-01-20 21:21:00,
2013-01-20 16:22:00,55.3,25.2,29.89,West,270,2.0,5.0,31,0.00,,---,0.00,VWS V14.01,2013-01-20 21:22:00,
2013-01-20 16:23:00,55.3,25.2,29.89,West,270,2.0,5.0,31,0.00,,---,0.00,VWS V14.01,2013-01-20 21:23:00,
2013-01-20 16:24:00,55.2,25.1,29.90,WNW,292,2.0,4.0,31,0.00,,---,0.00,VWS V14.01,2013-01-20 21:24:00,
2013-01-20 16:25:00,55.1,25.0,29.90,WNW,292,2.0,5.0,31,0.00,,---,0.00,VWS V14.01,2013-01-20 21:25:00,
2013-01-20 16:26:00,55.1,24.2,29.90,NNW,338,1.0,4.0,30,0.00,,---,0.00,VWS V14.01,2013-01-20 21:26:00,
2013-01-20 16:27:00,55.1,25.0,29.90,North,0,2.0,5.0,31,0.00,,---,0.00,VWS V14.01,2013-01-20 21:27:00,
2013-01-20 16:28:00,55.0,24.2,29.90,NNW,338,1.0,4.0,30,0.00,,---,0.00,VWS V14.01,2013-01-20 21:28:00,
2013-01-20 16:29:00,55.0,24.2,29.90,SSW,202,2.0,4.0,30,0.00,,---,0.00,VWS V14.01,2013-01-20 21:29:00,
2013-01-20 16:30:00,55.0,25.7,29.90,North,0,2.0,5.0,32,0.00,,---,0.00,VWS V14.01,2013-01-20 21:30:00,
2013-01-20 16:31:00,54.9,24.1,29.90,NW,315,4.0,10.0,30,0.00,,---,0.00,VWS V14.01,2013-01-20 21:31:00,
2013-01-20 16:32:00,54.8,23.2,29.90,WNW,292,5.0,9.0,29,0.00,,---,0.00,VWS V14.01,2013-01-20 21:32:00,
2013-01-20 16:33:00,54.8,22.3,29.90,NNW,338,3.0,8.0,28,0.00,,---,0.00,VWS V14.01,2013-01-20 21:33:00,
2013-01-20 16:34:00,54.7,22.3,29.90,NNW,338,2.0,6.0,28,0.00,,---,0.00,VWS V14.01,2013-01-20 21:34:00,
2013-01-20 16:35:00,54.7,22.3,29.90,West,270,1.0,2.0,28,0.00,,---,0.00,VWS V14.01,2013-01-20 21:35:00,
2013-01-20 16:36:00,54.6,21.3,29.90,WSW,248,4.0,8.0,27,0.00,,---,0.00,VWS V14.01,2013-01-20 21:36:00,
2013-01-20 16:37:00,54.6,21.3,29.90,NW,315,6.0,9.0,27,0.00,,---,0.00,VWS V14.01,2013-01-20 21:37:00,
2013-01-20 16:38:00,54.5,21.2,29.90,SW,225,5.0,8.0,27,0.00,,---,0.00,VWS V14.01,2013-01-20 21:38:00,
2013-01-20 16:39:00,54.5,21.2,29.90,NW,315,3.0,5.0,27,0.00,,---,0.00,VWS V14.01,2013-01-20 21:39:00,
2013-01-20 16:40:00,54.4,22.0,29.90,North,0,2.0,5.0,28,0.00,,---,0.00,VWS V14.01,2013-01-20 21:40:00,
2013-01-20 16:41:00,54.4,22.0,29.90,West,270,6.0,10.0,28,0.00,,---,0.00,VWS V14.01,2013-01-20 21:41:00,
2013-01-20 16:42:00,54.3,21.9,29.90,WSW,248,3.0,6.0,28,0.00,,---,0.00,VWS V14.01,2013-01-20 21:42:00,
2013-01-20 16:43:00,54.3,21.9,29.91,WNW,292,1.0,3.0,28,0.00,,---,0.00,VWS V14.01,2013-01-20 21:43:00,
2013-01-20 16:44:00,54.3,21.9,29.91,WNW,292,2.0,5.0,28,0.00,,---,0.00,VWS V14.01,2013-01-20 21:44:00,
2013-01-20 16:45:00,54.2,21.8,29.91,SW,225,2.0,5.0,28,0.00,,---,0.00,VWS V14.01,2013-01-20 21:45:00,
2013-01-20 16:46:00,54.1,21.7,29.91,NW,315,4.0,9.0,28,0.00,,---,0.00,VWS V14.01,2013-01-20 21:46:00,
2013-01-20 16:47:00,54.1,21.7,29.91,NW,315,0.0,2.0,28,0.00,,---,0.00,VWS V14.01,2013-01-20 21:47:00,
2013-01-20 16:48:00,54.0,22.5,29.91,NW,315,1.0,4.0,29,0.00,,---,0.00,VWS V14.01,2013-01-20 21:48:00,
2013-01-20 16:49:00,54.0,21.6,29.92,West,270,3.0,6.0,28,0.00,,---,0.00,VWS V14.01,2013-01-20 21:49:00,
2013-01-20 16:50:00,53.9,21.6,29.91,WNW,292,2.0,5.0,28,0.00,,---,0.00,VWS V14.01,2013-01-20 21:50:00,
2013-01-20 16:51:00,53.8,21.5,29.92,SW,225,2.0,4.0,28,0.00,,---,0.00,VWS V14.01,2013-01-20 21:51:00,
2013-01-20 16:52:00,53.7,21.4,29.92,West,270,3.0,7.0,28,0.00,,---,0.00,VWS V14.01,2013-01-20 21:52:00,
2013-01-20 16:53:00,53.6,20.5,29.92,WNW,292,1.0,2.0,27,0.00,,---,0.00,VWS V14.01,2013-01-20 21:53:00,
2013-01-20 16:54:00,53.5,20.4,29.92,West,270,2.0,5.0,27,0.00,,---,0.00,VWS V14.01,2013-01-20 21:54:00,
2013-01-20 16:55:00,53.4,21.1,29.92,WSW,248,1.0,2.0,28,0.00,,---,0.00,VWS V14.01,2013-01-20 21:55:00,
2013-01-20 16:56:00,53.2,21.0,29.92,North,0,1.0,4.0,28,0.00,,---,0.00,VWS V14.01,2013-01-20 21:56:00,
2013-01-20 16:57:00,53.2,21.8,29.92,North,0,0.0,1.0,29,0.00,,---,0.00,VWS V14.01,2013-01-20 21:57:00,
2013-01-20 16:58:00,53.1,21.7,29.92,North,0,0.0,1.0,29,0.00,,---,0.00,VWS V14.01,2013-01-20 21:58:00,
2013-01-20 16:59:00,53.0,21.6,29.92,North,0,1.0,3.0,29,0.00,,---,0.00,VWS V14.01,2013-01-20 21:59:00,
2013-01-20 17:00:00,52.9,21.5,29.92,SW,225,2.0,4.0,29,0.00,,---,0.00,VWS V14.01,2013-01-20 22:00:00,
2013-01-20 17:01:00,52.7,21.4,29.93,SW,225,1.0,2.0,29,0.00,,---,0.00,VWS V14.01,2013-01-20 22:01:00,
2013-01-20 17:02:00,52.6,21.3,29.93,SSW,202,2.0,7.0,29,0.00,,---,0.00,VWS V14.01,2013-01-20 22:02:00,
2013-01-20 17:03:00,52.5,19.5,29.93,NNW,338,4.0,7.0,27,0.00,,---,0.00,VWS V14.01,2013-01-20 22:03:00,
2013-01-20 17:04:00,52.4,20.3,29.93,WNW,292,1.0,4.0,28,0.00,,---,0.00,VWS V14.01,2013-01-20 22:04:00,
2013-01-20 17:05:00,52.3,20.2,29.93,North,0,1.0,5.0,28,0.00,,---,0.00,VWS V14.01,2013-01-20 22:05:00,
2013-01-20 17:06:00,52.2,20.1,29.93,North,0,0.0,1.0,28,0.00,,---,0.00,VWS V14.01,2013-01-20 22:06:00,
2013-01-20 17:07:00,52.1,20.0,29.93,SW,225,1.0,6.0,28,0.00,,---,0.00,VWS V14.01,2013-01-20 22:07:00,
2013-01-20 17:08:00,52.0,19.9,29.93,WSW,248,2.0,5.0,28,0.00,,---,0.00,VWS V14.01,2013-01-20 22:08:00,
2013-01-20 17:09:00,51.9,19.8,29.93,NNE,22,2.0,5.0,28,0.00,,---,0.00,VWS V14.01,2013-01-20 22:09:00,
2013-01-20 17:10:00,51.8,19.8,29.93,NNE,22,0.0,0.0,28,0.00,,---,0.00,VWS V14.01,2013-01-20 22:10:00,
2013-01-20 17:11:00,51.7,19.7,29.93,NNW,338,0.0,1.0,28,0.00,,---,0.00,VWS V14.01,2013-01-20 22:11:00,
2013-01-20 17:12:00,51.6,19.6,29.93,NNW,338,1.0,2.0,28,0.00,,---,0.00,VWS V14.01,2013-01-20 22:12:00,
2013-01-20 17:13:00,51.6,19.6,29.94,North,0,1.0,2.0,28,0.00,,---,0.00,VWS V14.01,2013-01-20 22:13:00,
2013-01-20 17:14:00,51.4,21.0,29.93,North,0,1.0,5.0,30,0.00,,---,0.00,VWS V14.01,2013-01-20 22:14:00,
2013-01-20 17:15:00,51.4,20.2,29.93,WSW,248,2.0,6.0,29,0.00,,---,0.00,VWS V14.01,2013-01-20 22:15:00,
2013-01-20 17:16:00,51.2,20.0,29.94,West,270,1.0,4.0,29,0.00,,---,0.00,VWS V14.01,2013-01-20 22:16:00,
2013-01-20 17:17:00,51.2,19.2,29.94,NW,315,1.0,2.0,28,0.00,,---,0.00,VWS V14.01,2013-01-20 22:17:00,
2013-01-20 17:18:00,51.1,19.1,29.93,NW,315,1.0,2.0,28,0.00,,---,0.00,VWS V14.01,2013-01-20 22:18:00,
2013-01-20 17:19:00,51.0,19.1,29.94,NW,315,1.0,2.0,28,0.00,,---,0.00,VWS V14.01,2013-01-20 22:19:00,
2013-01-20 17:20:00,51.0,19.9,29.94,South,180,1.0,2.0,29,0.00,,---,0.00,VWS V14.01,2013-01-20 22:20:00,
2013-01-20 17:21:00,50.9,18.1,29.94,NW,315,3.0,5.0,27,0.00,,---,0.00,VWS V14.01,2013-01-20 22:21:00,
2013-01-20 17:22:00,50.8,18.0,29.94,NE,45,1.0,4.0,27,0.00,,---,0.00,VWS V14.01,2013-01-20 22:22:00,
2013-01-20 17:23:00,50.8,18.0,29.94,West,270,1.0,5.0,27,0.00,,---,0.00,VWS V14.01,2013-01-20 22:23:00,
2013-01-20 17:24:00,50.7,18.8,29.94,NNW,338,2.0,4.0,28,0.00,,---,0.00,VWS V14.01,2013-01-20 22:24:00,
2013-01-20 17:25:00,50.6,18.7,29.94,NNW,338,0.0,1.0,28,0.00,,---,0.00,VWS V14.01,2013-01-20 22:25:00,
2013-01-20 17:26:00,50.6,18.7,29.94,North,0,3.0,6.0,28,0.00,,---,0.00,VWS V14.01,2013-01-20 22:26:00,
2013-01-20 17:27:00,50.5,18.6,29.94,North,0,0.0,1.0,28,0.00,,---,0.00,VWS V14.01,2013-01-20 22:27:00,
2013-01-20 17:28:00,50.5,19.5,29.94,NE,45,2.0,7.0,29,0.00,,---,0.00,VWS V14.01,2013-01-20 22:28:00,
2013-01-20 17:29:00,50.4,18.5,29.94,WSW,248,3.0,5.0,28,0.00,,---,0.00,VWS V14.01,2013-01-20 22:29:00,
2013-01-20 17:30:00,50.4,18.5,29.94,SW,225,1.0,4.0,28,0.00,,---,0.00,VWS V14.01,2013-01-20 22:30:00,
2013-01-20 17:31:00,50.3,18.5,29.94,ESE,112,1.0,2.0,28,0.00,,---,0.00,VWS V14.01,2013-01-20 22:31:00,
2013-01-20 17:32:00,50.3,17.6,29.94,NW,315,2.0,4.0,27,0.00,,---,0.00,VWS V14.01,2013-01-20 22:32:00,
2013-01-20 17:33:00,50.2,17.5,29.94,North,0,1.0,4.0,27,0.00,,---,0.00,VWS V14.01,2013-01-20 22:33:00,
2013-01-20 17:34:00,50.1,17.4,29.94,North,0,0.0,2.0,27,0.00,,---,0.00,VWS V14.01,2013-01-20 22:34:00,
2013-01-20 17:35:00,50.1,18.3,29.94,WNW,292,1.0,3.0,28,0.00,,---,0.00,VWS V14.01,2013-01-20 22:35:00,
2013-01-20 17:36:00,50.1,18.3,29.94,NW,315,2.0,4.0,28,0.00,,---,0.00,VWS V14.01,2013-01-20 22:36:00,
2013-01-20 17:37:00,50.0,17.4,29.94,NNE,22,2.0,5.0,27,0.00,,---,0.00,VWS V14.01,2013-01-20 22:37:00,
2013-01-20 17:38:00,50.0,18.2,29.94,NW,315,1.0,4.0,28,0.00,,---,0.00,VWS V14.01,2013-01-20 22:38:00,
2013-01-20 17:39:00,49.9,18.1,29.94,NW,315,0.0,2.0,28,0.00,,---,0.00,VWS V14.01,2013-01-20 22:39:00,
2013-01-20 17:40:00,49.9,18.1,29.94,WNW,292,1.0,4.0,28,0.00,,---,0.00,VWS V14.01,2013-01-20 22:40:00,
2013-01-20 17:41:00,49.8,18.0,29.94,NW,315,0.0,2.0,28,0.00,,---,0.00,VWS V14.01,2013-01-20 22:41:00,
2013-01-20 17:42:00,49.8,18.0,29.94,West,270,1.0,2.0,28,0.00,,---,0.00,VWS V14.01,2013-01-20 22:42:00,
2013-01-20 17:43:00,49.8,18.0,29.94,NW,315,0.0,1.0,28,0.00,,---,0.00,VWS V14.01,2013-01-20 22:43:00,
2013-01-20 17:44:00,49.7,17.9,29.94,NW,315,0.0,1.0,28,0.00,,---,0.00,VWS V14.01,2013-01-20 22:44:00,
2013-01-20 17:45:00,49.7,17.9,29.95,NW,315,0.0,1.0,28,0.00,,---,0.00,VWS V14.01,2013-01-20 22:45:00,
2013-01-20 17:46:00,49.6,17.9,29.94,NW,315,0.0,1.0,28,0.00,,---,0.00,VWS V14.01,2013-01-20 22:46:00,
2013-01-20 17:47:00,49.6,19.5,29.95,NW,315,0.0,1.0,30,0.00,,---,0.00,VWS V14.01,2013-01-20 22:47:00,
2013-01-20 17:48:00,49.5,18.6,29.95,NNE,22,2.0,6.0,29,0.00,,---,0.00,VWS V14.01,2013-01-20 22:48:00,
2013-01-20 17:49:00,49.4,19.3,29.95,West,270,1.0,4.0,30,0.00,,---,0.00,VWS V14.01,2013-01-20 22:49:00,
2013-01-20 17:50:00,49.4,18.5,29.95,NNE,22,3.0,9.0,29,0.00,,---,0.00,VWS V14.01,2013-01-20 22:50:00,
2013-01-20 17:51:00,49.3,18.4,29.95,North,0,0.0,2.0,29,0.00,,---,0.00,VWS V14.01,2013-01-20 22:51:00,
2013-01-20 17:52:00,49.3,19.2,29.95,NNW,338,0.0,2.0,30,0.00,,---,0.00,VWS V14.01,2013-01-20 22:52:00,
2013-01-20 17:53:00,49.2,19.1,29.95,South,180,1.0,5.0,30,0.00,,---,0.00,VWS V14.01,2013-01-20 22:53:00,
2013-01-20 17:54:00,49.2,19.1,29.95,South,180,0.0,0.0,30,0.00,,---,0.00,VWS V14.01,2013-01-20 22:54:00,
2013-01-20 17:55:00,49.1,19.0,29.95,South,180,1.0,2.0,30,0.00,,---,0.00,VWS V14.01,2013-01-20 22:55:00,
2013-01-20 17:56:00,49.1,19.0,29.95,West,270,2.0,5.0,30,0.00,,---,0.00,VWS V14.01,2013-01-20 22:56:00,
2013-01-20 17:57:00,49.0,18.1,29.95,West,270,0.0,2.0,29,0.00,,---,0.00,VWS V14.01,2013-01-20 22:57:00,
2013-01-20 17:58:00,48.9,18.9,29.95,SW,225,1.0,4.0,30,0.00,,---,0.00,VWS V14.01,2013-01-20 22:58:00,
2013-01-20 17:59:00,48.9,18.1,29.95,NW,315,2.0,6.0,29,0.00,,---,0.00,VWS V14.01,2013-01-20 22:59:00,
2013-01-20 18:00:00,48.8,18.0,29.95,WNW,292,2.0,5.0,29,0.00,,---,0.00,VWS V14.01,2013-01-20 23:00:00,
2013-01-20 18:01:00,48.8,18.0,29.95,West,270,1.0,2.0,29,0.00,,---,0.00,VWS V14.01,2013-01-20 23:01:00,
2013-01-20 18:02:00,48.7,18.7,29.96,West,270,0.0,1.0,30,0.00,,---,0.00,VWS V14.01,2013-01-20 23:02:00,
2013-01-20 18:03:00,48.7,18.7,29.96,NW,315,1.0,5.0,30,0.00,,---,0.00,VWS V14.01,2013-01-20 23:03:00,
2013-01-20 18:04:00,48.7,18.7,29.95,WSW,248,0.0,2.0,30,0.00,,---,0.00,VWS V14.01,2013-01-20 23:04:00,
2013-01-20 18:05:00,48.6,18.6,29.96,WSW,248,0.0,1.0,30,0.00,,---,0.00,VWS V14.01,2013-01-20 23:05:00,
2013-01-20 18:06:00,48.6,19.4,29.96,WSW,248,0.0,1.0,31,0.00,,---,0.00,VWS V14.01,2013-01-20 23:06:00,
2013-01-20 18:07:00,48.5,19.3,29.96,WSW,248,0.0,1.0,31,0.00,,---,0.00,VWS V14.01,2013-01-20 23:07:00,
2013-01-20 18:08:00,48.4,19.2,29.96,WSW,248,0.0,1.0,31,0.00,,---,0.00,VWS V14.01,2013-01-20 23:08:00,
2013-01-20 18:09:00,48.4,19.2,29.96,WSW,248,2.0,6.0,31,0.00,,---,0.00,VWS V14.01,2013-01-20 23:09:00,
2013-01-20 18:10:00,48.3,18.3,29.96,NW,315,2.0,7.0,30,0.00,,---,0.00,VWS V14.01,2013-01-20 23:10:00,
2013-01-20 18:11:00,48.3,19.1,29.96,NNW,338,0.0,1.0,31,0.00,,---,0.00,VWS V14.01,2013-01-20 23:11:00,
2013-01-20 18:12:00,48.2,19.0,29.96,NNW,338,1.0,4.0,31,0.00,,---,0.00,VWS V14.01,2013-01-20 23:12:00,
2013-01-20 18:13:00,48.2,19.0,29.96,NE,45,0.0,1.0,31,0.00,,---,0.00,VWS V14.01,2013-01-20 23:13:00,
2013-01-20 18:14:00,48.1,18.9,29.96,NE,45,0.0,0.0,31,0.00,,---,0.00,VWS V14.01,2013-01-20 23:14:00,
2013-01-20 18:15:00,48.1,19.6,29.96,NE,45,0.0,1.0,32,0.00,,---,0.00,VWS V14.01,2013-01-20 23:15:00,
2013-01-20 18:16:00,48.0,18.8,29.96,NNW,338,0.0,1.0,31,0.00,,---,0.00,VWS V14.01,2013-01-20 23:16:00,
2013-01-20 18:17:00,48.0,19.6,29.96,NNW,338,0.0,0.0,32,0.00,,---,0.00,VWS V14.01,2013-01-20 23:17:00,
2013-01-20 18:18:00,47.9,20.2,29.96,NNW,338,0.0,0.0,33,0.00,,---,0.00,VWS V14.01,2013-01-20 23:18:00,
2013-01-20 18:19:00,47.9,19.5,29.96,NE,45,1.0,4.0,32,0.00,,---,0.00,VWS V14.01,2013-01-20 23:19:00,
2013-01-20 18:20:00,47.8,19.4,29.96,NE,45,0.0,1.0,32,0.00,,---,0.00,VWS V14.01,2013-01-20 23:20:00,
2013-01-20 18:21:00,47.8,19.4,29.97,NE,45,0.0,1.0,32,0.00,,---,0.00,VWS V14.01,2013-01-20 23:21:00,
2013-01-20 18:22:00,47.7,20.0,29.97,ENE,68,0.0,1.0,33,0.00,,---,0.00,VWS V14.01,2013-01-20 23:22:00,
2013-01-20 18:23:00,47.6,19.2,29.96,North,0,1.0,2.0,32,0.00,,---,0.00,VWS V14.01,2013-01-20 23:23:00,
2013-01-20 18:24:00,47.6,19.9,29.97,North,0,1.0,2.0,33,0.00,,---,0.00,VWS V14.01,2013-01-20 23:24:00,
2013-01-20 18:25:00,47.5,19.1,29.97,North,0,1.0,2.0,32,0.00,,---,0.00,VWS V14.01,2013-01-20 23:25:00,
2013-01-20 18:26:00,47.5,19.1,29.97,NNE,22,0.0,2.0,32,0.00,,---,0.00,VWS V14.01,2013-01-20 23:26:00,
2013-01-20 18:27:00,47.4,19.0,29.97,NNE,22,1.0,4.0,32,0.00,,---,0.00,VWS V14.01,2013-01-20 23:27:00,
2013-01-20 18:28:00,47.4,19.0,29.97,NNE,22,1.0,3.0,32,0.00,,---,0.00,VWS V14.01,2013-01-20 23:28:00,
2013-01-20 18:29:00,47.3,19.0,29.97,NW,315,2.0,5.0,32,0.00,,---,0.00,VWS V14.01,2013-01-20 23:29:00,
2013-01-20 18:31:00,47.2,18.9,29.97,NW,315,1.0,2.0,32,0.00,,---,0.00,VWS V14.01,2013-01-20 23:31:00,
2013-01-20 18:33:00,47.2,19.6,29.97,NNE,22,1.0,4.0,33,0.00,,---,0.00,VWS V14.01,2013-01-20 23:33:00,
2013-01-20 18:34:00,47.2,18.9,29.97,NNW,338,1.0,4.0,32,0.00,,---,0.00,VWS V14.01,2013-01-20 23:34:00,
2013-01-20 18:35:00,47.1,18.8,29.98,NNW,338,1.0,2.0,32,0.00,,---,0.00,VWS V14.01,2013-01-20 23:35:00,
2013-01-20 18:36:00,47.1,19.5,29.97,NNW,338,0.0,1.0,33,0.00,,---,0.00,VWS V14.01,2013-01-20 23:36:00,
2013-01-20 18:37:00,47.0,19.4,29.98,NNW,338,0.0,1.0,33,0.00,,---,0.00,VWS V14.01,2013-01-20 23:37:00,
2013-01-20 18:38:00,47.0,19.4,29.98,North,0,1.0,4.0,33,0.00,,---,0.00,VWS V14.01,2013-01-20 23:38:00,
2013-01-20 18:39:00,47.0,19.4,29.98,North,0,1.0,4.0,33,0.00,,---,0.00,VWS V14.01,2013-01-20 23:39:00,
2013-01-20 18:40:00,46.9,19.3,29.98,South,180,1.0,4.0,33,0.00,,---,0.00,VWS V14.01,2013-01-20 23:40:00,
2013-01-20 18:41:00,46.9,18.6,29.98,NNW,338,0.0,1.0,32,0.00,,---,0.00,VWS V14.01,2013-01-20 23:41:00,
2013-01-20 18:42:00,46.9,19.3,29.98,NNW,338,0.0,0.0,33,0.00,,---,0.00,VWS V14.01,2013-01-20 23:42:00,
2013-01-20 18:43:00,46.8,19.2,29.98,NW,315,0.0,1.0,33,0.00,,---,0.00,VWS V14.01,2013-01-20 23:43:00,
2013-01-20 18:44:00,46.8,18.5,29.98,SSE,158,0.0,1.0,32,0.00,,---,0.00,VWS V14.01,2013-01-20 23:44:00,
2013-01-20 18:45:00,46.7,19.1,29.98,SSE,158,0.0,1.0,33,0.00,,---,0.00,VWS V14.01,2013-01-20 23:45:00,
2013-01-20 18:46:00,46.7,19.8,29.98,SSE,158,0.0,0.0,34,0.00,,---,0.00,VWS V14.01,2013-01-20 23:46:00,
2013-01-20 18:47:00,46.7,19.1,29.98,SSW,202,2.0,7.0,33,0.00,,---,0.00,VWS V14.01,2013-01-20 23:47:00,
2013-01-20 18:48:00,46.6,19.8,29.98,NE,45,3.0,6.0,34,0.00,,---,0.00,VWS V14.01,2013-01-20 23:48:00,
2013-01-20 18:49:00,46.5,18.2,29.98,NNW,338,2.0,7.0,32,0.00,,---,0.00,VWS V14.01,2013-01-20 23:49:00,
2013-01-20 18:50:00,46.5,18.2,29.98,NNW,338,1.0,3.0,32,0.00,,---,0.00,VWS V14.01,2013-01-20 23:50:00,
2013-01-20 18:51:00,46.5,18.2,29.98,NNW,338,0.0,0.0,32,0.00,,---,0.00,VWS V14.01,2013-01-20 23:51:00,
2013-01-20 18:52:00,46.4,18.2,29.98,NNW,338,0.0,0.0,32,0.00,,---,0.00,VWS V14.01,2013-01-20 23:52:00,
2013-01-20 18:53:00,46.4,18.2,29.98,NNW,338,0.0,1.0,32,0.00,,---,0.00,VWS V14.01,2013-01-20 23:53:00,
2013-01-20 18:54:00,46.3,18.8,29.98,NNW,338,0.0,0.0,33,0.00,,---,0.00,VWS V14.01,2013-01-20 23:54:00,
2013-01-20 18:55:00,46.3,18.1,29.98,NNW,338,0.0,0.0,32,0.00,,---,0.00,VWS V14.01,2013-01-20 23:55:00,
2013-01-20 18:56:00,46.2,18.0,29.99,North,0,0.0,2.0,32,0.00,,---,0.00,VWS V14.01,2013-01-20 23:56:00,
2013-01-20 18:57:00,46.1,18.6,29.99,West,270,3.0,6.0,33,0.00,,---,0.00,VWS V14.01,2013-01-20 23:57:00,
2013-01-20 18:58:00,46.1,18.6,29.99,West,270,0.0,0.0,33,0.00,,---,0.00,VWS V14.01,2013-01-20 23:58:00,
2013-01-20 18:59:00,46.1,18.6,29.99,West,270,0.0,1.0,33,0.00,,---,0.00,VWS V14.01,2013-01-20 23:59:00,
2013-01-20 19:00:00,46.0,17.8,29.99,West,270,0.0,3.0,32,0.00,,---,0.00,VWS V14.01,2013-01-21 00:00:00,
2013-01-20 19:01:00,46.0,17.8,29.99,NE,45,4.0,6.0,32,0.00,,---,0.00,VWS V14.01,2013-01-21 00:01:00,
2013-01-20 19:02:00,45.9,17.7,29.99,North,0,1.0,5.0,32,0.00,,---,0.00,VWS V14.01,2013-01-21 00:02:00,
2013-01-20 19:03:00,45.9,17.7,29.99,West,270,0.0,2.0,32,0.00,,---,0.00,VWS V14.01,2013-01-21 00:03:00,
2013-01-20 19:04:00,45.8,17.6,29.99,SE,135,1.0,4.0,32,0.00,,---,0.00,VWS V14.01,2013-01-21 00:04:00,
2013-01-20 19:05:00,45.8,18.4,29.99,SE,135,0.0,1.0,33,0.00,,---,0.00,VWS V14.01,2013-01-21 00:05:00,
2013-01-20 19:06:00,45.8,18.4,29.99,NW,315,1.0,5.0,33,0.00,,---,0.00,VWS V14.01,2013-01-21 00:06:00,
2013-01-20 19:07:00,45.7,17.5,29.99,SW,225,2.0,5.0,32,0.00,,---,0.00,VWS V14.01,2013-01-21 00:07:00,
2013-01-20 19:08:00,45.7,17.5,29.99,NW,315,0.0,1.0,32,0.00,,---,0.00,VWS V14.01,2013-01-21 00:08:00,
2013-01-20 19:09:00,45.7,18.3,30.00,SW,225,0.0,1.0,33,0.00,,---,0.00,VWS V14.01,2013-01-21 00:09:00,
2013-01-20 19:10:00,45.6,18.2,30.00,East,90,0.0,1.0,33,0.00,,---,0.00,VWS V14.01,2013-01-21 00:10:00,
2013-01-20 19:11:00,45.6,18.2,30.00,North,0,2.0,4.0,33,0.00,,---,0.00,VWS V14.01,2013-01-21 00:11:00,
2013-01-20 19:12:00,45.5,18.1,30.00,NW,315,1.0,2.0,33,0.00,,---,0.00,VWS V14.01,2013-01-21 00:12:00,
2013-01-20 19:13:00,45.5,18.8,30.00,ESE,112,1.0,2.0,34,0.00,,---,0.00,VWS V14.01,2013-01-21 00:13:00,
2013-01-20 19:14:00,45.4,18.0,30.00,NW,315,0.0,2.0,33,0.00,,---,0.00,VWS V14.01,2013-01-21 00:14:00,
2013-01-20 19:15:00,45.4,18.0,30.00,West,270,0.0,2.0,33,0.00,,---,0.00,VWS V14.01,2013-01-21 00:15:00,
2013-01-20 19:16:00,45.4,18.0,30.00,West,270,1.0,3.0,33,0.00,,---,0.00,VWS V14.01,2013-01-21 00:16:00,
2013-01-20 19:17:00,45.3,17.9,30.00,NNE,22,2.0,5.0,33,0.00,,---,0.00,VWS V14.01,2013-01-21 00:17:00,
2013-01-20 19:18:00,45.2,17.8,30.00,West,270,1.0,4.0,33,0.00,,---,0.00,VWS V14.01,2013-01-21 00:18:00,
2013-01-20 19:19:00,45.2,17.8,30.00,West,270,0.0,1.0,33,0.00,,---,0.00,VWS V14.01,2013-01-21 00:19:00,
2013-01-20 19:20:00,45.2,17.8,30.00,West,270,0.0,1.0,33,0.00,,---,0.00,VWS V14.01,2013-01-21 00:20:00,
2013-01-20 19:21:00,45.1,18.4,30.00,West,270,0.0,1.0,34,0.00,,---,0.00,VWS V14.01,2013-01-21 00:21:00,
2013-01-20 19:22:00,45.1,18.4,30.00,NNE,22,1.0,4.0,34,0.00,,---,0.00,VWS V14.01,2013-01-21 00:22:00,
2013-01-20 19:23:00,45.1,17.7,30.00,NNW,338,0.0,1.0,33,0.00,,---,0.00,VWS V14.01,2013-01-21 00:23:00,
2013-01-20 19:24:00,45.0,17.6,30.00,NNW,338,0.0,0.0,33,0.00,,---,0.00,VWS V14.01,2013-01-21 00:24:00,
2013-01-20 19:25:00,45.0,18.3,30.00,NNW,338,0.0,0.0,34,0.00,,---,0.00,VWS V14.01,2013-01-21 00:25:00,
2013-01-20 19:26:00,44.9,18.2,30.01,NNW,338,0.0,1.0,34,0.00,,---,0.00,VWS V14.01,2013-01-21 00:26:00,
2013-01-20 19:27:00,44.9,18.2,30.01,North,0,2.0,3.0,34,0.00,,---,0.00,VWS V14.01,2013-01-21 00:27:00,
2013-01-20 19:28:00,44.9,18.2,30.01,North,0,0.0,2.0,34,0.00,,---,0.00,VWS V14.01,2013-01-21 00:28:00,
2013-01-20 19:29:00,44.8,18.2,30.01,North,0,0.0,2.0,34,0.00,,---,0.00,VWS V14.01,2013-01-21 00:29:00,
2013-01-20 19:30:00,44.7,18.1,30.01,North,0,0.0,1.0,34,0.00,,---,0.00,VWS V14.01,2013-01-21 00:30:00,
2013-01-20 19:31:00,44.7,18.8,30.01,North,0,0.0,1.0,35,0.00,,---,0.00,VWS V14.01,2013-01-21 00:31:00,
2013-01-20 19:32:00,44.6,18.0,30.01,North,0,0.0,0.0,34,0.00,,---,0.00,VWS V14.01,2013-01-21 00:32:00,
2013-01-20 19:33:00,44.6,18.7,30.01,North,0,0.0,0.0,35,0.00,,---,0.00,VWS V14.01,2013-01-21 00:33:00,
2013-01-20 19:34:00,44.6,18.7,30.01,North,0,0.0,0.0,35,0.00,,---,0.00,VWS V14.01,2013-01-21 00:34:00,
2013-01-20 19:35:00,44.5,19.2,30.01,North,0,0.0,1.0,36,0.00,,---,0.00,VWS V14.01,2013-01-21 00:35:00,
2013-01-20 19:36:00,44.4,18.5,30.01,North,0,0.0,1.0,35,0.00,,---,0.00,VWS V14.01,2013-01-21 00:36:00,
2013-01-20 19:37:00,44.4,18.5,30.02,North,0,0.0,1.0,35,0.00,,---,0.00,VWS V14.01,2013-01-21 00:37:00,
2013-01-20 19:38:00,44.3,18.4,30.01,North,0,0.0,1.0,35,0.00,,---,0.00,VWS V14.01,2013-01-21 00:38:00,
2013-01-20 19:39:00,44.3,18.4,30.02,North,0,0.0,1.0,35,0.00,,---,0.00,VWS V14.01,2013-01-21 00:39:00,
2013-01-20 19:40:00,44.2,19.0,30.02,North,0,0.0,1.0,36,0.00,,---,0.00,VWS V14.01,2013-01-21 00:40:00,
2013-01-20 19:41:00,44.1,18.2,30.02,North,0,0.0,1.0,35,0.00,,---,0.00,VWS V14.01,2013-01-21 00:41:00,
2013-01-20 19:42:00,44.1,18.9,30.02,North,0,0.0,0.0,36,0.00,,---,0.00,VWS V14.01,2013-01-21 00:42:00,
2013-01-20 19:43:00,44.0,18.8,30.02,North,0,0.0,0.0,36,0.00,,---,0.00,VWS V14.01,2013-01-21 00:43:00,
2013-01-20 19:44:00,43.9,18.7,30.02,North,0,0.0,1.0,36,0.00,,---,0.00,VWS V14.01,2013-01-21 00:44:00,
2013-01-20 19:45:00,43.9,18.7,30.02,North,0,0.0,2.0,36,0.00,,---,0.00,VWS V14.01,2013-01-21 00:45:00,
2013-01-20 19:46:00,43.8,18.0,30.02,NNW,338,0.0,1.0,35,0.00,,---,0.00,VWS V14.01,2013-01-21 00:46:00,
2013-01-20 19:47:00,43.7,18.5,30.01,NNW,338,0.0,0.0,36,0.00,,---,0.00,VWS V14.01,2013-01-21 00:47:00,
2013-01-20 19:48:00,43.7,18.5,30.02,NNW,338,0.0,0.0,36,0.00,,---,0.00,VWS V14.01,2013-01-21 00:48:00,
2013-01-20 19:49:00,43.6,17.8,30.02,NNW,338,0.0,0.0,35,0.00,,---,0.00,VWS V14.01,2013-01-21 00:49:00,
2013-01-20 19:50:00,43.6,19.1,30.02,NNW,338,0.0,0.0,37,0.00,,---,0.00,VWS V14.01,2013-01-21 00:50:00,
2013-01-20 19:51:00,43.5,19.0,30.02,NNW,338,0.0,0.0,37,0.00,,---,0.00,VWS V14.01,2013-01-21 00:51:00,
2013-01-20 19:52:00,43.5,19.6,30.02,NNW,338,0.0,0.0,38,0.00,,---,0.00,VWS V14.01,2013-01-21 00:52:00,
2013-01-20 19:53:00,43.4,20.1,30.02,NNW,338,0.0,0.0,39,0.00,,---,0.00,VWS V14.01,2013-01-21 00:53:00,
2013-01-20 19:54:00,43.4,20.7,30.02,NNW,338,0.0,0.0,40,0.00,,---,0.00,VWS V14.01,2013-01-21 00:54:00,
2013-01-20 19:55:00,43.3,20.6,30.02,NNW,338,0.0,0.0,40,0.00,,---,0.00,VWS V14.01,2013-01-21 00:55:00,
2013-01-20 19:56:00,43.3,19.4,30.02,NNW,338,0.0,0.0,38,0.00,,---,0.00,VWS V14.01,2013-01-21 00:56:00,
2013-01-20 19:57:00,43.2,18.7,30.02,NNW,338,0.0,1.0,37,0.00,,---,0.00,VWS V14.01,2013-01-21 00:57:00,
2013-01-20 19:58:00,43.1,18.6,30.02,WNW,292,0.0,1.0,37,0.00,,---,0.00,VWS V14.01,2013-01-21 00:58:00,
2013-01-20 19:59:00,43.0,18.5,30.02,WNW,292,0.0,1.0,37,0.00,,---,0.00,VWS V14.01,2013-01-21 00:59:00,
2013-01-20 20:00:00,42.9,18.4,30.02,WNW,292,0.0,1.0,37,0.00,,---,0.00,VWS V14.01,2013-01-21 01:00:00,
2013-01-20 20:01:00,42.9,17.8,30.02,NNW,338,1.0,5.0,36,0.00,,---,0.00,VWS V14.01,2013-01-21 01:01:00,
2013-01-20 20:02:00,42.8,17.7,30.02,NW,315,0.0,2.0,36,0.00,,---,0.00,VWS V14.01,2013-01-21 01:02:00,
2013-01-20 20:03:00,42.8,17.7,30.02,NW,315,0.0,2.0,36,0.00,,---,0.00,VWS V14.01,2013-01-21 01:03:00,
2013-01-20 20:04:00,42.7,17.6,30.02,NW,315,0.0,1.0,36,0.00,,---,0.00,VWS V14.01,2013-01-21 01:04:00,
2013-01-20 20:05:00,42.7,17.6,30.02,ESE,112,1.0,2.0,36,0.00,,---,0.00,VWS V14.01,2013-01-21 01:05:00,
2013-01-20 20:06:00,42.7,17.6,30.02,ESE,112,0.0,0.0,36,0.00,,---,0.00,VWS V14.01,2013-01-21 01:06:00,
2013-01-20 20:07:00,42.7,17.6,30.02,NE,45,0.0,1.0,36,0.00,,---,0.00,VWS V14.01,2013-01-21 01:07:00,
2013-01-20 20:08:00,42.6,17.5,30.03,NE,45,0.0,1.0,36,0.00,,---,0.00,VWS V14.01,2013-01-21 01:08:00,
2013-01-20 20:09:00,42.6,17.5,30.02,NE,45,0.0,0.0,36,0.00,,---,0.00,VWS V14.01,2013-01-21 01:09:00,
2013-01-20 20:10:00,42.5,17.4,30.03,NE,45,0.0,0.0,36,0.00,,---,0.00,VWS V14.01,2013-01-21 01:10:00,
2013-01-20 20:11:00,42.5,18.1,30.03,ENE,68,0.0,2.0,37,0.00,,---,0.00,VWS V14.01,2013-01-21 01:11:00,
2013-01-20 20:12:00,42.5,18.1,30.03,NE,45,0.0,2.0,37,0.00,,---,0.00,VWS V14.01,2013-01-21 01:12:00,
2013-01-20 20:13:00,42.4,18.6,30.02,ENE,68,0.0,2.0,38,0.00,,---,0.00,VWS V14.01,2013-01-21 01:13:00,
2013-01-20 20:14:00,42.4,18.0,30.03,ENE,68,0.0,0.0,37,0.00,,---,0.00,VWS V14.01,2013-01-21 01:14:00,
2013-01-20 20:15:00,42.4,18.0,30.03,ENE,68,0.0,0.0,37,0.00,,---,0.00,VWS V14.01,2013-01-21 01:15:00,
2013-01-20 20:16:00,42.3,17.9,30.03,ENE,68,0.0,0.0,37,0.00,,---,0.00,VWS V14.01,2013-01-21 01:16:00,
2013-01-20 20:17:00,42.3,17.9,30.03,ENE,68,0.0,1.0,37,0.00,,---,0.00,VWS V14.01,2013-01-21 01:17:00,
2013-01-20 20:18:00,42.3,17.3,30.03,ENE,68,0.0,0.0,36,0.00,,---,0.00,VWS V14.01,2013-01-21 01:18:00,
2013-01-20 20:19:00,42.2,17.8,30.03,ENE,68,0.0,1.0,37,0.00,,---,0.00,VWS V14.01,2013-01-21 01:19:00,
2013-01-20 20:20:00,42.2,17.8,30.03,ENE,68,0.0,0.0,37,0.00,,---,0.00,VWS V14.01,2013-01-21 01:20:00,
2013-01-20 20:21:00,42.1,17.7,30.03,ENE,68,0.0,0.0,37,0.00,,---,0.00,VWS V14.01,2013-01-21 01:21:00,
2013-01-20 20:22:00,42.1,17.7,30.03,ENE,68,0.0,0.0,37,0.00,,---,0.00,VWS V14.01,2013-01-21 01:22:00,
2013-01-20 20:23:00,42.0,17.6,30.03,ENE,68,0.0,0.0,37,0.00,,---,0.00,VWS V14.01,2013-01-21 01:23:00,
2013-01-20 20:24:00,42.0,17.6,30.03,ENE,68,0.0,1.0,37,0.00,,---,0.00,VWS V14.01,2013-01-21 01:24:00,
2013-01-20 20:25:00,42.0,17.6,30.03,NW,315,1.0,5.0,37,0.00,,---,0.00,VWS V14.01,2013-01-21 01:25:00,
2013-01-20 20:26:00,41.9,17.5,30.03,WSW,248,1.0,2.0,37,0.00,,---,0.00,VWS V14.01,2013-01-21 01:26:00,
2013-01-20 20:27:00,41.9,17.5,30.03,West,270,1.0,3.0,37,0.00,,---,0.00,VWS V14.01,2013-01-21 01:27:00,
2013-01-20 20:28:00,41.9,18.2,30.03,WNW,292,0.0,1.0,38,0.00,,---,0.00,VWS V14.01,2013-01-21 01:28:00,
2013-01-20 20:29:00,41.8,17.5,30.03,WNW,292,0.0,0.0,37,0.00,,---,0.00,VWS V14.01,2013-01-21 01:29:00,
2013-01-20 20:30:00,41.9,17.5,30.03,WNW,292,0.0,0.0,37,0.00,,---,0.00,VWS V14.01,2013-01-21 01:30:00,
2013-01-20 20:31:00,41.8,17.5,30.03,WNW,292,0.0,1.0,37,0.00,,---,0.00,VWS V14.01,2013-01-21 01:31:00,
2013-01-20 20:32:00,41.8,18.1,30.03,WNW,292,0.0,0.0,38,0.00,,---,0.00,VWS V14.01,2013-01-21 01:32:00,
2013-01-20 20:33:00,41.8,18.1,30.04,WNW,292,0.0,1.0,38,0.00,,---,0.00,VWS V14.01,2013-01-21 01:33:00,
2013-01-20 20:34:00,41.8,18.1,30.04,WNW,292,0.0,0.0,38,0.00,,---,0.00,VWS V14.01,2013-01-21 01:34:00,
2013-01-20 20:35:00,41.8,17.5,30.04,WNW,292,0.0,1.0,37,0.00,,---,0.00,VWS V14.01,2013-01-21 01:35:00,
2013-01-20 20:36:00,41.7,18.0,30.04,WNW,292,0.0,2.0,38,0.00,,---,0.00,VWS V14.01,2013-01-21 01:36:00,
2013-01-20 20:37:00,41.7,18.0,30.04,WNW,292,0.0,1.0,38,0.00,,---,0.00,VWS V14.01,2013-01-21 01:37:00,
2013-01-20 20:38:00,41.6,18.5,30.04,NW,315,0.0,1.0,39,0.00,,---,0.00,VWS V14.01,2013-01-21 01:38:00,
2013-01-20 20:39:00,41.6,17.9,30.04,NW,315,0.0,2.0,38,0.00,,---,0.00,VWS V14.01,2013-01-21 01:39:00,
2013-01-20 20:40:00,41.6,18.5,30.04,NW,315,0.0,0.0,39,0.00,,---,0.00,VWS V14.01,2013-01-21 01:40:00,
2013-01-20 20:41:00,41.6,18.5,30.04,NW,315,0.0,1.0,39,0.00,,---,0.00,VWS V14.01,2013-01-21 01:41:00,
2013-01-20 20:42:00,41.5,17.8,30.04,West,270,1.0,5.0,38,0.00,,---,0.00,VWS V14.01,2013-01-21 01:42:00,
2013-01-20 20:43:00,41.5,17.8,30.04,NW,315,1.0,5.0,38,0.00,,---,0.00,VWS V14.01,2013-01-21 01:43:00,
2013-01-20 20:44:00,41.4,18.3,30.04,NW,315,0.0,0.0,39,0.00,,---,0.00,VWS V14.01,2013-01-21 01:44:00,
2013-01-20 20:45:00,41.4,18.9,30.04,West,270,0.0,2.0,40,0.00,,---,0.00,VWS V14.01,2013-01-21 01:45:00,
2013-01-20 20:46:00,41.4,18.3,30.04,West,270,0.0,1.0,39,0.00,,---,0.00,VWS V14.01,2013-01-21 01:46:00,
2013-01-20 20:47:00,41.3,18.8,30.04,West,270,0.0,0.0,40,0.00,,---,0.00,VWS V14.01,2013-01-21 01:47:00,
2013-01-20 20:48:00,41.3,18.8,30.04,West,270,0.0,0.0,40,0.00,,---,0.00,VWS V14.01,2013-01-21 01:48:00,
2013-01-20 20:49:00,41.3,18.8,30.04,West,270,0.0,0.0,40,0.00,,---,0.00,VWS V14.01,2013-01-21 01:49:00,
2013-01-20 20:50:00,41.2,18.7,30.04,West,270,0.0,2.0,40,0.00,,---,0.00,VWS V14.01,2013-01-21 01:50:00,
2013-01-20 20:51:00,41.2,18.7,30.04,West,270,0.0,1.0,40,0.00,,---,0.00,VWS V14.01,2013-01-21 01:51:00,
2013-01-20 20:52:00,41.2,18.7,30.04,West,270,0.0,0.0,40,0.00,,---,0.00,VWS V14.01,2013-01-21 01:52:00,
2013-01-20 20:53:00,41.1,18.0,30.04,West,270,0.0,0.0,39,0.00,,---,0.00,VWS V14.01,2013-01-21 01:53:00,
2013-01-20 20:54:00,41.1,18.6,30.04,West,270,0.0,0.0,40,0.00,,---,0.00,VWS V14.01,2013-01-21 01:54:00,
2013-01-20 20:55:00,41.0,18.0,30.04,West,270,0.0,1.0,39,0.00,,---,0.00,VWS V14.01,2013-01-21 01:55:00,
2013-01-20 20:56:00,41.0,18.5,30.04,West,270,0.0,0.0,40,0.00,,---,0.00,VWS V14.01,2013-01-21 01:56:00,
2013-01-20 20:57:00,40.9,19.0,30.04,West,270,0.0,0.0,41,0.00,,---,0.00,VWS V14.01,2013-01-21 01:57:00,
2013-01-20 20:58:00,40.9,19.0,30.04,West,270,0.0,0.0,41,0.00,,---,0.00,VWS V14.01,2013-01-21 01:58:00,
2013-01-20 20:59:00,40.9,19.0,30.04,West,270,0.0,1.0,41,0.00,,---,0.00,VWS V14.01,2013-01-21 01:59:00,
2013-01-20 21:00:00,40.8,18.4,30.04,West,270,0.0,0.0,40,0.00,,---,0.00,VWS V14.01,2013-01-21 02:00:00,
2013-01-20 21:01:00,40.8,18.4,30.04,West,270,0.0,0.0,40,0.00,,---,0.00,VWS V14.01,2013-01-21 02:01:00,
2013-01-20 21:02:00,40.7,18.9,30.04,West,270,0.0,0.0,41,0.00,,---,0.00,VWS V14.01,2013-01-21 02:02:00,
2013-01-20 21:03:00,40.7,18.9,30.04,West,270,0.0,0.0,41,0.00,,---,0.00,VWS V14.01,2013-01-21 02:03:00,
2013-01-20 21:04:00,40.7,20.0,30.04,West,270,0.0,0.0,43,0.00,,---,0.00,VWS V14.01,2013-01-21 02:04:00,
2013-01-20 21:05:00,40.6,19.3,30.04,West,270,0.0,0.0,42,0.00,,---,0.00,VWS V14.01,2013-01-21 02:05:00,
2013-01-20 21:06:00,40.6,19.3,30.04,West,270,0.0,0.0,42,0.00,,---,0.00,VWS V14.01,2013-01-21 02:06:00,
2013-01-20 21:07:00,40.5,18.7,30.04,West,270,0.0,0.0,41,0.00,,---,0.00,VWS V14.01,2013-01-21 02:07:00,
2013-01-20 21:08:00,40.5,18.7,30.04,West,270,0.0,1.0,41,0.00,,---,0.00,VWS V14.01,2013-01-21 02:08:00,
2013-01-20 21:09:00,40.4,18.6,30.04,West,270,0.0,0.0,41,0.00,,---,0.00,VWS V14.01,2013-01-21 02:09:00,
2013-01-20 21:10:00,40.4,18.6,30.04,West,270,0.0,0.0,41,0.00,,---,0.00,VWS V14.01,2013-01-21 02:10:00,
2013-01-20 21:11:00,40.4,19.7,30.05,West,270,0.0,0.0,43,0.00,,---,0.00,VWS V14.01,2013-01-21 02:11:00,
2013-01-20 21:12:00,40.3,19.0,30.05,West,270,0.0,0.0,42,0.00,,---,0.00,VWS V14.01,2013-01-21 02:12:00,
2013-01-20 21:13:00,40.3,19.6,30.05,West,270,0.0,0.0,43,0.00,,---,0.00,VWS V14.01,2013-01-21 02:13:00,
2013-01-20 21:14:00,40.2,19.5,30.05,West,270,0.0,0.0,43,0.00,,---,0.00,VWS V14.01,2013-01-21 02:14:00,
2013-01-20 21:15:00,40.2,19.5,30.05,West,270,0.0,0.0,43,0.00,,---,0.00,VWS V14.01,2013-01-21 02:15:00,
2013-01-20 21:16:00,40.1,19.4,30.05,West,270,0.0,0.0,43,0.00,,---,0.00,VWS V14.01,2013-01-21 02:16:00,
2013-01-20 21:17:00,40.1,20.0,30.05,West,270,0.0,0.0,44,0.00,,---,0.00,VWS V14.01,2013-01-21 02:17:00,
2013-01-20 21:18:00,40.0,19.9,30.05,West,270,0.0,0.0,44,0.00,,---,0.00,VWS V14.01,2013-01-21 02:18:00,
2013-01-20 21:19:00,40.0,19.3,30.05,West,270,0.0,0.0,43,0.00,,---,0.00,VWS V14.01,2013-01-21 02:19:00,
2013-01-20 21:20:00,40.0,19.3,30.05,West,270,0.0,0.0,43,0.00,,---,0.00,VWS V14.01,2013-01-21 02:20:00,
2013-01-20 21:21:00,39.9,18.7,30.05,West,270,0.0,2.0,42,0.00,,---,0.00,VWS V14.01,2013-01-21 02:21:00,
2013-01-20 21:22:00,39.9,18.1,30.05,West,270,0.0,1.0,41,0.00,,---,0.00,VWS V14.01,2013-01-21 02:22:00,
2013-01-20 21:23:00,39.9,18.7,30.05,West,270,0.0,1.0,42,0.00,,---,0.00,VWS V14.01,2013-01-21 02:23:00,
2013-01-20 21:24:00,39.8,18.6,30.05,West,270,0.0,0.0,42,0.00,,---,0.00,VWS V14.01,2013-01-21 02:24:00,
2013-01-20 21:25:00,39.8,19.1,30.05,West,270,0.0,0.0,43,0.00,,---,0.00,VWS V14.01,2013-01-21 02:25:00,
2013-01-20 21:26:00,39.8,19.7,30.05,West,270,0.0,0.0,44,0.00,,---,0.00,VWS V14.01,2013-01-21 02:26:00,
2013-01-20 21:27:00,39.8,19.7,30.06,West,270,0.0,0.0,44,0.00,,---,0.00,VWS V14.01,2013-01-21 02:27:00,
2013-01-20 21:28:00,39.8,20.2,30.06,West,270,0.0,0.0,45,0.00,,---,0.00,VWS V14.01,2013-01-21 02:28:00,
2013-01-20 21:29:00,39.7,19.0,30.06,West,270,0.0,1.0,43,0.00,,---,0.00,VWS V14.01,2013-01-21 02:29:00,
2013-01-20 21:30:00,39.7,18.5,30.05,West,270,0.0,1.0,42,0.00,,---,0.00,VWS V14.01,2013-01-21 02:30:00,
2013-01-20 21:31:00,39.7,18.5,30.06,West,270,0.0,0.0,42,0.00,,---,0.00,VWS V14.01,2013-01-21 02:31:00,
2013-01-20 21:32:00,39.7,18.5,30.06,West,270,0.0,0.0,42,0.00,,---,0.00,VWS V14.01,2013-01-21 02:32:00,
2013-01-20 21:33:00,39.6,19.0,30.06,West,270,0.0,1.0,43,0.00,,---,0.00,VWS V14.01,2013-01-21 02:33:00,
2013-01-20 21:34:00,39.6,18.4,30.06,West,270,0.0,0.0,42,0.00,,---,0.00,VWS V14.01,2013-01-21 02:34:00,
2013-01-20 21:35:00,39.6,18.4,30.06,West,270,0.0,0.0,42,0.00,,---,0.00,VWS V14.01,2013-01-21 02:35:00,
2013-01-20 21:36:00,39.6,18.4,30.06,West,270,0.0,0.0,42,0.00,,---,0.00,VWS V14.01,2013-01-21 02:36:00,
2013-01-20 21:37:00,39.5,19.4,30.06,West,270,0.0,0.0,44,0.00,,---,0.00,VWS V14.01,2013-01-21 02:37:00,
2013-01-20 21:38:00,39.5,18.9,30.06,West,270,0.0,0.0,43,0.00,,---,0.00,VWS V14.01,2013-01-21 02:38:00,
2013-01-20 21:39:00,39.5,18.9,30.06,West,270,0.0,0.0,43,0.00,,---,0.00,VWS V14.01,2013-01-21 02:39:00,
2013-01-20 21:40:00,39.5,19.4,30.06,West,270,0.0,0.0,44,0.00,,---,0.00,VWS V14.01,2013-01-21 02:40:00,
2013-01-20 21:41:00,39.4,19.8,30.06,West,270,0.0,0.0,45,0.00,,---,0.00,VWS V14.01,2013-01-21 02:41:00,
2013-01-20 21:42:00,39.4,19.3,30.06,West,270,0.0,0.0,44,0.00,,---,0.00,VWS V14.01,2013-01-21 02:42:00,
2013-01-20 21:43:00,39.3,19.2,30.06,West,270,0.0,0.0,44,0.00,,---,0.00,VWS V14.01,2013-01-21 02:43:00,
2013-01-20 21:44:00,39.3,19.2,30.06,West,270,0.0,1.0,44,0.00,,---,0.00,VWS V14.01,2013-01-21 02:44:00,
2013-01-20 21:45:00,39.2,19.1,30.06,West,270,1.0,2.0,44,0.00,,---,0.00,VWS V14.01,2013-01-21 02:45:00,
2013-01-20 21:46:00,39.2,19.1,30.06,West,270,0.0,1.0,44,0.00,,---,0.00,VWS V14.01,2013-01-21 02:46:00,
2013-01-20 21:47:00,39.2,18.6,30.06,West,270,0.0,0.0,43,0.00,,---,0.00,VWS V14.01,2013-01-21 02:47:00,
2013-01-20 21:48:00,39.1,19.6,30.06,West,270,0.0,0.0,45,0.00,,---,0.00,VWS V14.01,2013-01-21 02:48:00,
2013-01-20 21:49:00,39.1,19.6,30.06,West,270,0.0,0.0,45,0.00,,---,0.00,VWS V14.01,2013-01-21 02:49:00,
2013-01-20 21:50:00,39.1,19.6,30.06,West,270,0.0,0.0,45,0.00,,---,0.00,VWS V14.01,2013-01-21 02:50:00,
2013-01-20 21:51:00,39.0,19.5,30.06,West,270,0.0,0.0,45,0.00,,---,0.00,VWS V14.01,2013-01-21 02:51:00,
2013-01-20 21:52:00,39.0,20.0,30.06,West,270,0.0,0.0,46,0.00,,---,0.00,VWS V14.01,2013-01-21 02:52:00,
2013-01-20 21:53:00,39.0,20.0,30.06,West,270,0.0,0.0,46,0.00,,---,0.00,VWS V14.01,2013-01-21 02:53:00,
2013-01-20 21:54:00,38.9,19.4,30.06,West,270,0.0,0.0,45,0.00,,---,0.00,VWS V14.01,2013-01-21 02:54:00,
2013-01-20 21:55:00,38.9,19.9,30.06,West,270,0.0,0.0,46,0.00,,---,0.00,VWS V14.01,2013-01-21 02:55:00,
2013-01-20 21:56:00,38.8,19.8,30.06,West,270,0.0,0.0,46,0.00,,---,0.00,VWS V14.01,2013-01-21 02:56:00,
2013-01-20 21:57:00,38.8,19.3,30.06,West,270,0.0,0.0,45,0.00,,---,0.00,VWS V14.01,2013-01-21 02:57:00,
2013-01-20 21:58:00,38.8,19.8,30.06,West,270,0.0,0.0,46,0.00,,---,0.00,VWS V14.01,2013-01-21 02:58:00,
2013-01-20 21:59:00,38.7,19.7,30.06,West,270,0.0,0.0,46,0.00,,---,0.00,VWS V14.01,2013-01-21 02:59:00,
2013-01-20 22:00:00,38.7,18.7,30.06,West,270,0.0,0.0,44,0.00,,---,0.00,VWS V14.01,2013-01-21 03:00:00,
2013-01-20 22:01:00,38.6,18.6,30.06,West,270,0.0,0.0,44,0.00,,---,0.00,VWS V14.01,2013-01-21 03:01:00,
2013-01-20 22:02:00,38.6,18.6,30.06,West,270,0.0,0.0,44,0.00,,---,0.00,VWS V14.01,2013-01-21 03:02:00,
2013-01-20 22:03:00,38.5,19.0,30.06,West,270,0.0,1.0,45,0.00,,---,0.00,VWS V14.01,2013-01-21 03:03:00,
2013-01-20 22:04:00,38.5,20.0,30.06,West,270,0.0,0.0,47,0.00,,---,0.00,VWS V14.01,2013-01-21 03:04:00,
2013-01-20 22:05:00,38.4,19.4,30.07,West,270,0.0,0.0,46,0.00,,---,0.00,VWS V14.01,2013-01-21 03:05:00,
2013-01-20 22:06:00,38.4,18.9,30.07,West,270,0.0,0.0,45,0.00,,---,0.00,VWS V14.01,2013-01-21 03:06:00,
2013-01-20 22:07:00,38.4,19.9,30.06,West,270,0.0,0.0,47,0.00,,---,0.00,VWS V14.01,2013-01-21 03:07:00,
2013-01-20 22:08:00,38.3,19.9,30.06,West,270,0.0,0.0,47,0.00,,---,0.00,VWS V14.01,2013-01-21 03:08:00,
2013-01-20 22:09:00,38.3,19.9,30.07,West,270,0.0,0.0,47,0.00,,---,0.00,VWS V14.01,2013-01-21 03:09:00,
2013-01-20 22:10:00,38.2,18.8,30.07,West,270,0.0,0.0,45,0.00,,---,0.00,VWS V14.01,2013-01-21 03:10:00,
2013-01-20 22:11:00,38.2,19.3,30.07,West,270,0.0,0.0,46,0.00,,---,0.00,VWS V14.01,2013-01-21 03:11:00,
2013-01-20 22:12:00,38.2,20.2,30.07,West,270,0.0,0.0,48,0.00,,---,0.00,VWS V14.01,2013-01-21 03:12:00,
2013-01-20 22:13:00,38.1,20.2,30.07,West,270,0.0,0.0,48,0.00,,---,0.00,VWS V14.01,2013-01-21 03:13:00,
2013-01-20 22:14:00,38.1,19.2,30.07,West,270,0.0,0.0,46,0.00,,---,0.00,VWS V14.01,2013-01-21 03:14:00,
2013-01-20 22:15:00,38.0,19.6,30.06,West,270,0.0,0.0,47,0.00,,---,0.00,VWS V14.01,2013-01-21 03:15:00,
2013-01-20 22:16:00,38.0,20.5,30.06,West,270,0.0,0.0,49,0.00,,---,0.00,VWS V14.01,2013-01-21 03:16:00,
2013-01-20 22:17:00,38.0,19.6,30.07,West,270,0.0,0.0,47,0.00,,---,0.00,VWS V14.01,2013-01-21 03:17:00,
2013-01-20 22:18:00,37.9,20.0,30.07,West,270,0.0,0.0,48,0.00,,---,0.00,VWS V14.01,2013-01-21 03:18:00,
2013-01-20 22:19:00,37.9,20.0,30.07,West,270,0.0,0.0,48,0.00,,---,0.00,VWS V14.01,2013-01-21 03:19:00,
2013-01-20 22:20:00,37.9,20.5,30.07,West,270,0.0,0.0,49,0.00,,---,0.00,VWS V14.01,2013-01-21 03:20:00,
2013-01-20 22:21:00,37.8,20.4,30.07,West,270,0.0,0.0,49,0.00,,---,0.00,VWS V14.01,2013-01-21 03:21:00,
2013-01-20 22:22:00,37.8,20.8,30.07,West,270,0.0,0.0,50,0.00,,---,0.00,VWS V14.01,2013-01-21 03:22:00,
2013-01-20 22:23:00,37.7,20.3,30.07,West,270,0.0,0.0,49,0.00,,---,0.00,VWS V14.01,2013-01-21 03:23:00,
2013-01-20 22:24:00,37.7,20.8,30.07,West,270,0.0,0.0,50,0.00,,---,0.00,VWS V14.01,2013-01-21 03:24:00,
2013-01-20 22:25:00,37.7,21.2,30.07,West,270,0.0,0.0,51,0.00,,---,0.00,VWS V14.01,2013-01-21 03:25:00,
2013-01-20 22:26:00,37.6,21.1,30.07,West,270,0.0,0.0,51,0.00,,---,0.00,VWS V14.01,2013-01-21 03:26:00,
2013-01-20 22:27:00,37.5,20.6,30.08,West,270,0.0,0.0,50,0.00,,---,0.00,VWS V14.01,2013-01-21 03:27:00,
2013-01-20 22:28:00,37.5,20.6,30.07,West,270,0.0,0.0,50,0.00,,---,0.00,VWS V14.01,2013-01-21 03:28:00,
2013-01-20 22:29:00,37.5,21.0,30.08,West,270,0.0,0.0,51,0.00,,---,0.00,VWS V14.01,2013-01-21 03:29:00,
2013-01-20 22:30:00,37.4,20.5,30.08,West,270,0.0,0.0,50,0.00,,---,0.00,VWS V14.01,2013-01-21 03:30:00,
2013-01-20 22:31:00,37.4,20.5,30.08,West,270,0.0,0.0,50,0.00,,---,0.00,VWS V14.01,2013-01-21 03:31:00,
2013-01-20 22:33:00,37.3,20.9,30.08,West,270,0.0,0.0,51,0.00,,---,0.00,VWS V14.01,2013-01-21 03:33:00,
2013-01-20 22:34:00,37.2,20.3,30.08,West,270,0.0,0.0,50,0.00,,---,0.00,VWS V14.01,2013-01-21 03:34:00,
2013-01-20 22:35:00,37.2,20.8,30.08,West,270,0.0,0.0,51,0.00,,---,0.00,VWS V14.01,2013-01-21 03:35:00,
2013-01-20 22:36:00,37.1,20.7,30.08,West,270,0.0,0.0,51,0.00,,---,0.00,VWS V14.01,2013-01-21 03:36:00,
2013-01-20 22:37:00,37.1,19.7,30.08,West,270,0.0,0.0,49,0.00,,---,0.00,VWS V14.01,2013-01-21 03:37:00,
2013-01-20 22:38:00,37.0,19.1,30.08,West,270,0.0,0.0,48,0.00,,---,0.00,VWS V14.01,2013-01-21 03:38:00,
2013-01-20 22:39:00,37.0,20.6,30.08,West,270,0.0,0.0,51,0.00,,---,0.00,VWS V14.01,2013-01-21 03:39:00,
2013-01-20 22:40:00,36.9,20.5,30.08,West,270,0.0,0.0,51,0.00,,---,0.00,VWS V14.01,2013-01-21 03:40:00,
2013-01-20 22:41:00,36.9,20.0,30.08,West,270,0.0,0.0,50,0.00,,---,0.00,VWS V14.01,2013-01-21 03:41:00,
2013-01-20 22:42:00,36.9,20.5,30.08,West,270,0.0,0.0,51,0.00,,---,0.00,VWS V14.01,2013-01-21 03:42:00,
2013-01-20 22:43:00,36.8,20.8,30.08,West,270,0.0,0.0,52,0.00,,---,0.00,VWS V14.01,2013-01-21 03:43:00,
2013-01-20 22:44:00,36.8,20.8,30.08,West,270,0.0,0.0,52,0.00,,---,0.00,VWS V14.01,2013-01-21 03:44:00,
2013-01-20 22:45:00,36.8,20.8,30.08,West,270,0.0,0.0,52,0.00,,---,0.00,VWS V14.01,2013-01-21 03:45:00,
2013-01-20 22:46:00,36.7,21.2,30.08,West,270,0.0,0.0,53,0.00,,---,0.00,VWS V14.01,2013-01-21 03:46:00,
2013-01-20 22:47:00,36.7,21.2,30.08,West,270,0.0,0.0,53,0.00,,---,0.00,VWS V14.01,2013-01-21 03:47:00,
2013-01-20 22:48:00,36.6,21.1,30.08,West,270,0.0,0.0,53,0.00,,---,0.00,VWS V14.01,2013-01-21 03:48:00,
2013-01-20 22:49:00,36.6,21.1,30.08,West,270,0.0,0.0,53,0.00,,---,0.00,VWS V14.01,2013-01-21 03:49:00,
2013-01-20 22:50:00,36.5,21.5,30.08,West,270,0.0,0.0,54,0.00,,---,0.00,VWS V14.01,2013-01-21 03:50:00,
2013-01-20 22:51:00,36.5,21.5,30.08,West,270,0.0,0.0,54,0.00,,---,0.00,VWS V14.01,2013-01-21 03:51:00,
2013-01-20 22:52:00,36.4,20.9,30.08,West,270,0.0,0.0,53,0.00,,---,0.00,VWS V14.01,2013-01-21 03:52:00,
2013-01-20 22:54:00,36.4,20.9,30.09,West,270,0.0,0.0,53,0.00,,---,0.00,VWS V14.01,2013-01-21 03:54:00,
2013-01-20 22:55:00,36.3,20.8,30.09,West,270,0.0,0.0,53,0.00,,---,0.00,VWS V14.01,2013-01-21 03:55:00,
2013-01-20 22:56:00,36.3,20.8,30.09,West,270,0.0,0.0,53,0.00,,---,0.00,VWS V14.01,2013-01-21 03:56:00,
2013-01-20 22:57:00,36.2,20.3,30.09,West,270,0.0,0.0,52,0.00,,---,0.00,VWS V14.01,2013-01-21 03:57:00,
2013-01-20 22:58:00,36.2,20.7,30.09,West,270,0.0,0.0,53,0.00,,---,0.00,VWS V14.01,2013-01-21 03:58:00,
2013-01-20 22:59:00,36.1,21.1,30.09,West,270,0.0,0.0,54,0.00,,---,0.00,VWS V14.01,2013-01-21 03:59:00,
2013-01-20 23:00:00,36.1,20.6,30.09,West,270,0.0,0.0,53,0.00,,---,0.00,VWS V14.01,2013-01-21 04:00:00,
2013-01-20 23:01:00,36.1,20.6,30.09,West,270,0.0,0.0,53,0.00,,---,0.00,VWS V14.01,2013-01-21 04:01:00,
2013-01-20 23:02:00,36.0,20.5,30.09,West,270,0.0,0.0,53,0.00,,---,0.00,VWS V14.01,2013-01-21 04:02:00,
2013-01-20 23:03:00,36.0,20.5,30.09,West,270,0.0,0.0,53,0.00,,---,0.00,VWS V14.01,2013-01-21 04:03:00,
2013-01-20 23:04:00,35.9,20.9,30.09,West,270,0.0,0.0,54,0.00,,---,0.00,VWS V14.01,2013-01-21 04:04:00,
2013-01-20 23:05:00,35.9,20.5,30.09,West,270,0.0,0.0,53,0.00,,---,0.00,VWS V14.01,2013-01-21 04:05:00,
2013-01-20 23:06:00,35.9,20.9,30.09,West,270,0.0,0.0,54,0.00,,---,0.00,VWS V14.01,2013-01-21 04:06:00,
2013-01-20 23:07:00,35.8,20.8,30.09,West,270,0.0,0.0,54,0.00,,---,0.00,VWS V14.01,2013-01-21 04:07:00,
2013-01-20 23:08:00,35.8,20.8,30.09,West,270,0.0,0.0,54,0.00,,---,0.00,VWS V14.01,2013-01-21 04:08:00,
2013-01-20 23:09:00,35.7,20.3,30.09,West,270,0.0,0.0,53,0.00,,---,0.00,VWS V14.01,2013-01-21 04:09:00,
2013-01-20 23:10:00,35.7,19.8,30.09,West,270,0.0,0.0,52,0.00,,---,0.00,VWS V14.01,2013-01-21 04:10:00,
2013-01-20 23:11:00,35.7,20.3,30.09,West,270,0.0,0.0,53,0.00,,---,0.00,VWS V14.01,2013-01-21 04:11:00,
2013-01-20 23:12:00,35.7,20.7,30.09,West,270,0.0,0.0,54,0.00,,---,0.00,VWS V14.01,2013-01-21 04:12:00,
2013-01-20 23:13:00,35.7,20.7,30.09,West,270,0.0,0.0,54,0.00,,---,0.00,VWS V14.01,2013-01-21 04:13:00,
2013-01-20 23:14:00,35.6,21.0,30.09,West,270,0.0,0.0,55,0.00,,---,0.00,VWS V14.01,2013-01-21 04:14:00,
2013-01-20 23:15:00,35.6,21.5,30.09,West,270,0.0,0.0,56,0.00,,---,0.00,VWS V14.01,2013-01-21 04:15:00,
2013-01-20 23:16:00,35.6,21.9,30.09,West,270,0.0,0.0,57,0.00,,---,0.00,VWS V14.01,2013-01-21 04:16:00,
2013-01-20 23:17:00,35.6,21.5,30.09,West,270,0.0,0.0,56,0.00,,---,0.00,VWS V14.01,2013-01-21 04:17:00,
2013-01-20 23:18:00,35.5,21.8,30.10,West,270,0.0,0.0,57,0.00,,---,0.00,VWS V14.01,2013-01-21 04:18:00,
2013-01-20 23:19:00,35.5,21.8,30.10,West,270,0.0,0.0,57,0.00,,---,0.00,VWS V14.01,2013-01-21 04:19:00,
2013-01-20 23:20:00,35.4,21.7,30.10,West,270,0.0,0.0,57,0.00,,---,0.00,VWS V14.01,2013-01-21 04:20:00,
2013-01-20 23:21:00,35.4,21.7,30.10,West,270,0.0,0.0,57,0.00,,---,0.00,VWS V14.01,2013-01-21 04:21:00,
2013-01-20 23:22:00,35.4,21.7,30.10,West,270,0.0,0.0,57,0.00,,---,0.00,VWS V14.01,2013-01-21 04:22:00,
2013-01-20 23:23:00,35.3,21.6,30.10,West,270,0.0,0.0,57,0.00,,---,0.00,VWS V14.01,2013-01-21 04:23:00,
2013-01-20 23:24:00,35.3,21.6,30.10,West,270,0.0,0.0,57,0.00,,---,0.00,VWS V14.01,2013-01-21 04:24:00,
2013-01-20 23:25:00,35.3,21.6,30.09,West,270,0.0,0.0,57,0.00,,---,0.00,VWS V14.01,2013-01-21 04:25:00,
2013-01-20 23:26:00,35.2,21.5,30.09,West,270,0.0,0.0,57,0.00,,---,0.00,VWS V14.01,2013-01-21 04:26:00,
2013-01-20 23:27:00,35.2,21.9,30.09,West,270,0.0,0.0,58,0.00,,---,0.00,VWS V14.01,2013-01-21 04:27:00,
2013-01-20 23:28:00,35.2,21.5,30.09,West,270,0.0,1.0,57,0.00,,---,0.00,VWS V14.01,2013-01-21 04:28:00,
2013-01-20 23:29:00,35.2,21.9,30.09,West,270,0.0,0.0,58,0.00,,---,0.00,VWS V14.01,2013-01-21 04:29:00,
2013-01-20 23:30:00,35.1,21.4,30.09,West,270,0.0,0.0,57,0.00,,---,0.00,VWS V14.01,2013-01-21 04:30:00,
2013-01-20 23:31:00,35.1,21.4,30.09,West,270,0.0,0.0,57,0.00,,---,0.00,VWS V14.01,2013-01-21 04:31:00,
2013-01-20 23:32:00,35.1,21.0,30.09,West,270,0.0,0.0,56,0.00,,---,0.00,VWS V14.01,2013-01-21 04:32:00,
2013-01-20 23:33:00,35.1,21.0,30.09,West,270,0.0,0.0,56,0.00,,---,0.00,VWS V14.01,2013-01-21 04:33:00,
2013-01-20 23:34:00,35.1,21.0,30.09,West,270,0.0,0.0,56,0.00,,---,0.00,VWS V14.01,2013-01-21 04:34:00,
2013-01-20 23:35:00,35.0,20.9,30.09,West,270,0.0,0.0,56,0.00,,---,0.00,VWS V14.01,2013-01-21 04:35:00,
2013-01-20 23:36:00,35.1,21.0,30.09,West,270,0.0,0.0,56,0.00,,---,0.00,VWS V14.01,2013-01-21 04:36:00,
2013-01-20 23:37:00,35.0,20.9,30.09,West,270,0.0,0.0,56,0.00,,---,0.00,VWS V14.01,2013-01-21 04:37:00,
2013-01-20 23:38:00,35.0,20.5,30.09,West,270,0.0,0.0,55,0.00,,---,0.00,VWS V14.01,2013-01-21 04:38:00,
2013-01-20 23:39:00,35.0,21.3,30.09,West,270,0.0,0.0,57,0.00,,---,0.00,VWS V14.01,2013-01-21 04:39:00,
2013-01-20 23:40:00,35.0,21.3,30.10,West,270,0.0,0.0,57,0.00,,---,0.00,VWS V14.01,2013-01-21 04:40:00,
2013-01-20 23:41:00,35.0,21.3,30.09,West,270,0.0,0.0,57,0.00,,---,0.00,VWS V14.01,2013-01-21 04:41:00,
2013-01-20 23:42:00,35.0,21.3,30.10,West,270,0.0,0.0,57,0.00,,---,0.00,VWS V14.01,2013-01-21 04:42:00,
2013-01-20 23:43:00,35.0,20.9,30.10,West,270,0.0,0.0,56,0.00,,---,0.00,VWS V14.01,2013-01-21 04:43:00,
2013-01-20 23:44:00,35.0,21.3,30.09,West,270,0.0,0.0,57,0.00,,---,0.00,VWS V14.01,2013-01-21 04:44:00,
2013-01-20 23:45:00,34.9,20.8,30.10,West,270,0.0,0.0,56,0.00,,---,0.00,VWS V14.01,2013-01-21 04:45:00,
2013-01-20 23:46:00,34.9,20.4,30.09,West,270,0.0,0.0,55,0.00,,---,0.00,VWS V14.01,2013-01-21 04:46:00,
2013-01-20 23:47:00,34.9,20.8,30.10,West,270,0.0,0.0,56,0.00,,---,0.00,VWS V14.01,2013-01-21 04:47:00,
2013-01-20 23:48:00,34.9,20.8,30.10,West,270,0.0,0.0,56,0.00,,---,0.00,VWS V14.01,2013-01-21 04:48:00,
2013-01-20 23:49:00,34.9,20.4,30.10,West,270,0.0,0.0,55,0.00,,---,0.00,VWS V14.01,2013-01-21 04:49:00,
2013-01-20 23:50:00,34.9,20.8,30.10,West,270,0.0,0.0,56,0.00,,---,0.00,VWS V14.01,2013-01-21 04:50:00,
2013-01-20 23:51:00,34.9,20.4,30.10,West,270,0.0,0.0,55,0.00,,---,0.00,VWS V14.01,2013-01-21 04:51:00,
2013-01-20 23:52:00,34.9,20.0,30.10,West,270,0.0,0.0,54,0.00,,---,0.00,VWS V14.01,2013-01-21 04:52:00,
2013-01-20 23:53:00,34.9,20.4,30.10,West,270,0.0,0.0,55,0.00,,---,0.00,VWS V14.01,2013-01-21 04:53:00,
2013-01-20 23:54:00,35.0,21.3,30.10,West,270,0.0,0.0,57,0.00,,---,0.00,VWS V14.01,2013-01-21 04:54:00,
2013-01-20 23:56:00,34.9,20.8,30.09,West,270,0.0,0.0,56,0.00,,---,0.00,VWS V14.01,2013-01-21 04:56:00,
2013-01-20 23:57:00,35.0,21.3,30.09,West,270,0.0,0.0,57,0.00,,---,0.00,VWS V14.01,2013-01-21 04:57:00,
2013-01-20 23:58:00,35.0,21.7,30.09,West,270,0.0,0.0,58,0.00,,---,0.00,VWS V14.01,2013-01-21 04:58:00,
2013-01-20 23:59:00,34.9,21.6,30.09,West,270,0.0,0.0,58,0.00,,---,0.00,VWS V14.01,2013-01-21 04:59:00,